<?xml version="1.0" encoding="UTF-8" standalone="no" ?>
<gpx xmlns="http://www.topografix.com/GPX/1/1" xmlns:xsi="http://www.w3.org/2001/XMLSchema-instance" xsi:schemaLocation="http://www.topografix.com/GPX/1/1 http://www.topografix.com/GPX/1/1/gpx.xsd" version="1.1" creator="VisuGPX - https://www.visugpx.com">
  <metadata>
    <name>RoadTrip Moto Ecosse Juin 2021 - V3</name>
  </metadata>
  <trk>
    <name><![CDATA[WE 02 - Brügge - IJmuiden]]></name>
    <extensions>
      <line xmlns="http://www.topografix.com/GPX/gpx_style/0/2">
        <color>FFFF00</color>
        <width>4</width>
      </line>
    </extensions>
    <trkseg>
      <trkpt lat="51.22299" lon="3.23658">
        <ele>2.88</ele>
        <time>2021-04-09T09:13:27Z</time>
      </trkpt>
      <trkpt lat="51.22348" lon="3.23751">
        <ele>3.52</ele>
        <time>2021-04-09T09:13:43Z</time>
      </trkpt>
      <trkpt lat="51.22446" lon="3.23943">
        <ele>2.18</ele>
        <time>2021-04-09T09:13:58Z</time>
      </trkpt>
      <trkpt lat="51.22415" lon="3.23984">
        <ele>2.54</ele>
        <time>2021-04-09T09:14:03Z</time>
      </trkpt>
      <trkpt lat="51.22456" lon="3.24068">
        <ele>2.58</ele>
        <time>2021-04-09T09:14:09Z</time>
      </trkpt>
      <trkpt lat="51.22467" lon="3.24101">
        <ele>2.7</ele>
        <time>2021-04-09T09:14:15Z</time>
      </trkpt>
      <trkpt lat="51.22463" lon="3.24108">
        <ele>2.93</ele>
        <time>2021-04-09T09:14:33Z</time>
      </trkpt>
      <trkpt lat="51.22463" lon="3.24118">
        <ele>3</ele>
        <time>2021-04-09T09:14:51Z</time>
      </trkpt>
      <trkpt lat="51.22465" lon="3.24122">
        <ele>3</ele>
        <time>2021-04-09T09:15:08Z</time>
      </trkpt>
      <trkpt lat="51.2247" lon="3.24127">
        <ele>3</ele>
        <time>2021-04-09T09:15:26Z</time>
      </trkpt>
      <trkpt lat="51.22473" lon="3.24127">
        <ele>3</ele>
        <time>2021-04-09T09:15:44Z</time>
      </trkpt>
      <trkpt lat="51.22478" lon="3.24122">
        <ele>3</ele>
        <time>2021-04-09T09:16:02Z</time>
      </trkpt>
      <trkpt lat="51.2249" lon="3.24131">
        <ele>3</ele>
        <time>2021-04-09T09:16:19Z</time>
      </trkpt>
      <trkpt lat="51.22659" lon="3.24461">
        <ele>6.12</ele>
        <time>2021-04-09T09:16:37Z</time>
      </trkpt>
      <trkpt lat="51.23328" lon="3.25755">
        <ele>4.99</ele>
        <time>2021-04-09T09:16:55Z</time>
      </trkpt>
      <trkpt lat="51.23418" lon="3.25922">
        <ele>3.01</ele>
        <time>2021-04-09T09:17:13Z</time>
      </trkpt>
      <trkpt lat="51.23438" lon="3.25951">
        <ele>3.75</ele>
        <time>2021-04-09T09:17:31Z</time>
      </trkpt>
      <trkpt lat="51.2351" lon="3.26045">
        <ele>0.36</ele>
        <time>2021-04-09T09:17:48Z</time>
      </trkpt>
      <trkpt lat="51.23623" lon="3.26187">
        <ele>5</ele>
        <time>2021-04-09T09:18:06Z</time>
      </trkpt>
      <trkpt lat="51.24622" lon="3.27368">
        <ele>1.28</ele>
        <time>2021-04-09T09:18:24Z</time>
      </trkpt>
      <trkpt lat="51.24797" lon="3.2757">
        <ele>3</ele>
        <time>2021-04-09T09:18:42Z</time>
      </trkpt>
      <trkpt lat="51.24846" lon="3.27628">
        <ele>3.38</ele>
        <time>2021-04-09T09:19:00Z</time>
      </trkpt>
      <trkpt lat="51.24867" lon="3.2766">
        <ele>1.84</ele>
        <time>2021-04-09T09:19:17Z</time>
      </trkpt>
      <trkpt lat="51.24896" lon="3.27685">
        <ele>2.24</ele>
        <time>2021-04-09T09:19:35Z</time>
      </trkpt>
      <trkpt lat="51.24983" lon="3.27781">
        <ele>1.37</ele>
        <time>2021-04-09T09:19:53Z</time>
      </trkpt>
      <trkpt lat="51.25207" lon="3.28044">
        <ele>3.54</ele>
        <time>2021-04-09T09:20:11Z</time>
      </trkpt>
      <trkpt lat="51.26497" lon="3.29569">
        <ele>6.45</ele>
        <time>2021-04-09T09:20:28Z</time>
      </trkpt>
      <trkpt lat="51.26503" lon="3.29586">
        <ele>5.78</ele>
        <time>2021-04-09T09:20:46Z</time>
      </trkpt>
      <trkpt lat="51.26505" lon="3.29609">
        <ele>4.59</ele>
        <time>2021-04-09T09:21:04Z</time>
      </trkpt>
      <trkpt lat="51.26498" lon="3.29626">
        <ele>5.13</ele>
        <time>2021-04-09T09:21:22Z</time>
      </trkpt>
      <trkpt lat="51.26635" lon="3.29789">
        <ele>1.41</ele>
        <time>2021-04-09T09:21:32Z</time>
      </trkpt>
      <trkpt lat="51.26648" lon="3.29766">
        <ele>2.08</ele>
        <time>2021-04-09T09:21:50Z</time>
      </trkpt>
      <trkpt lat="51.26657" lon="3.2976">
        <ele>2.95</ele>
        <time>2021-04-09T09:22:09Z</time>
      </trkpt>
      <trkpt lat="51.26664" lon="3.29762">
        <ele>3.41</ele>
        <time>2021-04-09T09:22:28Z</time>
      </trkpt>
      <trkpt lat="51.27194" lon="3.30392">
        <ele>6.88</ele>
        <time>2021-04-09T09:22:46Z</time>
      </trkpt>
      <trkpt lat="51.27236" lon="3.30438">
        <ele>2.83</ele>
        <time>2021-04-09T09:23:05Z</time>
      </trkpt>
      <trkpt lat="51.27306" lon="3.30524">
        <ele>2.02</ele>
        <time>2021-04-09T09:23:23Z</time>
      </trkpt>
      <trkpt lat="51.27953" lon="3.31287">
        <ele>4.36</ele>
        <time>2021-04-09T09:23:42Z</time>
      </trkpt>
      <trkpt lat="51.27991" lon="3.3134">
        <ele>2.63</ele>
        <time>2021-04-09T09:24:01Z</time>
      </trkpt>
      <trkpt lat="51.28022" lon="3.31391">
        <ele>3</ele>
        <time>2021-04-09T09:24:19Z</time>
      </trkpt>
      <trkpt lat="51.28077" lon="3.31501">
        <ele>5.22</ele>
        <time>2021-04-09T09:24:38Z</time>
      </trkpt>
      <trkpt lat="51.29117" lon="3.33724">
        <ele>3.78</ele>
        <time>2021-04-09T09:24:57Z</time>
      </trkpt>
      <trkpt lat="51.2916" lon="3.33673">
        <ele>3.23</ele>
        <time>2021-04-09T09:25:03Z</time>
      </trkpt>
      <trkpt lat="51.29157" lon="3.33659">
        <ele>3.09</ele>
        <time>2021-04-09T09:25:08Z</time>
      </trkpt>
      <trkpt lat="51.29139" lon="3.33616">
        <ele>3.01</ele>
        <time>2021-04-09T09:25:13Z</time>
      </trkpt>
      <trkpt lat="51.29088" lon="3.33504">
        <ele>2.83</ele>
        <time>2021-04-09T09:25:18Z</time>
      </trkpt>
      <trkpt lat="51.29136" lon="3.33437">
        <ele>0.14</ele>
        <time>2021-04-09T09:25:22Z</time>
      </trkpt>
      <trkpt lat="51.29154" lon="3.33416">
        <ele>-0.54</ele>
        <time>2021-04-09T09:25:26Z</time>
      </trkpt>
      <trkpt lat="51.29175" lon="3.33401">
        <ele>-1</ele>
        <time>2021-04-09T09:25:30Z</time>
      </trkpt>
      <trkpt lat="51.29191" lon="3.33393">
        <ele>-1</ele>
        <time>2021-04-09T09:25:35Z</time>
      </trkpt>
      <trkpt lat="51.29197" lon="3.33378">
        <ele>-1.36</ele>
        <time>2021-04-09T09:25:39Z</time>
      </trkpt>
      <trkpt lat="51.29226" lon="3.33183">
        <ele>1.28</ele>
        <time>2021-04-09T09:25:43Z</time>
      </trkpt>
      <trkpt lat="51.29224" lon="3.33131">
        <ele>3.02</ele>
        <time>2021-04-09T09:25:47Z</time>
      </trkpt>
      <trkpt lat="51.29217" lon="3.33027">
        <ele>2.82</ele>
        <time>2021-04-09T09:25:52Z</time>
      </trkpt>
      <trkpt lat="51.29218" lon="3.33016">
        <ele>2.86</ele>
        <time>2021-04-09T09:25:56Z</time>
      </trkpt>
      <trkpt lat="51.29223" lon="3.33004">
        <ele>3.04</ele>
        <time>2021-04-09T09:26:00Z</time>
      </trkpt>
      <trkpt lat="51.29231" lon="3.32997">
        <ele>3.21</ele>
        <time>2021-04-09T09:26:05Z</time>
      </trkpt>
      <trkpt lat="51.29278" lon="3.32996">
        <ele>3.87</ele>
        <time>2021-04-09T09:26:09Z</time>
      </trkpt>
      <trkpt lat="51.29284" lon="3.32988">
        <ele>3.15</ele>
        <time>2021-04-09T09:26:13Z</time>
      </trkpt>
      <trkpt lat="51.2933" lon="3.32883">
        <ele>0.18</ele>
        <time>2021-04-09T09:26:17Z</time>
      </trkpt>
      <trkpt lat="51.29332" lon="3.3287">
        <ele>0.67</ele>
        <time>2021-04-09T09:26:22Z</time>
      </trkpt>
      <trkpt lat="51.29328" lon="3.32859">
        <ele>0.88</ele>
        <time>2021-04-09T09:26:26Z</time>
      </trkpt>
      <trkpt lat="51.29301" lon="3.32829">
        <ele>-0.03</ele>
        <time>2021-04-09T09:26:30Z</time>
      </trkpt>
      <trkpt lat="51.29297" lon="3.32821">
        <ele>-0.14</ele>
        <time>2021-04-09T09:26:34Z</time>
      </trkpt>
      <trkpt lat="51.29298" lon="3.32812">
        <ele>-0.22</ele>
        <time>2021-04-09T09:26:39Z</time>
      </trkpt>
      <trkpt lat="51.29366" lon="3.32602">
        <ele>0.43</ele>
        <time>2021-04-09T09:26:43Z</time>
      </trkpt>
      <trkpt lat="51.29375" lon="3.32563">
        <ele>1</ele>
        <time>2021-04-09T09:26:47Z</time>
      </trkpt>
      <trkpt lat="51.29382" lon="3.32515">
        <ele>1</ele>
        <time>2021-04-09T09:26:52Z</time>
      </trkpt>
      <trkpt lat="51.29403" lon="3.32298">
        <ele>-0.5</ele>
        <time>2021-04-09T09:26:56Z</time>
      </trkpt>
      <trkpt lat="51.29411" lon="3.32251">
        <ele>-0.23</ele>
        <time>2021-04-09T09:27:00Z</time>
      </trkpt>
      <trkpt lat="51.29419" lon="3.32218">
        <ele>0.17</ele>
        <time>2021-04-09T09:27:04Z</time>
      </trkpt>
      <trkpt lat="51.29431" lon="3.3218">
        <ele>1</ele>
        <time>2021-04-09T09:27:09Z</time>
      </trkpt>
      <trkpt lat="51.29443" lon="3.32163">
        <ele>1.14</ele>
        <time>2021-04-09T09:27:13Z</time>
      </trkpt>
      <trkpt lat="51.2946" lon="3.32148">
        <ele>1.28</ele>
        <time>2021-04-09T09:27:17Z</time>
      </trkpt>
      <trkpt lat="51.29508" lon="3.32238">
        <ele>-1.29</ele>
        <time>2021-04-09T09:27:22Z</time>
      </trkpt>
      <trkpt lat="51.29553" lon="3.32353">
        <ele>3</ele>
        <time>2021-04-09T09:27:26Z</time>
      </trkpt>
      <trkpt lat="51.2966" lon="3.32696">
        <ele>-0.72</ele>
        <time>2021-04-09T09:27:30Z</time>
      </trkpt>
      <trkpt lat="51.2969" lon="3.32771">
        <ele>3.2</ele>
        <time>2021-04-09T09:27:35Z</time>
      </trkpt>
      <trkpt lat="51.29701" lon="3.32793">
        <ele>3</ele>
        <time>2021-04-09T09:27:39Z</time>
      </trkpt>
      <trkpt lat="51.29712" lon="3.3281">
        <ele>-0.06</ele>
        <time>2021-04-09T09:27:43Z</time>
      </trkpt>
      <trkpt lat="51.29728" lon="3.32827">
        <ele>-0.04</ele>
        <time>2021-04-09T09:27:48Z</time>
      </trkpt>
      <trkpt lat="51.29761" lon="3.32852">
        <ele>-0.4</ele>
        <time>2021-04-09T09:27:52Z</time>
      </trkpt>
      <trkpt lat="51.29816" lon="3.32883">
        <ele>-1</ele>
        <time>2021-04-09T09:27:56Z</time>
      </trkpt>
      <trkpt lat="51.29893" lon="3.32927">
        <ele>-0.82</ele>
        <time>2021-04-09T09:28:01Z</time>
      </trkpt>
      <trkpt lat="51.29907" lon="3.32933">
        <ele>-1.46</ele>
        <time>2021-04-09T09:28:05Z</time>
      </trkpt>
      <trkpt lat="51.29924" lon="3.32935">
        <ele>-2.17</ele>
        <time>2021-04-09T09:28:09Z</time>
      </trkpt>
      <trkpt lat="51.29944" lon="3.32931">
        <ele>-2.51</ele>
        <time>2021-04-09T09:28:14Z</time>
      </trkpt>
      <trkpt lat="51.2996" lon="3.3292">
        <ele>-1.56</ele>
        <time>2021-04-09T09:28:18Z</time>
      </trkpt>
      <trkpt lat="51.30047" lon="3.32825">
        <ele>0.09</ele>
        <time>2021-04-09T09:28:22Z</time>
      </trkpt>
      <trkpt lat="51.30056" lon="3.32849">
        <ele>1</ele>
        <time>2021-04-09T09:28:25Z</time>
      </trkpt>
      <trkpt lat="51.30078" lon="3.32908">
        <ele>1</ele>
        <time>2021-04-09T09:28:28Z</time>
      </trkpt>
      <trkpt lat="51.30083" lon="3.32912">
        <ele>1</ele>
        <time>2021-04-09T09:28:31Z</time>
      </trkpt>
      <trkpt lat="51.30088" lon="3.32913">
        <ele>0.17</ele>
        <time>2021-04-09T09:28:33Z</time>
      </trkpt>
      <trkpt lat="51.30094" lon="3.32911">
        <ele>0.39</ele>
        <time>2021-04-09T09:28:36Z</time>
      </trkpt>
      <trkpt lat="51.30204" lon="3.3283">
        <ele>1</ele>
        <time>2021-04-09T09:28:39Z</time>
      </trkpt>
      <trkpt lat="51.30212" lon="3.32828">
        <ele>1</ele>
        <time>2021-04-09T09:28:42Z</time>
      </trkpt>
      <trkpt lat="51.30219" lon="3.32832">
        <ele>1</ele>
        <time>2021-04-09T09:28:44Z</time>
      </trkpt>
      <trkpt lat="51.30225" lon="3.32841">
        <ele>1.09</ele>
        <time>2021-04-09T09:28:47Z</time>
      </trkpt>
      <trkpt lat="51.30227" lon="3.32853">
        <ele>1.18</ele>
        <time>2021-04-09T09:28:50Z</time>
      </trkpt>
      <trkpt lat="51.30229" lon="3.32863">
        <ele>1.27</ele>
        <time>2021-04-09T09:28:53Z</time>
      </trkpt>
      <trkpt lat="51.30251" lon="3.33096">
        <ele>1</ele>
        <time>2021-04-09T09:28:56Z</time>
      </trkpt>
      <trkpt lat="51.30252" lon="3.33148">
        <ele>0.67</ele>
        <time>2021-04-09T09:28:58Z</time>
      </trkpt>
      <trkpt lat="51.3025" lon="3.33195">
        <ele>1</ele>
        <time>2021-04-09T09:29:01Z</time>
      </trkpt>
      <trkpt lat="51.3025" lon="3.33268">
        <ele>1</ele>
        <time>2021-04-09T09:29:04Z</time>
      </trkpt>
      <trkpt lat="51.30257" lon="3.33403">
        <ele>0.74</ele>
        <time>2021-04-09T09:29:07Z</time>
      </trkpt>
      <trkpt lat="51.30265" lon="3.33477">
        <ele>1</ele>
        <time>2021-04-09T09:29:09Z</time>
      </trkpt>
      <trkpt lat="51.30268" lon="3.33526">
        <ele>1</ele>
        <time>2021-04-09T09:29:12Z</time>
      </trkpt>
      <trkpt lat="51.30266" lon="3.33586">
        <ele>3</ele>
        <time>2021-04-09T09:29:15Z</time>
      </trkpt>
      <trkpt lat="51.30268" lon="3.33601">
        <ele>3</ele>
        <time>2021-04-09T09:29:18Z</time>
      </trkpt>
      <trkpt lat="51.30274" lon="3.33623">
        <ele>3</ele>
        <time>2021-04-09T09:29:20Z</time>
      </trkpt>
      <trkpt lat="51.30299" lon="3.33678">
        <ele>1</ele>
        <time>2021-04-09T09:29:23Z</time>
      </trkpt>
      <trkpt lat="51.30312" lon="3.3372">
        <ele>0.93</ele>
        <time>2021-04-09T09:29:26Z</time>
      </trkpt>
      <trkpt lat="51.30354" lon="3.33835">
        <ele>-0.26</ele>
        <time>2021-04-09T09:29:29Z</time>
      </trkpt>
      <trkpt lat="51.3036" lon="3.33855">
        <ele>-0.05</ele>
        <time>2021-04-09T09:29:32Z</time>
      </trkpt>
      <trkpt lat="51.30362" lon="3.33873">
        <ele>0.44</ele>
        <time>2021-04-09T09:29:34Z</time>
      </trkpt>
      <trkpt lat="51.30361" lon="3.33952">
        <ele>1.73</ele>
        <time>2021-04-09T09:29:37Z</time>
      </trkpt>
      <trkpt lat="51.30366" lon="3.34025">
        <ele>1</ele>
        <time>2021-04-09T09:29:40Z</time>
      </trkpt>
      <trkpt lat="51.30374" lon="3.34083">
        <ele>-1</ele>
        <time>2021-04-09T09:29:43Z</time>
      </trkpt>
      <trkpt lat="51.30394" lon="3.34144">
        <ele>0.16</ele>
        <time>2021-04-09T09:29:45Z</time>
      </trkpt>
      <trkpt lat="51.30427" lon="3.34219">
        <ele>-0.87</ele>
        <time>2021-04-09T09:29:48Z</time>
      </trkpt>
      <trkpt lat="51.30432" lon="3.34237">
        <ele>-1</ele>
        <time>2021-04-09T09:29:51Z</time>
      </trkpt>
      <trkpt lat="51.30455" lon="3.34345">
        <ele>-0.63</ele>
        <time>2021-04-09T09:29:54Z</time>
      </trkpt>
      <trkpt lat="51.30474" lon="3.34425">
        <ele>0.01</ele>
        <time>2021-04-09T09:29:56Z</time>
      </trkpt>
      <trkpt lat="51.30486" lon="3.3447">
        <ele>0.49</ele>
        <time>2021-04-09T09:29:59Z</time>
      </trkpt>
      <trkpt lat="51.30495" lon="3.34496">
        <ele>0.97</ele>
        <time>2021-04-09T09:30:02Z</time>
      </trkpt>
      <trkpt lat="51.30567" lon="3.34623">
        <ele>-0.4</ele>
        <time>2021-04-09T09:30:05Z</time>
      </trkpt>
      <trkpt lat="51.30618" lon="3.34705">
        <ele>1</ele>
        <time>2021-04-09T09:30:08Z</time>
      </trkpt>
      <trkpt lat="51.3063" lon="3.34734">
        <ele>1</ele>
        <time>2021-04-09T09:30:10Z</time>
      </trkpt>
      <trkpt lat="51.3065" lon="3.34797">
        <ele>0.41</ele>
        <time>2021-04-09T09:30:13Z</time>
      </trkpt>
      <trkpt lat="51.30652" lon="3.34821">
        <ele>0.48</ele>
        <time>2021-04-09T09:30:16Z</time>
      </trkpt>
      <trkpt lat="51.30651" lon="3.34841">
        <ele>0.45</ele>
        <time>2021-04-09T09:30:19Z</time>
      </trkpt>
      <trkpt lat="51.30639" lon="3.34915">
        <ele>1</ele>
        <time>2021-04-09T09:30:21Z</time>
      </trkpt>
      <trkpt lat="51.30636" lon="3.3495">
        <ele>-0.1</ele>
        <time>2021-04-09T09:30:24Z</time>
      </trkpt>
      <trkpt lat="51.30638" lon="3.34972">
        <ele>-0.03</ele>
        <time>2021-04-09T09:30:27Z</time>
      </trkpt>
      <trkpt lat="51.30664" lon="3.35072">
        <ele>3</ele>
        <time>2021-04-09T09:30:30Z</time>
      </trkpt>
      <trkpt lat="51.30683" lon="3.35128">
        <ele>3.3</ele>
        <time>2021-04-09T09:30:32Z</time>
      </trkpt>
      <trkpt lat="51.30706" lon="3.35173">
        <ele>0.7</ele>
        <time>2021-04-09T09:30:35Z</time>
      </trkpt>
      <trkpt lat="51.30735" lon="3.35198">
        <ele>0.67</ele>
        <time>2021-04-09T09:30:38Z</time>
      </trkpt>
      <trkpt lat="51.30743" lon="3.3521">
        <ele>0.83</ele>
        <time>2021-04-09T09:30:41Z</time>
      </trkpt>
      <trkpt lat="51.30748" lon="3.35225">
        <ele>1.06</ele>
        <time>2021-04-09T09:30:44Z</time>
      </trkpt>
      <trkpt lat="51.30758" lon="3.3529">
        <ele>0.44</ele>
        <time>2021-04-09T09:30:46Z</time>
      </trkpt>
      <trkpt lat="51.30763" lon="3.35305">
        <ele>0.1</ele>
        <time>2021-04-09T09:30:49Z</time>
      </trkpt>
      <trkpt lat="51.30771" lon="3.35321">
        <ele>-0.06</ele>
        <time>2021-04-09T09:30:52Z</time>
      </trkpt>
      <trkpt lat="51.30807" lon="3.35358">
        <ele>-0.11</ele>
        <time>2021-04-09T09:30:55Z</time>
      </trkpt>
      <trkpt lat="51.30817" lon="3.35375">
        <ele>0.5</ele>
        <time>2021-04-09T09:30:57Z</time>
      </trkpt>
      <trkpt lat="51.30826" lon="3.3541">
        <ele>1</ele>
        <time>2021-04-09T09:31:00Z</time>
      </trkpt>
      <trkpt lat="51.30834" lon="3.35464">
        <ele>1</ele>
        <time>2021-04-09T09:31:03Z</time>
      </trkpt>
      <trkpt lat="51.3084" lon="3.35491">
        <ele>0.83</ele>
        <time>2021-04-09T09:31:06Z</time>
      </trkpt>
      <trkpt lat="51.30864" lon="3.35549">
        <ele>0.68</ele>
        <time>2021-04-09T09:31:08Z</time>
      </trkpt>
      <trkpt lat="51.30885" lon="3.35633">
        <ele>-0.14</ele>
        <time>2021-04-09T09:31:11Z</time>
      </trkpt>
      <trkpt lat="51.30892" lon="3.35654">
        <ele>-0.5</ele>
        <time>2021-04-09T09:31:14Z</time>
      </trkpt>
      <trkpt lat="51.309" lon="3.35671">
        <ele>-0.6</ele>
        <time>2021-04-09T09:31:17Z</time>
      </trkpt>
      <trkpt lat="51.3091" lon="3.35684">
        <ele>-0.25</ele>
        <time>2021-04-09T09:31:20Z</time>
      </trkpt>
      <trkpt lat="51.30937" lon="3.35704">
        <ele>0.25</ele>
        <time>2021-04-09T09:31:22Z</time>
      </trkpt>
      <trkpt lat="51.30963" lon="3.35729">
        <ele>1</ele>
        <time>2021-04-09T09:31:25Z</time>
      </trkpt>
      <trkpt lat="51.30981" lon="3.35752">
        <ele>0.64</ele>
        <time>2021-04-09T09:31:28Z</time>
      </trkpt>
      <trkpt lat="51.31045" lon="3.35847">
        <ele>0.7</ele>
        <time>2021-04-09T09:31:31Z</time>
      </trkpt>
      <trkpt lat="51.31068" lon="3.35894">
        <ele>-1.44</ele>
        <time>2021-04-09T09:31:33Z</time>
      </trkpt>
      <trkpt lat="51.31102" lon="3.35979">
        <ele>-1.41</ele>
        <time>2021-04-09T09:31:36Z</time>
      </trkpt>
      <trkpt lat="51.31197" lon="3.36284">
        <ele>-0.71</ele>
        <time>2021-04-09T09:31:39Z</time>
      </trkpt>
      <trkpt lat="51.3121" lon="3.36315">
        <ele>0.34</ele>
        <time>2021-04-09T09:31:42Z</time>
      </trkpt>
      <trkpt lat="51.31224" lon="3.3634">
        <ele>1.07</ele>
        <time>2021-04-09T09:31:44Z</time>
      </trkpt>
      <trkpt lat="51.31162" lon="3.36429">
        <ele>1.75</ele>
        <time>2021-04-09T09:31:53Z</time>
      </trkpt>
      <trkpt lat="51.31027" lon="3.36589">
        <ele>0.95</ele>
        <time>2021-04-09T09:32:01Z</time>
      </trkpt>
      <trkpt lat="51.30885" lon="3.36785">
        <ele>1.1</ele>
        <time>2021-04-09T09:32:09Z</time>
      </trkpt>
      <trkpt lat="51.3068" lon="3.37094">
        <ele>4</ele>
        <time>2021-04-09T09:32:17Z</time>
      </trkpt>
      <trkpt lat="51.30665" lon="3.3712">
        <ele>1</ele>
        <time>2021-04-09T09:32:25Z</time>
      </trkpt>
      <trkpt lat="51.30638" lon="3.37179">
        <ele>-1</ele>
        <time>2021-04-09T09:32:33Z</time>
      </trkpt>
      <trkpt lat="51.30606" lon="3.37233">
        <ele>0.37</ele>
        <time>2021-04-09T09:32:41Z</time>
      </trkpt>
      <trkpt lat="51.30489" lon="3.37415">
        <ele>2.76</ele>
        <time>2021-04-09T09:32:49Z</time>
      </trkpt>
      <trkpt lat="51.30425" lon="3.37503">
        <ele>1.31</ele>
        <time>2021-04-09T09:32:57Z</time>
      </trkpt>
      <trkpt lat="51.30272" lon="3.3776">
        <ele>-1.78</ele>
        <time>2021-04-09T09:33:05Z</time>
      </trkpt>
      <trkpt lat="51.30018" lon="3.38166">
        <ele>2.62</ele>
        <time>2021-04-09T09:33:13Z</time>
      </trkpt>
      <trkpt lat="51.29972" lon="3.38252">
        <ele>2</ele>
        <time>2021-04-09T09:33:21Z</time>
      </trkpt>
      <trkpt lat="51.29945" lon="3.38317">
        <ele>1.6</ele>
        <time>2021-04-09T09:33:29Z</time>
      </trkpt>
      <trkpt lat="51.29927" lon="3.38367">
        <ele>0.36</ele>
        <time>2021-04-09T09:33:38Z</time>
      </trkpt>
      <trkpt lat="51.29903" lon="3.38446">
        <ele>-0.49</ele>
        <time>2021-04-09T09:33:46Z</time>
      </trkpt>
      <trkpt lat="51.29888" lon="3.38518">
        <ele>-1</ele>
        <time>2021-04-09T09:33:54Z</time>
      </trkpt>
      <trkpt lat="51.29874" lon="3.38603">
        <ele>-0.7</ele>
        <time>2021-04-09T09:34:02Z</time>
      </trkpt>
      <trkpt lat="51.29867" lon="3.38673">
        <ele>4</ele>
        <time>2021-04-09T09:34:10Z</time>
      </trkpt>
      <trkpt lat="51.29862" lon="3.38755">
        <ele>4</ele>
        <time>2021-04-09T09:34:18Z</time>
      </trkpt>
      <trkpt lat="51.29864" lon="3.3887">
        <ele>-0.31</ele>
        <time>2021-04-09T09:34:26Z</time>
      </trkpt>
      <trkpt lat="51.2987" lon="3.38994">
        <ele>-0.76</ele>
        <time>2021-04-09T09:34:34Z</time>
      </trkpt>
      <trkpt lat="51.29875" lon="3.39057">
        <ele>1</ele>
        <time>2021-04-09T09:34:42Z</time>
      </trkpt>
      <trkpt lat="51.2989" lon="3.3919">
        <ele>-2</ele>
        <time>2021-04-09T09:34:50Z</time>
      </trkpt>
      <trkpt lat="51.299" lon="3.39259">
        <ele>-0.67</ele>
        <time>2021-04-09T09:34:58Z</time>
      </trkpt>
      <trkpt lat="51.29897" lon="3.39344">
        <ele>1</ele>
        <time>2021-04-09T09:35:06Z</time>
      </trkpt>
      <trkpt lat="51.29904" lon="3.394">
        <ele>1</ele>
        <time>2021-04-09T09:35:15Z</time>
      </trkpt>
      <trkpt lat="51.29914" lon="3.39441">
        <ele>1</ele>
        <time>2021-04-09T09:35:23Z</time>
      </trkpt>
      <trkpt lat="51.29942" lon="3.39503">
        <ele>1.09</ele>
        <time>2021-04-09T09:35:31Z</time>
      </trkpt>
      <trkpt lat="51.29968" lon="3.39611">
        <ele>1</ele>
        <time>2021-04-09T09:35:39Z</time>
      </trkpt>
      <trkpt lat="51.30035" lon="3.39854">
        <ele>-1</ele>
        <time>2021-04-09T09:35:47Z</time>
      </trkpt>
      <trkpt lat="51.30068" lon="3.40037">
        <ele>1.58</ele>
        <time>2021-04-09T09:35:55Z</time>
      </trkpt>
      <trkpt lat="51.30079" lon="3.40119">
        <ele>2.52</ele>
        <time>2021-04-09T09:36:03Z</time>
      </trkpt>
      <trkpt lat="51.30086" lon="3.40204">
        <ele>3.15</ele>
        <time>2021-04-09T09:36:11Z</time>
      </trkpt>
      <trkpt lat="51.30091" lon="3.40346">
        <ele>2.29</ele>
        <time>2021-04-09T09:36:19Z</time>
      </trkpt>
      <trkpt lat="51.30087" lon="3.40499">
        <ele>0.87</ele>
        <time>2021-04-09T09:36:27Z</time>
      </trkpt>
      <trkpt lat="51.2996" lon="3.41807">
        <ele>1.61</ele>
        <time>2021-04-09T09:36:35Z</time>
      </trkpt>
      <trkpt lat="51.29955" lon="3.41824">
        <ele>2.07</ele>
        <time>2021-04-09T09:36:43Z</time>
      </trkpt>
      <trkpt lat="51.29946" lon="3.41846">
        <ele>2.07</ele>
        <time>2021-04-09T09:36:51Z</time>
      </trkpt>
      <trkpt lat="51.29923" lon="3.41878">
        <ele>1.71</ele>
        <time>2021-04-09T09:37:00Z</time>
      </trkpt>
      <trkpt lat="51.29913" lon="3.41904">
        <ele>1.86</ele>
        <time>2021-04-09T09:37:08Z</time>
      </trkpt>
      <trkpt lat="51.29909" lon="3.41921">
        <ele>1.61</ele>
        <time>2021-04-09T09:37:16Z</time>
      </trkpt>
      <trkpt lat="51.29908" lon="3.41942">
        <ele>1.06</ele>
        <time>2021-04-09T09:37:24Z</time>
      </trkpt>
      <trkpt lat="51.29911" lon="3.41976">
        <ele>1.12</ele>
        <time>2021-04-09T09:37:32Z</time>
      </trkpt>
      <trkpt lat="51.29816" lon="3.42002">
        <ele>1</ele>
        <time>2021-04-09T09:37:35Z</time>
      </trkpt>
      <trkpt lat="51.29785" lon="3.42016">
        <ele>1</ele>
        <time>2021-04-09T09:37:38Z</time>
      </trkpt>
      <trkpt lat="51.29754" lon="3.42037">
        <ele>0.28</ele>
        <time>2021-04-09T09:37:42Z</time>
      </trkpt>
      <trkpt lat="51.29722" lon="3.42067">
        <ele>0.99</ele>
        <time>2021-04-09T09:37:45Z</time>
      </trkpt>
      <trkpt lat="51.29697" lon="3.42097">
        <ele>0.1</ele>
        <time>2021-04-09T09:37:48Z</time>
      </trkpt>
      <trkpt lat="51.29681" lon="3.4212">
        <ele>-0.48</ele>
        <time>2021-04-09T09:37:52Z</time>
      </trkpt>
      <trkpt lat="51.29668" lon="3.42143">
        <ele>-1.1</ele>
        <time>2021-04-09T09:37:55Z</time>
      </trkpt>
      <trkpt lat="51.2965" lon="3.42181">
        <ele>-1.41</ele>
        <time>2021-04-09T09:37:58Z</time>
      </trkpt>
      <trkpt lat="51.29544" lon="3.42447">
        <ele>0.42</ele>
        <time>2021-04-09T09:38:02Z</time>
      </trkpt>
      <trkpt lat="51.29516" lon="3.42505">
        <ele>1</ele>
        <time>2021-04-09T09:38:05Z</time>
      </trkpt>
      <trkpt lat="51.2951" lon="3.42513">
        <ele>1</ele>
        <time>2021-04-09T09:38:08Z</time>
      </trkpt>
      <trkpt lat="51.29505" lon="3.42515">
        <ele>1</ele>
        <time>2021-04-09T09:38:15Z</time>
      </trkpt>
      <trkpt lat="51.295" lon="3.42521">
        <ele>1</ele>
        <time>2021-04-09T09:38:22Z</time>
      </trkpt>
      <trkpt lat="51.29494" lon="3.4254">
        <ele>0.45</ele>
        <time>2021-04-09T09:38:29Z</time>
      </trkpt>
      <trkpt lat="51.29494" lon="3.42548">
        <ele>0.73</ele>
        <time>2021-04-09T09:38:37Z</time>
      </trkpt>
      <trkpt lat="51.29462" lon="3.42611">
        <ele>0.64</ele>
        <time>2021-04-09T09:38:44Z</time>
      </trkpt>
      <trkpt lat="51.29422" lon="3.42666">
        <ele>-1.98</ele>
        <time>2021-04-09T09:38:51Z</time>
      </trkpt>
      <trkpt lat="51.2875" lon="3.43405">
        <ele>2.44</ele>
        <time>2021-04-09T09:38:58Z</time>
      </trkpt>
      <trkpt lat="51.28724" lon="3.43433">
        <ele>1.02</ele>
        <time>2021-04-09T09:39:05Z</time>
      </trkpt>
      <trkpt lat="51.28685" lon="3.43468">
        <ele>-0.35</ele>
        <time>2021-04-09T09:39:12Z</time>
      </trkpt>
      <trkpt lat="51.28638" lon="3.43506">
        <ele>-0.97</ele>
        <time>2021-04-09T09:39:19Z</time>
      </trkpt>
      <trkpt lat="51.28593" lon="3.43539">
        <ele>0.26</ele>
        <time>2021-04-09T09:39:26Z</time>
      </trkpt>
      <trkpt lat="51.28546" lon="3.43567">
        <ele>-0.71</ele>
        <time>2021-04-09T09:39:33Z</time>
      </trkpt>
      <trkpt lat="51.28253" lon="3.43703">
        <ele>-0.93</ele>
        <time>2021-04-09T09:39:40Z</time>
      </trkpt>
      <trkpt lat="51.28101" lon="3.43767">
        <ele>0.26</ele>
        <time>2021-04-09T09:39:47Z</time>
      </trkpt>
      <trkpt lat="51.28042" lon="3.4381">
        <ele>0.17</ele>
        <time>2021-04-09T09:39:54Z</time>
      </trkpt>
      <trkpt lat="51.28027" lon="3.43825">
        <ele>0.69</ele>
        <time>2021-04-09T09:40:02Z</time>
      </trkpt>
      <trkpt lat="51.2802" lon="3.43821">
        <ele>0.55</ele>
        <time>2021-04-09T09:40:05Z</time>
      </trkpt>
      <trkpt lat="51.28016" lon="3.43821">
        <ele>0.55</ele>
        <time>2021-04-09T09:40:09Z</time>
      </trkpt>
      <trkpt lat="51.28008" lon="3.43827">
        <ele>0.75</ele>
        <time>2021-04-09T09:40:13Z</time>
      </trkpt>
      <trkpt lat="51.28005" lon="3.43832">
        <ele>0.95</ele>
        <time>2021-04-09T09:40:17Z</time>
      </trkpt>
      <trkpt lat="51.28003" lon="3.43841">
        <ele>1</ele>
        <time>2021-04-09T09:40:21Z</time>
      </trkpt>
      <trkpt lat="51.28005" lon="3.43853">
        <ele>1</ele>
        <time>2021-04-09T09:40:25Z</time>
      </trkpt>
      <trkpt lat="51.2801" lon="3.43863">
        <ele>1.04</ele>
        <time>2021-04-09T09:40:29Z</time>
      </trkpt>
      <trkpt lat="51.27986" lon="3.43987">
        <ele>0.46</ele>
        <time>2021-04-09T09:40:33Z</time>
      </trkpt>
      <trkpt lat="51.2798" lon="3.4403">
        <ele>1</ele>
        <time>2021-04-09T09:40:37Z</time>
      </trkpt>
      <trkpt lat="51.27974" lon="3.44105">
        <ele>-0.77</ele>
        <time>2021-04-09T09:40:41Z</time>
      </trkpt>
      <trkpt lat="51.27973" lon="3.44407">
        <ele>-1</ele>
        <time>2021-04-09T09:40:45Z</time>
      </trkpt>
      <trkpt lat="51.27964" lon="3.44612">
        <ele>-0.69</ele>
        <time>2021-04-09T09:40:49Z</time>
      </trkpt>
      <trkpt lat="51.27954" lon="3.44736">
        <ele>-0.34</ele>
        <time>2021-04-09T09:40:53Z</time>
      </trkpt>
      <trkpt lat="51.27941" lon="3.44865">
        <ele>-1.13</ele>
        <time>2021-04-09T09:40:57Z</time>
      </trkpt>
      <trkpt lat="51.27923" lon="3.45011">
        <ele>-1</ele>
        <time>2021-04-09T09:41:01Z</time>
      </trkpt>
      <trkpt lat="51.27899" lon="3.45168">
        <ele>-1</ele>
        <time>2021-04-09T09:41:05Z</time>
      </trkpt>
      <trkpt lat="51.27876" lon="3.45295">
        <ele>-1</ele>
        <time>2021-04-09T09:41:09Z</time>
      </trkpt>
      <trkpt lat="51.27857" lon="3.4539">
        <ele>-0.86</ele>
        <time>2021-04-09T09:41:13Z</time>
      </trkpt>
      <trkpt lat="51.27687" lon="3.46147">
        <ele>0.97</ele>
        <time>2021-04-09T09:41:17Z</time>
      </trkpt>
      <trkpt lat="51.27664" lon="3.46215">
        <ele>-0.74</ele>
        <time>2021-04-09T09:41:21Z</time>
      </trkpt>
      <trkpt lat="51.27649" lon="3.46253">
        <ele>-1</ele>
        <time>2021-04-09T09:41:25Z</time>
      </trkpt>
      <trkpt lat="51.27633" lon="3.46288">
        <ele>-1.22</ele>
        <time>2021-04-09T09:41:29Z</time>
      </trkpt>
      <trkpt lat="51.27615" lon="3.46321">
        <ele>-1.37</ele>
        <time>2021-04-09T09:41:33Z</time>
      </trkpt>
      <trkpt lat="51.27594" lon="3.46354">
        <ele>-1</ele>
        <time>2021-04-09T09:41:37Z</time>
      </trkpt>
      <trkpt lat="51.27552" lon="3.4641">
        <ele>3.7</ele>
        <time>2021-04-09T09:41:41Z</time>
      </trkpt>
      <trkpt lat="51.27507" lon="3.46454">
        <ele>0.5</ele>
        <time>2021-04-09T09:41:45Z</time>
      </trkpt>
      <trkpt lat="51.27483" lon="3.46472">
        <ele>-0.62</ele>
        <time>2021-04-09T09:41:49Z</time>
      </trkpt>
      <trkpt lat="51.27459" lon="3.46488">
        <ele>-1.57</ele>
        <time>2021-04-09T09:41:53Z</time>
      </trkpt>
      <trkpt lat="51.27415" lon="3.4651">
        <ele>3.6</ele>
        <time>2021-04-09T09:41:57Z</time>
      </trkpt>
      <trkpt lat="51.2737" lon="3.46523">
        <ele>-1.34</ele>
        <time>2021-04-09T09:42:01Z</time>
      </trkpt>
      <trkpt lat="51.27347" lon="3.46527">
        <ele>-1.47</ele>
        <time>2021-04-09T09:42:05Z</time>
      </trkpt>
      <trkpt lat="51.27298" lon="3.46528">
        <ele>-0.73</ele>
        <time>2021-04-09T09:42:09Z</time>
      </trkpt>
      <trkpt lat="51.27268" lon="3.46524">
        <ele>3.9</ele>
        <time>2021-04-09T09:42:13Z</time>
      </trkpt>
      <trkpt lat="51.27224" lon="3.46512">
        <ele>4</ele>
        <time>2021-04-09T09:42:17Z</time>
      </trkpt>
      <trkpt lat="51.27181" lon="3.46494">
        <ele>-0.22</ele>
        <time>2021-04-09T09:42:21Z</time>
      </trkpt>
      <trkpt lat="51.2713" lon="3.46467">
        <ele>1</ele>
        <time>2021-04-09T09:42:25Z</time>
      </trkpt>
      <trkpt lat="51.27128" lon="3.46457">
        <ele>1</ele>
        <time>2021-04-09T09:42:25Z</time>
      </trkpt>
      <trkpt lat="51.27123" lon="3.4645">
        <ele>1</ele>
        <time>2021-04-09T09:42:26Z</time>
      </trkpt>
      <trkpt lat="51.27113" lon="3.46447">
        <ele>1</ele>
        <time>2021-04-09T09:42:26Z</time>
      </trkpt>
      <trkpt lat="51.27107" lon="3.46453">
        <ele>0.17</ele>
        <time>2021-04-09T09:42:27Z</time>
      </trkpt>
      <trkpt lat="51.27104" lon="3.46459">
        <ele>0.27</ele>
        <time>2021-04-09T09:42:27Z</time>
      </trkpt>
      <trkpt lat="51.27102" lon="3.46468">
        <ele>0.32</ele>
        <time>2021-04-09T09:42:28Z</time>
      </trkpt>
      <trkpt lat="51.27104" lon="3.46479">
        <ele>0.45</ele>
        <time>2021-04-09T09:42:28Z</time>
      </trkpt>
      <trkpt lat="51.2711" lon="3.46489">
        <ele>0.61</ele>
        <time>2021-04-09T09:42:29Z</time>
      </trkpt>
      <trkpt lat="51.2711" lon="3.46507">
        <ele>1.01</ele>
        <time>2021-04-09T09:42:37Z</time>
      </trkpt>
      <trkpt lat="51.27108" lon="3.46536">
        <ele>1.4</ele>
        <time>2021-04-09T09:42:45Z</time>
      </trkpt>
      <trkpt lat="51.27108" lon="3.46565">
        <ele>2.11</ele>
        <time>2021-04-09T09:42:54Z</time>
      </trkpt>
      <trkpt lat="51.27104" lon="3.46635">
        <ele>2</ele>
        <time>2021-04-09T09:43:02Z</time>
      </trkpt>
      <trkpt lat="51.27169" lon="3.4775">
        <ele>1.9</ele>
        <time>2021-04-09T09:43:10Z</time>
      </trkpt>
      <trkpt lat="51.27184" lon="3.48002">
        <ele>1.36</ele>
        <time>2021-04-09T09:43:19Z</time>
      </trkpt>
      <trkpt lat="51.27258" lon="3.49254">
        <ele>0.56</ele>
        <time>2021-04-09T09:43:27Z</time>
      </trkpt>
      <trkpt lat="51.27266" lon="3.49392">
        <ele>1.85</ele>
        <time>2021-04-09T09:43:35Z</time>
      </trkpt>
      <trkpt lat="51.27273" lon="3.49453">
        <ele>2</ele>
        <time>2021-04-09T09:43:43Z</time>
      </trkpt>
      <trkpt lat="51.27276" lon="3.49478">
        <ele>2.22</ele>
        <time>2021-04-09T09:43:52Z</time>
      </trkpt>
      <trkpt lat="51.27296" lon="3.4958">
        <ele>2.34</ele>
        <time>2021-04-09T09:44:00Z</time>
      </trkpt>
      <trkpt lat="51.27333" lon="3.49865">
        <ele>2.87</ele>
        <time>2021-04-09T09:44:08Z</time>
      </trkpt>
      <trkpt lat="51.27341" lon="3.49917">
        <ele>1.15</ele>
        <time>2021-04-09T09:44:17Z</time>
      </trkpt>
      <trkpt lat="51.27355" lon="3.49976">
        <ele>-0.45</ele>
        <time>2021-04-09T09:44:25Z</time>
      </trkpt>
      <trkpt lat="51.27377" lon="3.50041">
        <ele>-0.57</ele>
        <time>2021-04-09T09:44:33Z</time>
      </trkpt>
      <trkpt lat="51.27387" lon="3.50064">
        <ele>-0.93</ele>
        <time>2021-04-09T09:44:42Z</time>
      </trkpt>
      <trkpt lat="51.2741" lon="3.50106">
        <ele>-1</ele>
        <time>2021-04-09T09:44:50Z</time>
      </trkpt>
      <trkpt lat="51.2742" lon="3.5015">
        <ele>-1.38</ele>
        <time>2021-04-09T09:44:58Z</time>
      </trkpt>
      <trkpt lat="51.27416" lon="3.50163">
        <ele>-1.83</ele>
        <time>2021-04-09T09:45:05Z</time>
      </trkpt>
      <trkpt lat="51.27416" lon="3.50169">
        <ele>-1.96</ele>
        <time>2021-04-09T09:45:12Z</time>
      </trkpt>
      <trkpt lat="51.2742" lon="3.50179">
        <ele>-2</ele>
        <time>2021-04-09T09:45:20Z</time>
      </trkpt>
      <trkpt lat="51.27426" lon="3.50185">
        <ele>-2</ele>
        <time>2021-04-09T09:45:27Z</time>
      </trkpt>
      <trkpt lat="51.27434" lon="3.50185">
        <ele>-2</ele>
        <time>2021-04-09T09:45:34Z</time>
      </trkpt>
      <trkpt lat="51.2744" lon="3.50178">
        <ele>-2</ele>
        <time>2021-04-09T09:45:41Z</time>
      </trkpt>
      <trkpt lat="51.27462" lon="3.5018">
        <ele>-1.38</ele>
        <time>2021-04-09T09:45:48Z</time>
      </trkpt>
      <trkpt lat="51.27531" lon="3.50221">
        <ele>-1.84</ele>
        <time>2021-04-09T09:45:55Z</time>
      </trkpt>
      <trkpt lat="51.28199" lon="3.50498">
        <ele>4</ele>
        <time>2021-04-09T09:46:02Z</time>
      </trkpt>
      <trkpt lat="51.2826" lon="3.50528">
        <ele>-0.35</ele>
        <time>2021-04-09T09:46:09Z</time>
      </trkpt>
      <trkpt lat="51.28289" lon="3.50548">
        <ele>-0.28</ele>
        <time>2021-04-09T09:46:16Z</time>
      </trkpt>
      <trkpt lat="51.28348" lon="3.50604">
        <ele>-0.87</ele>
        <time>2021-04-09T09:46:23Z</time>
      </trkpt>
      <trkpt lat="51.28375" lon="3.50633">
        <ele>-1</ele>
        <time>2021-04-09T09:46:31Z</time>
      </trkpt>
      <trkpt lat="51.28409" lon="3.50682">
        <ele>-1</ele>
        <time>2021-04-09T09:46:38Z</time>
      </trkpt>
      <trkpt lat="51.28436" lon="3.50727">
        <ele>-1</ele>
        <time>2021-04-09T09:46:45Z</time>
      </trkpt>
      <trkpt lat="51.28464" lon="3.50784">
        <ele>-1</ele>
        <time>2021-04-09T09:46:52Z</time>
      </trkpt>
      <trkpt lat="51.29086" lon="3.52111">
        <ele>-0.08</ele>
        <time>2021-04-09T09:46:59Z</time>
      </trkpt>
      <trkpt lat="51.29117" lon="3.52173">
        <ele>1</ele>
        <time>2021-04-09T09:47:06Z</time>
      </trkpt>
      <trkpt lat="51.29167" lon="3.52252">
        <ele>1</ele>
        <time>2021-04-09T09:47:13Z</time>
      </trkpt>
      <trkpt lat="51.29201" lon="3.52292">
        <ele>-0.22</ele>
        <time>2021-04-09T09:47:20Z</time>
      </trkpt>
      <trkpt lat="51.29235" lon="3.52326">
        <ele>-0.59</ele>
        <time>2021-04-09T09:47:27Z</time>
      </trkpt>
      <trkpt lat="51.29289" lon="3.52367">
        <ele>-1</ele>
        <time>2021-04-09T09:47:34Z</time>
      </trkpt>
      <trkpt lat="51.29399" lon="3.52435">
        <ele>-1.12</ele>
        <time>2021-04-09T09:47:42Z</time>
      </trkpt>
      <trkpt lat="51.29434" lon="3.52454">
        <ele>-0.37</ele>
        <time>2021-04-09T09:47:49Z</time>
      </trkpt>
      <trkpt lat="51.29433" lon="3.52459">
        <ele>-0.4</ele>
        <time>2021-04-09T09:47:55Z</time>
      </trkpt>
      <trkpt lat="51.29435" lon="3.52471">
        <ele>-0.34</ele>
        <time>2021-04-09T09:48:02Z</time>
      </trkpt>
      <trkpt lat="51.2944" lon="3.52479">
        <ele>0.05</ele>
        <time>2021-04-09T09:48:08Z</time>
      </trkpt>
      <trkpt lat="51.29448" lon="3.52482">
        <ele>0.34</ele>
        <time>2021-04-09T09:48:14Z</time>
      </trkpt>
      <trkpt lat="51.29452" lon="3.52481">
        <ele>0.3</ele>
        <time>2021-04-09T09:48:21Z</time>
      </trkpt>
      <trkpt lat="51.29455" lon="3.52477">
        <ele>0.19</ele>
        <time>2021-04-09T09:48:27Z</time>
      </trkpt>
      <trkpt lat="51.2946" lon="3.52467">
        <ele>4.3</ele>
        <time>2021-04-09T09:48:34Z</time>
      </trkpt>
      <trkpt lat="51.29522" lon="3.52508">
        <ele>0.21</ele>
        <time>2021-04-09T09:48:40Z</time>
      </trkpt>
      <trkpt lat="51.30219" lon="3.52864">
        <ele>-0.93</ele>
        <time>2021-04-09T09:48:47Z</time>
      </trkpt>
      <trkpt lat="51.30356" lon="3.52931">
        <ele>-1.91</ele>
        <time>2021-04-09T09:48:53Z</time>
      </trkpt>
      <trkpt lat="51.30436" lon="3.52996">
        <ele>-2.89</ele>
        <time>2021-04-09T09:48:59Z</time>
      </trkpt>
      <trkpt lat="51.30477" lon="3.5304">
        <ele>-0.72</ele>
        <time>2021-04-09T09:49:06Z</time>
      </trkpt>
      <trkpt lat="51.30514" lon="3.53089">
        <ele>-0.2</ele>
        <time>2021-04-09T09:49:12Z</time>
      </trkpt>
      <trkpt lat="51.30577" lon="3.53181">
        <ele>0.15</ele>
        <time>2021-04-09T09:49:19Z</time>
      </trkpt>
      <trkpt lat="51.30734" lon="3.53403">
        <ele>-0.44</ele>
        <time>2021-04-09T09:49:25Z</time>
      </trkpt>
      <trkpt lat="51.30711" lon="3.53443">
        <ele>-0.95</ele>
        <time>2021-04-09T09:49:37Z</time>
      </trkpt>
      <trkpt lat="51.30612" lon="3.53598">
        <ele>0.03</ele>
        <time>2021-04-09T09:49:49Z</time>
      </trkpt>
      <trkpt lat="51.30551" lon="3.53685">
        <ele>-0.16</ele>
        <time>2021-04-09T09:50:01Z</time>
      </trkpt>
      <trkpt lat="51.3046" lon="3.53843">
        <ele>0.29</ele>
        <time>2021-04-09T09:50:13Z</time>
      </trkpt>
      <trkpt lat="51.30364" lon="3.54001">
        <ele>-0.89</ele>
        <time>2021-04-09T09:50:25Z</time>
      </trkpt>
      <trkpt lat="51.30261" lon="3.54178">
        <ele>-1.6</ele>
        <time>2021-04-09T09:50:36Z</time>
      </trkpt>
      <trkpt lat="51.30367" lon="3.54313">
        <ele>-1.21</ele>
        <time>2021-04-09T09:50:48Z</time>
      </trkpt>
      <trkpt lat="51.30542" lon="3.54523">
        <ele>-3</ele>
        <time>2021-04-09T09:51:00Z</time>
      </trkpt>
      <trkpt lat="51.30649" lon="3.54658">
        <ele>-0.11</ele>
        <time>2021-04-09T09:51:12Z</time>
      </trkpt>
      <trkpt lat="51.30682" lon="3.54909">
        <ele>0.45</ele>
        <time>2021-04-09T09:51:24Z</time>
      </trkpt>
      <trkpt lat="51.30704" lon="3.55145">
        <ele>-0.28</ele>
        <time>2021-04-09T09:51:36Z</time>
      </trkpt>
      <trkpt lat="51.30738" lon="3.55464">
        <ele>1.86</ele>
        <time>2021-04-09T09:51:48Z</time>
      </trkpt>
      <trkpt lat="51.30852" lon="3.5593">
        <ele>0.18</ele>
        <time>2021-04-09T09:52:00Z</time>
      </trkpt>
      <trkpt lat="51.30861" lon="3.55959">
        <ele>0.52</ele>
        <time>2021-04-09T09:52:12Z</time>
      </trkpt>
      <trkpt lat="51.30998" lon="3.5611">
        <ele>0.89</ele>
        <time>2021-04-09T09:52:24Z</time>
      </trkpt>
      <trkpt lat="51.31036" lon="3.56168">
        <ele>-1.3</ele>
        <time>2021-04-09T09:52:35Z</time>
      </trkpt>
      <trkpt lat="51.31121" lon="3.56315">
        <ele>-1.36</ele>
        <time>2021-04-09T09:52:47Z</time>
      </trkpt>
      <trkpt lat="51.31142" lon="3.56358">
        <ele>-2</ele>
        <time>2021-04-09T09:52:59Z</time>
      </trkpt>
      <trkpt lat="51.31188" lon="3.56579">
        <ele>-1.22</ele>
        <time>2021-04-09T09:53:11Z</time>
      </trkpt>
      <trkpt lat="51.31401" lon="3.56943">
        <ele>0.55</ele>
        <time>2021-04-09T09:53:23Z</time>
      </trkpt>
      <trkpt lat="51.31407" lon="3.56966">
        <ele>0.35</ele>
        <time>2021-04-09T09:53:35Z</time>
      </trkpt>
      <trkpt lat="51.31395" lon="3.57406">
        <ele>-0.71</ele>
        <time>2021-04-09T09:53:47Z</time>
      </trkpt>
      <trkpt lat="51.31406" lon="3.57437">
        <ele>-1.27</ele>
        <time>2021-04-09T09:53:59Z</time>
      </trkpt>
      <trkpt lat="51.31609" lon="3.57821">
        <ele>4.6</ele>
        <time>2021-04-09T09:54:11Z</time>
      </trkpt>
      <trkpt lat="51.31669" lon="3.58104">
        <ele>-0.16</ele>
        <time>2021-04-09T09:54:22Z</time>
      </trkpt>
      <trkpt lat="51.31676" lon="3.58143">
        <ele>0.46</ele>
        <time>2021-04-09T09:54:34Z</time>
      </trkpt>
      <trkpt lat="51.31686" lon="3.58245">
        <ele>2.68</ele>
        <time>2021-04-09T09:54:39Z</time>
      </trkpt>
      <trkpt lat="51.31689" lon="3.58261">
        <ele>2.46</ele>
        <time>2021-04-09T09:54:44Z</time>
      </trkpt>
      <trkpt lat="51.31692" lon="3.58268">
        <ele>2.31</ele>
        <time>2021-04-09T09:54:48Z</time>
      </trkpt>
      <trkpt lat="51.31697" lon="3.58272">
        <ele>2.18</ele>
        <time>2021-04-09T09:54:52Z</time>
      </trkpt>
      <trkpt lat="51.3173" lon="3.58275">
        <ele>2</ele>
        <time>2021-04-09T09:54:55Z</time>
      </trkpt>
      <trkpt lat="51.31814" lon="3.58261">
        <ele>2.41</ele>
        <time>2021-04-09T09:54:59Z</time>
      </trkpt>
      <trkpt lat="51.31834" lon="3.58395">
        <ele>1</ele>
        <time>2021-04-09T09:55:05Z</time>
      </trkpt>
      <trkpt lat="51.31915" lon="3.58939">
        <ele>0.11</ele>
        <time>2021-04-09T09:55:11Z</time>
      </trkpt>
      <trkpt lat="51.31971" lon="3.59346">
        <ele>-1</ele>
        <time>2021-04-09T09:55:18Z</time>
      </trkpt>
      <trkpt lat="51.3201" lon="3.5963">
        <ele>1</ele>
        <time>2021-04-09T09:55:24Z</time>
      </trkpt>
      <trkpt lat="51.32016" lon="3.59685">
        <ele>1</ele>
        <time>2021-04-09T09:55:30Z</time>
      </trkpt>
      <trkpt lat="51.32013" lon="3.59708">
        <ele>0.53</ele>
        <time>2021-04-09T09:55:36Z</time>
      </trkpt>
      <trkpt lat="51.32008" lon="3.59721">
        <ele>0.05</ele>
        <time>2021-04-09T09:55:42Z</time>
      </trkpt>
      <trkpt lat="51.31994" lon="3.5974">
        <ele>0.22</ele>
        <time>2021-04-09T09:55:48Z</time>
      </trkpt>
      <trkpt lat="51.3193" lon="3.59785">
        <ele>-0.16</ele>
        <time>2021-04-09T09:55:54Z</time>
      </trkpt>
      <trkpt lat="51.31875" lon="3.59827">
        <ele>-2</ele>
        <time>2021-04-09T09:56:01Z</time>
      </trkpt>
      <trkpt lat="51.31787" lon="3.59902">
        <ele>-1</ele>
        <time>2021-04-09T09:56:07Z</time>
      </trkpt>
      <trkpt lat="51.31737" lon="3.59956">
        <ele>-2</ele>
        <time>2021-04-09T09:56:13Z</time>
      </trkpt>
      <trkpt lat="51.31703" lon="3.60004">
        <ele>-1</ele>
        <time>2021-04-09T09:56:19Z</time>
      </trkpt>
      <trkpt lat="51.31656" lon="3.60088">
        <ele>-0.38</ele>
        <time>2021-04-09T09:56:25Z</time>
      </trkpt>
      <trkpt lat="51.31625" lon="3.60163">
        <ele>-0.13</ele>
        <time>2021-04-09T09:56:31Z</time>
      </trkpt>
      <trkpt lat="51.31602" lon="3.60238">
        <ele>-0.34</ele>
        <time>2021-04-09T09:56:38Z</time>
      </trkpt>
      <trkpt lat="51.31583" lon="3.60315">
        <ele>-1.66</ele>
        <time>2021-04-09T09:56:44Z</time>
      </trkpt>
      <trkpt lat="51.3157" lon="3.60402">
        <ele>-0.48</ele>
        <time>2021-04-09T09:56:50Z</time>
      </trkpt>
      <trkpt lat="51.31564" lon="3.60498">
        <ele>4</ele>
        <time>2021-04-09T09:56:56Z</time>
      </trkpt>
      <trkpt lat="51.31567" lon="3.6062">
        <ele>-1.59</ele>
        <time>2021-04-09T09:57:02Z</time>
      </trkpt>
      <trkpt lat="51.31582" lon="3.60939">
        <ele>-3.7</ele>
        <time>2021-04-09T09:57:08Z</time>
      </trkpt>
      <trkpt lat="51.31581" lon="3.60962">
        <ele>-3.24</ele>
        <time>2021-04-09T09:57:15Z</time>
      </trkpt>
      <trkpt lat="51.31574" lon="3.60989">
        <ele>-2.27</ele>
        <time>2021-04-09T09:57:21Z</time>
      </trkpt>
      <trkpt lat="51.31562" lon="3.61016">
        <ele>-2</ele>
        <time>2021-04-09T09:57:27Z</time>
      </trkpt>
      <trkpt lat="51.31553" lon="3.61038">
        <ele>-1.62</ele>
        <time>2021-04-09T09:57:33Z</time>
      </trkpt>
      <trkpt lat="51.31548" lon="3.61065">
        <ele>-1</ele>
        <time>2021-04-09T09:57:39Z</time>
      </trkpt>
      <trkpt lat="51.31546" lon="3.61098">
        <ele>-0.65</ele>
        <time>2021-04-09T09:57:45Z</time>
      </trkpt>
      <trkpt lat="51.31592" lon="3.61103">
        <ele>-0.2</ele>
        <time>2021-04-09T09:57:51Z</time>
      </trkpt>
      <trkpt lat="51.31597" lon="3.61117">
        <ele>-0.1</ele>
        <time>2021-04-09T09:57:58Z</time>
      </trkpt>
      <trkpt lat="51.31605" lon="3.61125">
        <ele>-0.41</ele>
        <time>2021-04-09T09:58:05Z</time>
      </trkpt>
      <trkpt lat="51.3163" lon="3.61983">
        <ele>-0.21</ele>
        <time>2021-04-09T09:58:13Z</time>
      </trkpt>
      <trkpt lat="51.31641" lon="3.62168">
        <ele>4</ele>
        <time>2021-04-09T09:58:20Z</time>
      </trkpt>
      <trkpt lat="51.31656" lon="3.62258">
        <ele>-0.19</ele>
        <time>2021-04-09T09:58:27Z</time>
      </trkpt>
      <trkpt lat="51.31681" lon="3.62367">
        <ele>-0.29</ele>
        <time>2021-04-09T09:58:35Z</time>
      </trkpt>
      <trkpt lat="51.31715" lon="3.62482">
        <ele>1</ele>
        <time>2021-04-09T09:58:42Z</time>
      </trkpt>
      <trkpt lat="51.31754" lon="3.62574">
        <ele>-0.12</ele>
        <time>2021-04-09T09:58:50Z</time>
      </trkpt>
      <trkpt lat="51.31794" lon="3.62652">
        <ele>-1</ele>
        <time>2021-04-09T09:58:57Z</time>
      </trkpt>
      <trkpt lat="51.31827" lon="3.62707">
        <ele>-0.24</ele>
        <time>2021-04-09T09:59:04Z</time>
      </trkpt>
      <trkpt lat="51.31867" lon="3.62764">
        <ele>-0.6</ele>
        <time>2021-04-09T09:59:12Z</time>
      </trkpt>
      <trkpt lat="51.32006" lon="3.62929">
        <ele>-0.47</ele>
        <time>2021-04-09T09:59:19Z</time>
      </trkpt>
      <trkpt lat="51.32046" lon="3.62985">
        <ele>-0.78</ele>
        <time>2021-04-09T09:59:26Z</time>
      </trkpt>
      <trkpt lat="51.32087" lon="3.63054">
        <ele>-0.89</ele>
        <time>2021-04-09T09:59:34Z</time>
      </trkpt>
      <trkpt lat="51.32129" lon="3.63138">
        <ele>4</ele>
        <time>2021-04-09T09:59:41Z</time>
      </trkpt>
      <trkpt lat="51.32166" lon="3.6323">
        <ele>-1</ele>
        <time>2021-04-09T09:59:49Z</time>
      </trkpt>
      <trkpt lat="51.32199" lon="3.63331">
        <ele>-0.08</ele>
        <time>2021-04-09T09:59:56Z</time>
      </trkpt>
      <trkpt lat="51.32225" lon="3.63436">
        <ele>-0.7</ele>
        <time>2021-04-09T10:00:03Z</time>
      </trkpt>
      <trkpt lat="51.32244" lon="3.63558">
        <ele>-0.8</ele>
        <time>2021-04-09T10:00:11Z</time>
      </trkpt>
      <trkpt lat="51.32272" lon="3.63819">
        <ele>-0.63</ele>
        <time>2021-04-09T10:00:18Z</time>
      </trkpt>
      <trkpt lat="51.32465" lon="3.65914">
        <ele>-0.25</ele>
        <time>2021-04-09T10:00:25Z</time>
      </trkpt>
      <trkpt lat="51.3251" lon="3.6641">
        <ele>0.5</ele>
        <time>2021-04-09T10:00:33Z</time>
      </trkpt>
      <trkpt lat="51.32565" lon="3.67292">
        <ele>-2.33</ele>
        <time>2021-04-09T10:00:40Z</time>
      </trkpt>
      <trkpt lat="51.3257" lon="3.67409">
        <ele>-3</ele>
        <time>2021-04-09T10:00:48Z</time>
      </trkpt>
      <trkpt lat="51.32569" lon="3.67499">
        <ele>-0.57</ele>
        <time>2021-04-09T10:00:55Z</time>
      </trkpt>
      <trkpt lat="51.32564" lon="3.67589">
        <ele>-1.7</ele>
        <time>2021-04-09T10:01:02Z</time>
      </trkpt>
      <trkpt lat="51.32557" lon="3.67668">
        <ele>-1</ele>
        <time>2021-04-09T10:01:10Z</time>
      </trkpt>
      <trkpt lat="51.32546" lon="3.67743">
        <ele>-1</ele>
        <time>2021-04-09T10:01:17Z</time>
      </trkpt>
      <trkpt lat="51.32514" lon="3.67905">
        <ele>-0.5</ele>
        <time>2021-04-09T10:01:24Z</time>
      </trkpt>
      <trkpt lat="51.32489" lon="3.67999">
        <ele>-1</ele>
        <time>2021-04-09T10:01:32Z</time>
      </trkpt>
      <trkpt lat="51.32467" lon="3.68064">
        <ele>4</ele>
        <time>2021-04-09T10:01:39Z</time>
      </trkpt>
      <trkpt lat="51.32447" lon="3.68109">
        <ele>4</ele>
        <time>2021-04-09T10:01:47Z</time>
      </trkpt>
      <trkpt lat="51.32425" lon="3.68155">
        <ele>4</ele>
        <time>2021-04-09T10:01:54Z</time>
      </trkpt>
      <trkpt lat="51.3242" lon="3.68155">
        <ele>4</ele>
        <time>2021-04-09T10:01:59Z</time>
      </trkpt>
      <trkpt lat="51.32411" lon="3.68162">
        <ele>-0.2</ele>
        <time>2021-04-09T10:02:04Z</time>
      </trkpt>
      <trkpt lat="51.32407" lon="3.68171">
        <ele>-0.36</ele>
        <time>2021-04-09T10:02:08Z</time>
      </trkpt>
      <trkpt lat="51.32405" lon="3.68184">
        <ele>-0.43</ele>
        <time>2021-04-09T10:02:13Z</time>
      </trkpt>
      <trkpt lat="51.32406" lon="3.68197">
        <ele>-0.4</ele>
        <time>2021-04-09T10:02:18Z</time>
      </trkpt>
      <trkpt lat="51.32394" lon="3.6823">
        <ele>-0.12</ele>
        <time>2021-04-09T10:02:23Z</time>
      </trkpt>
      <trkpt lat="51.32372" lon="3.68274">
        <ele>0.25</ele>
        <time>2021-04-09T10:02:28Z</time>
      </trkpt>
      <trkpt lat="51.32329" lon="3.68345">
        <ele>0.14</ele>
        <time>2021-04-09T10:02:32Z</time>
      </trkpt>
      <trkpt lat="51.32155" lon="3.68614">
        <ele>-0.43</ele>
        <time>2021-04-09T10:02:37Z</time>
      </trkpt>
      <trkpt lat="51.32104" lon="3.68717">
        <ele>-0.14</ele>
        <time>2021-04-09T10:02:42Z</time>
      </trkpt>
      <trkpt lat="51.32073" lon="3.68797">
        <ele>0.61</ele>
        <time>2021-04-09T10:02:47Z</time>
      </trkpt>
      <trkpt lat="51.32048" lon="3.68864">
        <ele>0.89</ele>
        <time>2021-04-09T10:02:52Z</time>
      </trkpt>
      <trkpt lat="51.32021" lon="3.68949">
        <ele>-1.76</ele>
        <time>2021-04-09T10:02:56Z</time>
      </trkpt>
      <trkpt lat="51.31981" lon="3.69128">
        <ele>0.56</ele>
        <time>2021-04-09T10:03:01Z</time>
      </trkpt>
      <trkpt lat="51.31966" lon="3.6922">
        <ele>0.71</ele>
        <time>2021-04-09T10:03:06Z</time>
      </trkpt>
      <trkpt lat="51.31922" lon="3.69562">
        <ele>-1.79</ele>
        <time>2021-04-09T10:03:11Z</time>
      </trkpt>
      <trkpt lat="51.31856" lon="3.70058">
        <ele>0.18</ele>
        <time>2021-04-09T10:03:16Z</time>
      </trkpt>
      <trkpt lat="51.31827" lon="3.70238">
        <ele>-0.76</ele>
        <time>2021-04-09T10:03:20Z</time>
      </trkpt>
      <trkpt lat="51.31795" lon="3.70402">
        <ele>-1</ele>
        <time>2021-04-09T10:03:25Z</time>
      </trkpt>
      <trkpt lat="51.31759" lon="3.70555">
        <ele>-2</ele>
        <time>2021-04-09T10:03:30Z</time>
      </trkpt>
      <trkpt lat="51.31659" lon="3.70955">
        <ele>3.9</ele>
        <time>2021-04-09T10:03:35Z</time>
      </trkpt>
      <trkpt lat="51.31604" lon="3.7118">
        <ele>0.8</ele>
        <time>2021-04-09T10:03:40Z</time>
      </trkpt>
      <trkpt lat="51.31585" lon="3.71269">
        <ele>-0.72</ele>
        <time>2021-04-09T10:03:45Z</time>
      </trkpt>
      <trkpt lat="51.31568" lon="3.71361">
        <ele>1</ele>
        <time>2021-04-09T10:03:49Z</time>
      </trkpt>
      <trkpt lat="51.3155" lon="3.71471">
        <ele>0.79</ele>
        <time>2021-04-09T10:03:54Z</time>
      </trkpt>
      <trkpt lat="51.31536" lon="3.71575">
        <ele>1</ele>
        <time>2021-04-09T10:03:59Z</time>
      </trkpt>
      <trkpt lat="51.3153" lon="3.71577">
        <ele>1</ele>
        <time>2021-04-09T10:04:08Z</time>
      </trkpt>
      <trkpt lat="51.31525" lon="3.71582">
        <ele>1</ele>
        <time>2021-04-09T10:04:18Z</time>
      </trkpt>
      <trkpt lat="51.3152" lon="3.71594">
        <ele>-0.38</ele>
        <time>2021-04-09T10:04:27Z</time>
      </trkpt>
      <trkpt lat="51.31518" lon="3.71602">
        <ele>-0.67</ele>
        <time>2021-04-09T10:04:37Z</time>
      </trkpt>
      <trkpt lat="51.3152" lon="3.71619">
        <ele>-1</ele>
        <time>2021-04-09T10:04:46Z</time>
      </trkpt>
      <trkpt lat="51.31523" lon="3.71626">
        <ele>-1</ele>
        <time>2021-04-09T10:04:56Z</time>
      </trkpt>
      <trkpt lat="51.31528" lon="3.7163">
        <ele>-1</ele>
        <time>2021-04-09T10:05:06Z</time>
      </trkpt>
      <trkpt lat="51.3139" lon="3.72781">
        <ele>2</ele>
        <time>2021-04-09T10:05:15Z</time>
      </trkpt>
      <trkpt lat="51.31355" lon="3.73018">
        <ele>-0.43</ele>
        <time>2021-04-09T10:05:25Z</time>
      </trkpt>
      <trkpt lat="51.31339" lon="3.73153">
        <ele>-1.22</ele>
        <time>2021-04-09T10:05:34Z</time>
      </trkpt>
      <trkpt lat="51.31284" lon="3.7357">
        <ele>-1.58</ele>
        <time>2021-04-09T10:05:44Z</time>
      </trkpt>
      <trkpt lat="51.3122" lon="3.73968">
        <ele>3.9</ele>
        <time>2021-04-09T10:05:53Z</time>
      </trkpt>
      <trkpt lat="51.31115" lon="3.74725">
        <ele>0.08</ele>
        <time>2021-04-09T10:06:03Z</time>
      </trkpt>
      <trkpt lat="51.31018" lon="3.7541">
        <ele>0.52</ele>
        <time>2021-04-09T10:06:12Z</time>
      </trkpt>
      <trkpt lat="51.31001" lon="3.75495">
        <ele>-0.77</ele>
        <time>2021-04-09T10:06:22Z</time>
      </trkpt>
      <trkpt lat="51.30778" lon="3.7658">
        <ele>-1</ele>
        <time>2021-04-09T10:06:31Z</time>
      </trkpt>
      <trkpt lat="51.30752" lon="3.76689">
        <ele>-2.05</ele>
        <time>2021-04-09T10:06:41Z</time>
      </trkpt>
      <trkpt lat="51.30716" lon="3.76826">
        <ele>-1</ele>
        <time>2021-04-09T10:06:50Z</time>
      </trkpt>
      <trkpt lat="51.30685" lon="3.76935">
        <ele>-0.88</ele>
        <time>2021-04-09T10:07:00Z</time>
      </trkpt>
      <trkpt lat="51.30647" lon="3.77053">
        <ele>2.89</ele>
        <time>2021-04-09T10:07:09Z</time>
      </trkpt>
      <trkpt lat="51.3061" lon="3.77159">
        <ele>0.26</ele>
        <time>2021-04-09T10:07:19Z</time>
      </trkpt>
      <trkpt lat="51.30368" lon="3.77774">
        <ele>2.11</ele>
        <time>2021-04-09T10:07:28Z</time>
      </trkpt>
      <trkpt lat="51.30309" lon="3.77915">
        <ele>2.23</ele>
        <time>2021-04-09T10:07:38Z</time>
      </trkpt>
      <trkpt lat="51.30302" lon="3.77914">
        <ele>2</ele>
        <time>2021-04-09T10:07:44Z</time>
      </trkpt>
      <trkpt lat="51.30297" lon="3.77917">
        <ele>2</ele>
        <time>2021-04-09T10:07:50Z</time>
      </trkpt>
      <trkpt lat="51.30292" lon="3.77923">
        <ele>2.11</ele>
        <time>2021-04-09T10:07:56Z</time>
      </trkpt>
      <trkpt lat="51.30287" lon="3.77932">
        <ele>2.36</ele>
        <time>2021-04-09T10:08:02Z</time>
      </trkpt>
      <trkpt lat="51.30286" lon="3.77943">
        <ele>2.67</ele>
        <time>2021-04-09T10:08:08Z</time>
      </trkpt>
      <trkpt lat="51.30287" lon="3.77953">
        <ele>2.67</ele>
        <time>2021-04-09T10:08:14Z</time>
      </trkpt>
      <trkpt lat="51.3029" lon="3.77962">
        <ele>2.57</ele>
        <time>2021-04-09T10:08:20Z</time>
      </trkpt>
      <trkpt lat="51.2993" lon="3.78861">
        <ele>-1.48</ele>
        <time>2021-04-09T10:08:26Z</time>
      </trkpt>
      <trkpt lat="51.29873" lon="3.79023">
        <ele>-1.07</ele>
        <time>2021-04-09T10:08:32Z</time>
      </trkpt>
      <trkpt lat="51.29821" lon="3.79193">
        <ele>0.45</ele>
        <time>2021-04-09T10:08:38Z</time>
      </trkpt>
      <trkpt lat="51.29784" lon="3.79334">
        <ele>2.31</ele>
        <time>2021-04-09T10:08:44Z</time>
      </trkpt>
      <trkpt lat="51.29751" lon="3.79484">
        <ele>1.19</ele>
        <time>2021-04-09T10:08:50Z</time>
      </trkpt>
      <trkpt lat="51.29715" lon="3.7967">
        <ele>-2</ele>
        <time>2021-04-09T10:08:56Z</time>
      </trkpt>
      <trkpt lat="51.29663" lon="3.79978">
        <ele>-0.04</ele>
        <time>2021-04-09T10:09:02Z</time>
      </trkpt>
      <trkpt lat="51.29602" lon="3.80331">
        <ele>1.09</ele>
        <time>2021-04-09T10:09:09Z</time>
      </trkpt>
      <trkpt lat="51.2959" lon="3.80416">
        <ele>0.23</ele>
        <time>2021-04-09T10:09:15Z</time>
      </trkpt>
      <trkpt lat="51.29558" lon="3.8061">
        <ele>3.04</ele>
        <time>2021-04-09T10:09:21Z</time>
      </trkpt>
      <trkpt lat="51.29548" lon="3.80688">
        <ele>-1.28</ele>
        <time>2021-04-09T10:09:27Z</time>
      </trkpt>
      <trkpt lat="51.29544" lon="3.80812">
        <ele>1.22</ele>
        <time>2021-04-09T10:09:33Z</time>
      </trkpt>
      <trkpt lat="51.29537" lon="3.8082">
        <ele>1.51</ele>
        <time>2021-04-09T10:09:35Z</time>
      </trkpt>
      <trkpt lat="51.29533" lon="3.80833">
        <ele>1.98</ele>
        <time>2021-04-09T10:09:37Z</time>
      </trkpt>
      <trkpt lat="51.29534" lon="3.80847">
        <ele>2</ele>
        <time>2021-04-09T10:09:38Z</time>
      </trkpt>
      <trkpt lat="51.2954" lon="3.80859">
        <ele>2</ele>
        <time>2021-04-09T10:09:40Z</time>
      </trkpt>
      <trkpt lat="51.29545" lon="3.80863">
        <ele>1.94</ele>
        <time>2021-04-09T10:09:42Z</time>
      </trkpt>
      <trkpt lat="51.29552" lon="3.80863">
        <ele>1.93</ele>
        <time>2021-04-09T10:09:44Z</time>
      </trkpt>
      <trkpt lat="51.29558" lon="3.8086">
        <ele>1.91</ele>
        <time>2021-04-09T10:09:46Z</time>
      </trkpt>
      <trkpt lat="51.29563" lon="3.80852">
        <ele>1.74</ele>
        <time>2021-04-09T10:09:48Z</time>
      </trkpt>
      <trkpt lat="51.29573" lon="3.80854">
        <ele>1.39</ele>
        <time>2021-04-09T10:09:50Z</time>
      </trkpt>
      <trkpt lat="51.29599" lon="3.8087">
        <ele>0.62</ele>
        <time>2021-04-09T10:09:51Z</time>
      </trkpt>
      <trkpt lat="51.29678" lon="3.80985">
        <ele>0.33</ele>
        <time>2021-04-09T10:09:53Z</time>
      </trkpt>
      <trkpt lat="51.29685" lon="3.80999">
        <ele>0.02</ele>
        <time>2021-04-09T10:09:55Z</time>
      </trkpt>
      <trkpt lat="51.29684" lon="3.81008">
        <ele>4.9</ele>
        <time>2021-04-09T10:10:01Z</time>
      </trkpt>
      <trkpt lat="51.29684" lon="3.81018">
        <ele>4.8</ele>
        <time>2021-04-09T10:10:06Z</time>
      </trkpt>
      <trkpt lat="51.29689" lon="3.8103">
        <ele>4.7</ele>
        <time>2021-04-09T10:10:12Z</time>
      </trkpt>
      <trkpt lat="51.29697" lon="3.81036">
        <ele>-0.03</ele>
        <time>2021-04-09T10:10:18Z</time>
      </trkpt>
      <trkpt lat="51.29706" lon="3.81035">
        <ele>-0.11</ele>
        <time>2021-04-09T10:10:23Z</time>
      </trkpt>
      <trkpt lat="51.29711" lon="3.81031">
        <ele>-0.06</ele>
        <time>2021-04-09T10:10:29Z</time>
      </trkpt>
      <trkpt lat="51.29715" lon="3.81024">
        <ele>4.3</ele>
        <time>2021-04-09T10:10:35Z</time>
      </trkpt>
      <trkpt lat="51.29717" lon="3.81015">
        <ele>4.2</ele>
        <time>2021-04-09T10:10:40Z</time>
      </trkpt>
      <trkpt lat="51.29731" lon="3.81008">
        <ele>3.9</ele>
        <time>2021-04-09T10:10:46Z</time>
      </trkpt>
      <trkpt lat="51.29779" lon="3.80995">
        <ele>-0.81</ele>
        <time>2021-04-09T10:10:51Z</time>
      </trkpt>
      <trkpt lat="51.29814" lon="3.80984">
        <ele>-0.41</ele>
        <time>2021-04-09T10:10:57Z</time>
      </trkpt>
      <trkpt lat="51.29827" lon="3.80974">
        <ele>-0.2</ele>
        <time>2021-04-09T10:11:03Z</time>
      </trkpt>
      <trkpt lat="51.29849" lon="3.80948">
        <ele>0.55</ele>
        <time>2021-04-09T10:11:08Z</time>
      </trkpt>
      <trkpt lat="51.29859" lon="3.80928">
        <ele>0.96</ele>
        <time>2021-04-09T10:11:14Z</time>
      </trkpt>
      <trkpt lat="51.29867" lon="3.80902">
        <ele>0.78</ele>
        <time>2021-04-09T10:11:20Z</time>
      </trkpt>
      <trkpt lat="51.29872" lon="3.80874">
        <ele>0.05</ele>
        <time>2021-04-09T10:11:25Z</time>
      </trkpt>
      <trkpt lat="51.29876" lon="3.80731">
        <ele>0.47</ele>
        <time>2021-04-09T10:11:31Z</time>
      </trkpt>
      <trkpt lat="51.29883" lon="3.80684">
        <ele>1</ele>
        <time>2021-04-09T10:11:37Z</time>
      </trkpt>
      <trkpt lat="51.29889" lon="3.80657">
        <ele>0.99</ele>
        <time>2021-04-09T10:11:42Z</time>
      </trkpt>
      <trkpt lat="51.29905" lon="3.80614">
        <ele>1</ele>
        <time>2021-04-09T10:11:48Z</time>
      </trkpt>
      <trkpt lat="51.29929" lon="3.80567">
        <ele>1</ele>
        <time>2021-04-09T10:11:53Z</time>
      </trkpt>
      <trkpt lat="51.29943" lon="3.80548">
        <ele>1</ele>
        <time>2021-04-09T10:11:59Z</time>
      </trkpt>
      <trkpt lat="51.29973" lon="3.8052">
        <ele>1.02</ele>
        <time>2021-04-09T10:12:05Z</time>
      </trkpt>
      <trkpt lat="51.29998" lon="3.80491">
        <ele>1.95</ele>
        <time>2021-04-09T10:12:10Z</time>
      </trkpt>
      <trkpt lat="51.30061" lon="3.80449">
        <ele>1</ele>
        <time>2021-04-09T10:12:16Z</time>
      </trkpt>
      <trkpt lat="51.30106" lon="3.80424">
        <ele>-0.25</ele>
        <time>2021-04-09T10:12:22Z</time>
      </trkpt>
      <trkpt lat="51.30154" lon="3.80399">
        <ele>-1.73</ele>
        <time>2021-04-09T10:12:27Z</time>
      </trkpt>
      <trkpt lat="51.30208" lon="3.80378">
        <ele>0.1</ele>
        <time>2021-04-09T10:12:33Z</time>
      </trkpt>
      <trkpt lat="51.30255" lon="3.80362">
        <ele>0.8</ele>
        <time>2021-04-09T10:12:38Z</time>
      </trkpt>
      <trkpt lat="51.3033" lon="3.80341">
        <ele>1</ele>
        <time>2021-04-09T10:12:44Z</time>
      </trkpt>
      <trkpt lat="51.30565" lon="3.80285">
        <ele>-1</ele>
        <time>2021-04-09T10:12:50Z</time>
      </trkpt>
      <trkpt lat="51.30636" lon="3.80265">
        <ele>-0.95</ele>
        <time>2021-04-09T10:12:55Z</time>
      </trkpt>
      <trkpt lat="51.3069" lon="3.80248">
        <ele>-1.16</ele>
        <time>2021-04-09T10:13:01Z</time>
      </trkpt>
      <trkpt lat="51.30749" lon="3.80224">
        <ele>-1</ele>
        <time>2021-04-09T10:13:07Z</time>
      </trkpt>
      <trkpt lat="51.30803" lon="3.80202">
        <ele>3.7</ele>
        <time>2021-04-09T10:13:12Z</time>
      </trkpt>
      <trkpt lat="51.30853" lon="3.80178">
        <ele>-0.72</ele>
        <time>2021-04-09T10:13:18Z</time>
      </trkpt>
      <trkpt lat="51.3091" lon="3.80149">
        <ele>-1.75</ele>
        <time>2021-04-09T10:13:23Z</time>
      </trkpt>
      <trkpt lat="51.31062" lon="3.80059">
        <ele>0.19</ele>
        <time>2021-04-09T10:13:29Z</time>
      </trkpt>
      <trkpt lat="51.31107" lon="3.80028">
        <ele>0.16</ele>
        <time>2021-04-09T10:13:35Z</time>
      </trkpt>
      <trkpt lat="51.31224" lon="3.7994">
        <ele>0.85</ele>
        <time>2021-04-09T10:13:40Z</time>
      </trkpt>
      <trkpt lat="51.3138" lon="3.79816">
        <ele>-1.19</ele>
        <time>2021-04-09T10:13:46Z</time>
      </trkpt>
      <trkpt lat="51.31435" lon="3.79777">
        <ele>0.67</ele>
        <time>2021-04-09T10:13:52Z</time>
      </trkpt>
      <trkpt lat="51.31519" lon="3.79724">
        <ele>4</ele>
        <time>2021-04-09T10:13:57Z</time>
      </trkpt>
      <trkpt lat="51.31555" lon="3.79706">
        <ele>-0.59</ele>
        <time>2021-04-09T10:14:03Z</time>
      </trkpt>
      <trkpt lat="51.31613" lon="3.79681">
        <ele>1.05</ele>
        <time>2021-04-09T10:14:08Z</time>
      </trkpt>
      <trkpt lat="51.31681" lon="3.79658">
        <ele>0.8</ele>
        <time>2021-04-09T10:14:14Z</time>
      </trkpt>
      <trkpt lat="51.31721" lon="3.79647">
        <ele>0.26</ele>
        <time>2021-04-09T10:14:20Z</time>
      </trkpt>
      <trkpt lat="51.31762" lon="3.79638">
        <ele>1</ele>
        <time>2021-04-09T10:14:25Z</time>
      </trkpt>
      <trkpt lat="51.31884" lon="3.79626">
        <ele>-3</ele>
        <time>2021-04-09T10:14:31Z</time>
      </trkpt>
      <trkpt lat="51.31965" lon="3.79629">
        <ele>1</ele>
        <time>2021-04-09T10:14:37Z</time>
      </trkpt>
      <trkpt lat="51.32012" lon="3.79635">
        <ele>0.84</ele>
        <time>2021-04-09T10:14:42Z</time>
      </trkpt>
      <trkpt lat="51.32107" lon="3.79657">
        <ele>-0.35</ele>
        <time>2021-04-09T10:14:48Z</time>
      </trkpt>
      <trkpt lat="51.3221" lon="3.79694">
        <ele>-0.44</ele>
        <time>2021-04-09T10:14:53Z</time>
      </trkpt>
      <trkpt lat="51.32258" lon="3.79719">
        <ele>0.55</ele>
        <time>2021-04-09T10:14:59Z</time>
      </trkpt>
      <trkpt lat="51.32326" lon="3.7976">
        <ele>0.88</ele>
        <time>2021-04-09T10:15:05Z</time>
      </trkpt>
      <trkpt lat="51.32419" lon="3.79827">
        <ele>-1.77</ele>
        <time>2021-04-09T10:15:10Z</time>
      </trkpt>
      <trkpt lat="51.32478" lon="3.79874">
        <ele>-0.79</ele>
        <time>2021-04-09T10:15:16Z</time>
      </trkpt>
      <trkpt lat="51.32525" lon="3.79914">
        <ele>0.91</ele>
        <time>2021-04-09T10:15:22Z</time>
      </trkpt>
      <trkpt lat="51.326" lon="3.79972">
        <ele>-0.39</ele>
        <time>2021-04-09T10:15:27Z</time>
      </trkpt>
      <trkpt lat="51.3265" lon="3.80006">
        <ele>1</ele>
        <time>2021-04-09T10:15:33Z</time>
      </trkpt>
      <trkpt lat="51.32708" lon="3.80038">
        <ele>-0.49</ele>
        <time>2021-04-09T10:15:38Z</time>
      </trkpt>
      <trkpt lat="51.32745" lon="3.80056">
        <ele>-1</ele>
        <time>2021-04-09T10:15:44Z</time>
      </trkpt>
      <trkpt lat="51.32788" lon="3.80074">
        <ele>-0.62</ele>
        <time>2021-04-09T10:15:50Z</time>
      </trkpt>
      <trkpt lat="51.32903" lon="3.80108">
        <ele>-1.45</ele>
        <time>2021-04-09T10:15:55Z</time>
      </trkpt>
      <trkpt lat="51.32984" lon="3.80119">
        <ele>-1.44</ele>
        <time>2021-04-09T10:16:01Z</time>
      </trkpt>
      <trkpt lat="51.33053" lon="3.80119">
        <ele>-1.08</ele>
        <time>2021-04-09T10:16:07Z</time>
      </trkpt>
      <trkpt lat="51.33123" lon="3.8011">
        <ele>1.97</ele>
        <time>2021-04-09T10:16:12Z</time>
      </trkpt>
      <trkpt lat="51.33173" lon="3.80101">
        <ele>2.64</ele>
        <time>2021-04-09T10:16:18Z</time>
      </trkpt>
      <trkpt lat="51.33242" lon="3.8008">
        <ele>1.7</ele>
        <time>2021-04-09T10:16:23Z</time>
      </trkpt>
      <trkpt lat="51.33338" lon="3.80043">
        <ele>2.53</ele>
        <time>2021-04-09T10:16:29Z</time>
      </trkpt>
      <trkpt lat="51.33444" lon="3.79997">
        <ele>1.99</ele>
        <time>2021-04-09T10:16:35Z</time>
      </trkpt>
      <trkpt lat="51.33601" lon="3.79938">
        <ele>2.77</ele>
        <time>2021-04-09T10:16:40Z</time>
      </trkpt>
      <trkpt lat="51.33733" lon="3.79903">
        <ele>0.6</ele>
        <time>2021-04-09T10:16:46Z</time>
      </trkpt>
      <trkpt lat="51.33843" lon="3.7988">
        <ele>-0.33</ele>
        <time>2021-04-09T10:16:52Z</time>
      </trkpt>
      <trkpt lat="51.33923" lon="3.79868">
        <ele>-0.39</ele>
        <time>2021-04-09T10:16:57Z</time>
      </trkpt>
      <trkpt lat="51.34026" lon="3.79858">
        <ele>-0.47</ele>
        <time>2021-04-09T10:17:03Z</time>
      </trkpt>
      <trkpt lat="51.34131" lon="3.79853">
        <ele>-0.55</ele>
        <time>2021-04-09T10:17:08Z</time>
      </trkpt>
      <trkpt lat="51.34387" lon="3.79854">
        <ele>-0.74</ele>
        <time>2021-04-09T10:17:14Z</time>
      </trkpt>
      <trkpt lat="51.37007" lon="3.79883">
        <ele>-2</ele>
        <time>2021-04-09T10:17:20Z</time>
      </trkpt>
      <trkpt lat="51.37007" lon="3.79883">
        <ele>-2</ele>
        <time>2021-04-09T10:17:20Z</time>
      </trkpt>
      <trkpt lat="51.37776" lon="3.79891">
        <ele>-3.25</ele>
        <time>2021-04-09T10:17:31Z</time>
      </trkpt>
      <trkpt lat="51.38935" lon="3.79894">
        <ele>-4.09</ele>
        <time>2021-04-09T10:17:42Z</time>
      </trkpt>
      <trkpt lat="51.39153" lon="3.79888">
        <ele>-4.24</ele>
        <time>2021-04-09T10:17:53Z</time>
      </trkpt>
      <trkpt lat="51.39278" lon="3.79872">
        <ele>-4.33</ele>
        <time>2021-04-09T10:18:05Z</time>
      </trkpt>
      <trkpt lat="51.3937" lon="3.7985">
        <ele>-4.4</ele>
        <time>2021-04-09T10:18:16Z</time>
      </trkpt>
      <trkpt lat="51.39466" lon="3.79819">
        <ele>-4.47</ele>
        <time>2021-04-09T10:18:27Z</time>
      </trkpt>
      <trkpt lat="51.39538" lon="3.79791">
        <ele>-4.53</ele>
        <time>2021-04-09T10:18:38Z</time>
      </trkpt>
      <trkpt lat="51.39605" lon="3.79759">
        <ele>-4.58</ele>
        <time>2021-04-09T10:18:50Z</time>
      </trkpt>
      <trkpt lat="51.3971" lon="3.79692">
        <ele>-4.67</ele>
        <time>2021-04-09T10:19:01Z</time>
      </trkpt>
      <trkpt lat="51.39762" lon="3.79654">
        <ele>-4.72</ele>
        <time>2021-04-09T10:19:12Z</time>
      </trkpt>
      <trkpt lat="51.39851" lon="3.79578">
        <ele>-4.81</ele>
        <time>2021-04-09T10:19:23Z</time>
      </trkpt>
      <trkpt lat="51.39932" lon="3.79494">
        <ele>-5.2</ele>
        <time>2021-04-09T10:19:35Z</time>
      </trkpt>
      <trkpt lat="51.39995" lon="3.79421">
        <ele>-2.15</ele>
        <time>2021-04-09T10:19:46Z</time>
      </trkpt>
      <trkpt lat="51.40154" lon="3.79217">
        <ele>-1.64</ele>
        <time>2021-04-09T10:19:57Z</time>
      </trkpt>
      <trkpt lat="51.40389" lon="3.78901">
        <ele>-3</ele>
        <time>2021-04-09T10:20:08Z</time>
      </trkpt>
      <trkpt lat="51.40908" lon="3.78193">
        <ele>-2.3</ele>
        <time>2021-04-09T10:20:20Z</time>
      </trkpt>
      <trkpt lat="51.40968" lon="3.78107">
        <ele>-1.02</ele>
        <time>2021-04-09T10:20:31Z</time>
      </trkpt>
      <trkpt lat="51.4103" lon="3.78008">
        <ele>-1.07</ele>
        <time>2021-04-09T10:20:42Z</time>
      </trkpt>
      <trkpt lat="51.41076" lon="3.77924">
        <ele>-0.98</ele>
        <time>2021-04-09T10:20:53Z</time>
      </trkpt>
      <trkpt lat="51.41109" lon="3.77858">
        <ele>-1.84</ele>
        <time>2021-04-09T10:21:05Z</time>
      </trkpt>
      <trkpt lat="51.41142" lon="3.77786">
        <ele>-2.88</ele>
        <time>2021-04-09T10:21:16Z</time>
      </trkpt>
      <trkpt lat="51.41174" lon="3.77708">
        <ele>-3</ele>
        <time>2021-04-09T10:21:27Z</time>
      </trkpt>
      <trkpt lat="51.41276" lon="3.77432">
        <ele>-2.57</ele>
        <time>2021-04-09T10:21:38Z</time>
      </trkpt>
      <trkpt lat="51.4133" lon="3.77302">
        <ele>-0.9</ele>
        <time>2021-04-09T10:21:50Z</time>
      </trkpt>
      <trkpt lat="51.41374" lon="3.77209">
        <ele>-0.72</ele>
        <time>2021-04-09T10:22:01Z</time>
      </trkpt>
      <trkpt lat="51.4142" lon="3.77122">
        <ele>-1.11</ele>
        <time>2021-04-09T10:22:12Z</time>
      </trkpt>
      <trkpt lat="51.41481" lon="3.77022">
        <ele>-2</ele>
        <time>2021-04-09T10:22:23Z</time>
      </trkpt>
      <trkpt lat="51.41515" lon="3.76971">
        <ele>-2</ele>
        <time>2021-04-09T10:22:35Z</time>
      </trkpt>
      <trkpt lat="51.41569" lon="3.76898">
        <ele>-2</ele>
        <time>2021-04-09T10:22:46Z</time>
      </trkpt>
      <trkpt lat="51.41656" lon="3.76796">
        <ele>-1</ele>
        <time>2021-04-09T10:22:57Z</time>
      </trkpt>
      <trkpt lat="51.41693" lon="3.76759">
        <ele>-1</ele>
        <time>2021-04-09T10:23:08Z</time>
      </trkpt>
      <trkpt lat="51.41756" lon="3.76702">
        <ele>-1.75</ele>
        <time>2021-04-09T10:23:20Z</time>
      </trkpt>
      <trkpt lat="51.41819" lon="3.7665">
        <ele>-1.69</ele>
        <time>2021-04-09T10:23:31Z</time>
      </trkpt>
      <trkpt lat="51.41905" lon="3.76591">
        <ele>-1.29</ele>
        <time>2021-04-09T10:23:42Z</time>
      </trkpt>
      <trkpt lat="51.41969" lon="3.76555">
        <ele>-0.11</ele>
        <time>2021-04-09T10:23:53Z</time>
      </trkpt>
      <trkpt lat="51.42066" lon="3.76512">
        <ele>-1</ele>
        <time>2021-04-09T10:24:05Z</time>
      </trkpt>
      <trkpt lat="51.42497" lon="3.76341">
        <ele>-1</ele>
        <time>2021-04-09T10:24:16Z</time>
      </trkpt>
      <trkpt lat="51.42954" lon="3.76146">
        <ele>-0.26</ele>
        <time>2021-04-09T10:24:27Z</time>
      </trkpt>
      <trkpt lat="51.4342" lon="3.75932">
        <ele>-1.59</ele>
        <time>2021-04-09T10:24:38Z</time>
      </trkpt>
      <trkpt lat="51.43768" lon="3.75772">
        <ele>-1.13</ele>
        <time>2021-04-09T10:24:50Z</time>
      </trkpt>
      <trkpt lat="51.43986" lon="3.75667">
        <ele>-1.52</ele>
        <time>2021-04-09T10:25:01Z</time>
      </trkpt>
      <trkpt lat="51.44029" lon="3.75652">
        <ele>2</ele>
        <time>2021-04-09T10:25:12Z</time>
      </trkpt>
      <trkpt lat="51.44104" lon="3.75638">
        <ele>-0.73</ele>
        <time>2021-04-09T10:25:30Z</time>
      </trkpt>
      <trkpt lat="51.44107" lon="3.75631">
        <ele>-0.84</ele>
        <time>2021-04-09T10:25:42Z</time>
      </trkpt>
      <trkpt lat="51.44161" lon="3.75603">
        <ele>-1.19</ele>
        <time>2021-04-09T10:25:54Z</time>
      </trkpt>
      <trkpt lat="51.44215" lon="3.75577">
        <ele>-1.75</ele>
        <time>2021-04-09T10:26:06Z</time>
      </trkpt>
      <trkpt lat="51.44297" lon="3.75514">
        <ele>-1</ele>
        <time>2021-04-09T10:26:18Z</time>
      </trkpt>
      <trkpt lat="51.44411" lon="3.75454">
        <ele>-1.8</ele>
        <time>2021-04-09T10:26:30Z</time>
      </trkpt>
      <trkpt lat="51.44632" lon="3.75328">
        <ele>-1.76</ele>
        <time>2021-04-09T10:26:42Z</time>
      </trkpt>
      <trkpt lat="51.4469" lon="3.75307">
        <ele>-1.16</ele>
        <time>2021-04-09T10:26:43Z</time>
      </trkpt>
      <trkpt lat="51.447" lon="3.75305">
        <ele>-1.2</ele>
        <time>2021-04-09T10:26:44Z</time>
      </trkpt>
      <trkpt lat="51.44722" lon="3.75309">
        <ele>-1.89</ele>
        <time>2021-04-09T10:26:45Z</time>
      </trkpt>
      <trkpt lat="51.44744" lon="3.75326">
        <ele>-1.25</ele>
        <time>2021-04-09T10:26:47Z</time>
      </trkpt>
      <trkpt lat="51.44755" lon="3.75342">
        <ele>-1.16</ele>
        <time>2021-04-09T10:26:48Z</time>
      </trkpt>
      <trkpt lat="51.44764" lon="3.75363">
        <ele>-1.52</ele>
        <time>2021-04-09T10:26:49Z</time>
      </trkpt>
      <trkpt lat="51.44769" lon="3.75382">
        <ele>-1.91</ele>
        <time>2021-04-09T10:26:51Z</time>
      </trkpt>
      <trkpt lat="51.44771" lon="3.75401">
        <ele>-1.67</ele>
        <time>2021-04-09T10:26:52Z</time>
      </trkpt>
      <trkpt lat="51.44772" lon="3.75421">
        <ele>-1.08</ele>
        <time>2021-04-09T10:26:53Z</time>
      </trkpt>
      <trkpt lat="51.44768" lon="3.75451">
        <ele>-0.7</ele>
        <time>2021-04-09T10:26:55Z</time>
      </trkpt>
      <trkpt lat="51.44758" lon="3.75481">
        <ele>-1.16</ele>
        <time>2021-04-09T10:26:56Z</time>
      </trkpt>
      <trkpt lat="51.44745" lon="3.75502">
        <ele>-0.94</ele>
        <time>2021-04-09T10:26:57Z</time>
      </trkpt>
      <trkpt lat="51.44729" lon="3.75516">
        <ele>-0.86</ele>
        <time>2021-04-09T10:26:58Z</time>
      </trkpt>
      <trkpt lat="51.44708" lon="3.75524">
        <ele>-1</ele>
        <time>2021-04-09T10:27:00Z</time>
      </trkpt>
      <trkpt lat="51.44684" lon="3.7552">
        <ele>-1</ele>
        <time>2021-04-09T10:27:01Z</time>
      </trkpt>
      <trkpt lat="51.44675" lon="3.75515">
        <ele>-1</ele>
        <time>2021-04-09T10:27:02Z</time>
      </trkpt>
      <trkpt lat="51.44661" lon="3.75501">
        <ele>-1</ele>
        <time>2021-04-09T10:27:04Z</time>
      </trkpt>
      <trkpt lat="51.44644" lon="3.75476">
        <ele>-0.85</ele>
        <time>2021-04-09T10:27:05Z</time>
      </trkpt>
      <trkpt lat="51.44657" lon="3.75506">
        <ele>-1</ele>
        <time>2021-04-09T10:27:08Z</time>
      </trkpt>
      <trkpt lat="51.44672" lon="3.75522">
        <ele>-1</ele>
        <time>2021-04-09T10:27:11Z</time>
      </trkpt>
      <trkpt lat="51.44683" lon="3.75529">
        <ele>-1.02</ele>
        <time>2021-04-09T10:27:14Z</time>
      </trkpt>
      <trkpt lat="51.44699" lon="3.75535">
        <ele>-0.96</ele>
        <time>2021-04-09T10:27:17Z</time>
      </trkpt>
      <trkpt lat="51.44713" lon="3.75536">
        <ele>-0.8</ele>
        <time>2021-04-09T10:27:20Z</time>
      </trkpt>
      <trkpt lat="51.44727" lon="3.75532">
        <ele>-0.66</ele>
        <time>2021-04-09T10:27:23Z</time>
      </trkpt>
      <trkpt lat="51.44748" lon="3.75518">
        <ele>-0.41</ele>
        <time>2021-04-09T10:27:26Z</time>
      </trkpt>
      <trkpt lat="51.44761" lon="3.75502">
        <ele>-0.16</ele>
        <time>2021-04-09T10:27:29Z</time>
      </trkpt>
      <trkpt lat="51.44771" lon="3.75484">
        <ele>-0.03</ele>
        <time>2021-04-09T10:27:32Z</time>
      </trkpt>
      <trkpt lat="51.44778" lon="3.75468">
        <ele>1</ele>
        <time>2021-04-09T10:27:35Z</time>
      </trkpt>
      <trkpt lat="51.44785" lon="3.75434">
        <ele>-0.13</ele>
        <time>2021-04-09T10:27:37Z</time>
      </trkpt>
      <trkpt lat="51.44798" lon="3.75315">
        <ele>-2</ele>
        <time>2021-04-09T10:27:40Z</time>
      </trkpt>
      <trkpt lat="51.44808" lon="3.75279">
        <ele>-2</ele>
        <time>2021-04-09T10:27:43Z</time>
      </trkpt>
      <trkpt lat="51.44818" lon="3.75248">
        <ele>-1.54</ele>
        <time>2021-04-09T10:27:46Z</time>
      </trkpt>
      <trkpt lat="51.44831" lon="3.75223">
        <ele>-1.1</ele>
        <time>2021-04-09T10:27:49Z</time>
      </trkpt>
      <trkpt lat="51.44848" lon="3.75193">
        <ele>1.6</ele>
        <time>2021-04-09T10:27:52Z</time>
      </trkpt>
      <trkpt lat="51.44906" lon="3.75124">
        <ele>-0.33</ele>
        <time>2021-04-09T10:27:55Z</time>
      </trkpt>
      <trkpt lat="51.44994" lon="3.75043">
        <ele>2.02</ele>
        <time>2021-04-09T10:27:58Z</time>
      </trkpt>
      <trkpt lat="51.4509" lon="3.74941">
        <ele>1.42</ele>
        <time>2021-04-09T10:28:01Z</time>
      </trkpt>
      <trkpt lat="51.45157" lon="3.7485">
        <ele>-0.6</ele>
        <time>2021-04-09T10:28:04Z</time>
      </trkpt>
      <trkpt lat="51.45311" lon="3.74609">
        <ele>-0.92</ele>
        <time>2021-04-09T10:28:07Z</time>
      </trkpt>
      <trkpt lat="51.45349" lon="3.74554">
        <ele>0.02</ele>
        <time>2021-04-09T10:28:10Z</time>
      </trkpt>
      <trkpt lat="51.45394" lon="3.74495">
        <ele>-1.85</ele>
        <time>2021-04-09T10:28:13Z</time>
      </trkpt>
      <trkpt lat="51.45425" lon="3.7446">
        <ele>-1.71</ele>
        <time>2021-04-09T10:28:16Z</time>
      </trkpt>
      <trkpt lat="51.45439" lon="3.74446">
        <ele>-1.19</ele>
        <time>2021-04-09T10:28:19Z</time>
      </trkpt>
      <trkpt lat="51.45458" lon="3.74421">
        <ele>-1.41</ele>
        <time>2021-04-09T10:28:24Z</time>
      </trkpt>
      <trkpt lat="51.45481" lon="3.74403">
        <ele>-0.68</ele>
        <time>2021-04-09T10:28:28Z</time>
      </trkpt>
      <trkpt lat="51.45505" lon="3.74389">
        <ele>1</ele>
        <time>2021-04-09T10:28:33Z</time>
      </trkpt>
      <trkpt lat="51.4562" lon="3.74339">
        <ele>-1</ele>
        <time>2021-04-09T10:28:38Z</time>
      </trkpt>
      <trkpt lat="51.45675" lon="3.74302">
        <ele>-0.69</ele>
        <time>2021-04-09T10:28:42Z</time>
      </trkpt>
      <trkpt lat="51.45709" lon="3.74271">
        <ele>-0.65</ele>
        <time>2021-04-09T10:28:47Z</time>
      </trkpt>
      <trkpt lat="51.45739" lon="3.74238">
        <ele>-1.62</ele>
        <time>2021-04-09T10:28:52Z</time>
      </trkpt>
      <trkpt lat="51.45768" lon="3.74199">
        <ele>-1.46</ele>
        <time>2021-04-09T10:28:56Z</time>
      </trkpt>
      <trkpt lat="51.45804" lon="3.74142">
        <ele>-1</ele>
        <time>2021-04-09T10:29:01Z</time>
      </trkpt>
      <trkpt lat="51.45819" lon="3.74111">
        <ele>-1</ele>
        <time>2021-04-09T10:29:06Z</time>
      </trkpt>
      <trkpt lat="51.45863" lon="3.74031">
        <ele>-2.01</ele>
        <time>2021-04-09T10:29:10Z</time>
      </trkpt>
      <trkpt lat="51.45909" lon="3.7395">
        <ele>-1.27</ele>
        <time>2021-04-09T10:29:15Z</time>
      </trkpt>
      <trkpt lat="51.45942" lon="3.73901">
        <ele>0.05</ele>
        <time>2021-04-09T10:29:20Z</time>
      </trkpt>
      <trkpt lat="51.46027" lon="3.73798">
        <ele>1</ele>
        <time>2021-04-09T10:29:24Z</time>
      </trkpt>
      <trkpt lat="51.46054" lon="3.73769">
        <ele>0.63</ele>
        <time>2021-04-09T10:29:29Z</time>
      </trkpt>
      <trkpt lat="51.46081" lon="3.73742">
        <ele>0.9</ele>
        <time>2021-04-09T10:29:34Z</time>
      </trkpt>
      <trkpt lat="51.46198" lon="3.73637">
        <ele>1</ele>
        <time>2021-04-09T10:29:38Z</time>
      </trkpt>
      <trkpt lat="51.46228" lon="3.73605">
        <ele>0.99</ele>
        <time>2021-04-09T10:29:43Z</time>
      </trkpt>
      <trkpt lat="51.46303" lon="3.73536">
        <ele>0.65</ele>
        <time>2021-04-09T10:29:48Z</time>
      </trkpt>
      <trkpt lat="51.46321" lon="3.73517">
        <ele>0.44</ele>
        <time>2021-04-09T10:29:52Z</time>
      </trkpt>
      <trkpt lat="51.46365" lon="3.73476">
        <ele>-0.11</ele>
        <time>2021-04-09T10:29:57Z</time>
      </trkpt>
      <trkpt lat="51.46419" lon="3.73429">
        <ele>0.45</ele>
        <time>2021-04-09T10:30:02Z</time>
      </trkpt>
      <trkpt lat="51.47014" lon="3.72891">
        <ele>0.94</ele>
        <time>2021-04-09T10:30:06Z</time>
      </trkpt>
      <trkpt lat="51.4753" lon="3.72421">
        <ele>1.13</ele>
        <time>2021-04-09T10:30:11Z</time>
      </trkpt>
      <trkpt lat="51.47597" lon="3.72356">
        <ele>-0.09</ele>
        <time>2021-04-09T10:30:16Z</time>
      </trkpt>
      <trkpt lat="51.47692" lon="3.72249">
        <ele>1</ele>
        <time>2021-04-09T10:30:20Z</time>
      </trkpt>
      <trkpt lat="51.47719" lon="3.72214">
        <ele>0.49</ele>
        <time>2021-04-09T10:30:25Z</time>
      </trkpt>
      <trkpt lat="51.47802" lon="3.72096">
        <ele>-0.41</ele>
        <time>2021-04-09T10:30:30Z</time>
      </trkpt>
      <trkpt lat="51.47846" lon="3.72024">
        <ele>1.07</ele>
        <time>2021-04-09T10:30:34Z</time>
      </trkpt>
      <trkpt lat="51.47889" lon="3.71949">
        <ele>1</ele>
        <time>2021-04-09T10:30:39Z</time>
      </trkpt>
      <trkpt lat="51.4794" lon="3.71849">
        <ele>-0.68</ele>
        <time>2021-04-09T10:30:44Z</time>
      </trkpt>
      <trkpt lat="51.4799" lon="3.7174">
        <ele>1</ele>
        <time>2021-04-09T10:30:48Z</time>
      </trkpt>
      <trkpt lat="51.48028" lon="3.71643">
        <ele>1.14</ele>
        <time>2021-04-09T10:30:53Z</time>
      </trkpt>
      <trkpt lat="51.48054" lon="3.71571">
        <ele>0.95</ele>
        <time>2021-04-09T10:30:58Z</time>
      </trkpt>
      <trkpt lat="51.48088" lon="3.71464">
        <ele>1</ele>
        <time>2021-04-09T10:31:02Z</time>
      </trkpt>
      <trkpt lat="51.48125" lon="3.71328">
        <ele>0.61</ele>
        <time>2021-04-09T10:31:07Z</time>
      </trkpt>
      <trkpt lat="51.48142" lon="3.71254">
        <ele>0.98</ele>
        <time>2021-04-09T10:31:12Z</time>
      </trkpt>
      <trkpt lat="51.48168" lon="3.71125">
        <ele>4</ele>
        <time>2021-04-09T10:31:16Z</time>
      </trkpt>
      <trkpt lat="51.48184" lon="3.71028">
        <ele>1.4</ele>
        <time>2021-04-09T10:31:21Z</time>
      </trkpt>
      <trkpt lat="51.48196" lon="3.70934">
        <ele>1.31</ele>
        <time>2021-04-09T10:31:26Z</time>
      </trkpt>
      <trkpt lat="51.48207" lon="3.70839">
        <ele>1</ele>
        <time>2021-04-09T10:31:30Z</time>
      </trkpt>
      <trkpt lat="51.48215" lon="3.70731">
        <ele>1.73</ele>
        <time>2021-04-09T10:31:35Z</time>
      </trkpt>
      <trkpt lat="51.48221" lon="3.7055">
        <ele>1.17</ele>
        <time>2021-04-09T10:31:40Z</time>
      </trkpt>
      <trkpt lat="51.4822" lon="3.70442">
        <ele>1.82</ele>
        <time>2021-04-09T10:31:44Z</time>
      </trkpt>
      <trkpt lat="51.48218" lon="3.70381">
        <ele>1</ele>
        <time>2021-04-09T10:31:49Z</time>
      </trkpt>
      <trkpt lat="51.4821" lon="3.70256">
        <ele>-0.12</ele>
        <time>2021-04-09T10:31:54Z</time>
      </trkpt>
      <trkpt lat="51.48202" lon="3.70169">
        <ele>-0.73</ele>
        <time>2021-04-09T10:31:58Z</time>
      </trkpt>
      <trkpt lat="51.48191" lon="3.70078">
        <ele>-0.11</ele>
        <time>2021-04-09T10:32:03Z</time>
      </trkpt>
      <trkpt lat="51.48177" lon="3.69975">
        <ele>-0.75</ele>
        <time>2021-04-09T10:32:08Z</time>
      </trkpt>
      <trkpt lat="51.4816" lon="3.69881">
        <ele>-0.28</ele>
        <time>2021-04-09T10:32:12Z</time>
      </trkpt>
      <trkpt lat="51.48134" lon="3.6976">
        <ele>-1.23</ele>
        <time>2021-04-09T10:32:17Z</time>
      </trkpt>
      <trkpt lat="51.48106" lon="3.69648">
        <ele>-0.27</ele>
        <time>2021-04-09T10:32:22Z</time>
      </trkpt>
      <trkpt lat="51.48073" lon="3.69539">
        <ele>-0.38</ele>
        <time>2021-04-09T10:32:26Z</time>
      </trkpt>
      <trkpt lat="51.48028" lon="3.6941">
        <ele>-1</ele>
        <time>2021-04-09T10:32:31Z</time>
      </trkpt>
      <trkpt lat="51.47843" lon="3.6894">
        <ele>1.83</ele>
        <time>2021-04-09T10:32:36Z</time>
      </trkpt>
      <trkpt lat="51.47809" lon="3.68849">
        <ele>2.13</ele>
        <time>2021-04-09T10:32:40Z</time>
      </trkpt>
      <trkpt lat="51.47777" lon="3.68767">
        <ele>0.97</ele>
        <time>2021-04-09T10:32:45Z</time>
      </trkpt>
      <trkpt lat="51.4775" lon="3.68708">
        <ele>1.52</ele>
        <time>2021-04-09T10:32:50Z</time>
      </trkpt>
      <trkpt lat="51.47695" lon="3.68573">
        <ele>3.37</ele>
        <time>2021-04-09T10:32:54Z</time>
      </trkpt>
      <trkpt lat="51.47568" lon="3.68253">
        <ele>4.9</ele>
        <time>2021-04-09T10:32:59Z</time>
      </trkpt>
      <trkpt lat="51.47553" lon="3.68195">
        <ele>5.64</ele>
        <time>2021-04-09T10:33:06Z</time>
      </trkpt>
      <trkpt lat="51.47405" lon="3.67749">
        <ele>3.13</ele>
        <time>2021-04-09T10:33:14Z</time>
      </trkpt>
      <trkpt lat="51.47373" lon="3.67661">
        <ele>3</ele>
        <time>2021-04-09T10:33:21Z</time>
      </trkpt>
      <trkpt lat="51.47358" lon="3.67623">
        <ele>3</ele>
        <time>2021-04-09T10:33:26Z</time>
      </trkpt>
      <trkpt lat="51.47127" lon="3.67123">
        <ele>4.96</ele>
        <time>2021-04-09T10:33:30Z</time>
      </trkpt>
      <trkpt lat="51.47065" lon="3.66975">
        <ele>2.78</ele>
        <time>2021-04-09T10:33:34Z</time>
      </trkpt>
      <trkpt lat="51.47051" lon="3.66957">
        <ele>1.68</ele>
        <time>2021-04-09T10:33:38Z</time>
      </trkpt>
      <trkpt lat="51.46969" lon="3.66748">
        <ele>2.63</ele>
        <time>2021-04-09T10:33:43Z</time>
      </trkpt>
      <trkpt lat="51.46921" lon="3.66609">
        <ele>-1.94</ele>
        <time>2021-04-09T10:33:47Z</time>
      </trkpt>
      <trkpt lat="51.46899" lon="3.66533">
        <ele>-0.65</ele>
        <time>2021-04-09T10:33:51Z</time>
      </trkpt>
      <trkpt lat="51.46873" lon="3.66435">
        <ele>-1.39</ele>
        <time>2021-04-09T10:33:55Z</time>
      </trkpt>
      <trkpt lat="51.46857" lon="3.66365">
        <ele>-0.34</ele>
        <time>2021-04-09T10:34:00Z</time>
      </trkpt>
      <trkpt lat="51.46843" lon="3.66295">
        <ele>1.59</ele>
        <time>2021-04-09T10:34:04Z</time>
      </trkpt>
      <trkpt lat="51.46821" lon="3.66161">
        <ele>1.37</ele>
        <time>2021-04-09T10:34:08Z</time>
      </trkpt>
      <trkpt lat="51.46812" lon="3.66077">
        <ele>2</ele>
        <time>2021-04-09T10:34:12Z</time>
      </trkpt>
      <trkpt lat="51.46804" lon="3.65984">
        <ele>2.93</ele>
        <time>2021-04-09T10:34:17Z</time>
      </trkpt>
      <trkpt lat="51.468" lon="3.65903">
        <ele>1.39</ele>
        <time>2021-04-09T10:34:21Z</time>
      </trkpt>
      <trkpt lat="51.46798" lon="3.65825">
        <ele>0.65</ele>
        <time>2021-04-09T10:34:25Z</time>
      </trkpt>
      <trkpt lat="51.468" lon="3.6569">
        <ele>-1</ele>
        <time>2021-04-09T10:34:30Z</time>
      </trkpt>
      <trkpt lat="51.46804" lon="3.65611">
        <ele>0.93</ele>
        <time>2021-04-09T10:34:34Z</time>
      </trkpt>
      <trkpt lat="51.46811" lon="3.6552">
        <ele>2.58</ele>
        <time>2021-04-09T10:34:38Z</time>
      </trkpt>
      <trkpt lat="51.46833" lon="3.65358">
        <ele>-1.97</ele>
        <time>2021-04-09T10:34:42Z</time>
      </trkpt>
      <trkpt lat="51.46846" lon="3.65277">
        <ele>-2.49</ele>
        <time>2021-04-09T10:34:47Z</time>
      </trkpt>
      <trkpt lat="51.46876" lon="3.65143">
        <ele>1.53</ele>
        <time>2021-04-09T10:34:51Z</time>
      </trkpt>
      <trkpt lat="51.469" lon="3.65051">
        <ele>1.29</ele>
        <time>2021-04-09T10:34:55Z</time>
      </trkpt>
      <trkpt lat="51.46933" lon="3.64945">
        <ele>2</ele>
        <time>2021-04-09T10:34:59Z</time>
      </trkpt>
      <trkpt lat="51.46978" lon="3.64824">
        <ele>0.48</ele>
        <time>2021-04-09T10:35:04Z</time>
      </trkpt>
      <trkpt lat="51.47044" lon="3.64678">
        <ele>1</ele>
        <time>2021-04-09T10:35:08Z</time>
      </trkpt>
      <trkpt lat="51.47093" lon="3.64586">
        <ele>-0.57</ele>
        <time>2021-04-09T10:35:12Z</time>
      </trkpt>
      <trkpt lat="51.47175" lon="3.6444">
        <ele>-2.31</ele>
        <time>2021-04-09T10:35:16Z</time>
      </trkpt>
      <trkpt lat="51.47304" lon="3.64224">
        <ele>0.9</ele>
        <time>2021-04-09T10:35:21Z</time>
      </trkpt>
      <trkpt lat="51.47329" lon="3.64175">
        <ele>-0.28</ele>
        <time>2021-04-09T10:35:25Z</time>
      </trkpt>
      <trkpt lat="51.47454" lon="3.63967">
        <ele>3.07</ele>
        <time>2021-04-09T10:35:29Z</time>
      </trkpt>
      <trkpt lat="51.4749" lon="3.63901">
        <ele>3</ele>
        <time>2021-04-09T10:35:34Z</time>
      </trkpt>
      <trkpt lat="51.47556" lon="3.63788">
        <ele>1.01</ele>
        <time>2021-04-09T10:35:38Z</time>
      </trkpt>
      <trkpt lat="51.47559" lon="3.63779">
        <ele>1.13</ele>
        <time>2021-04-09T10:35:42Z</time>
      </trkpt>
      <trkpt lat="51.4758" lon="3.63746">
        <ele>2.87</ele>
        <time>2021-04-09T10:35:46Z</time>
      </trkpt>
      <trkpt lat="51.47582" lon="3.63742">
        <ele>3.13</ele>
        <time>2021-04-09T10:35:51Z</time>
      </trkpt>
      <trkpt lat="51.47597" lon="3.63743">
        <ele>3.73</ele>
        <time>2021-04-09T10:35:55Z</time>
      </trkpt>
      <trkpt lat="51.47606" lon="3.63731">
        <ele>4.51</ele>
        <time>2021-04-09T10:35:59Z</time>
      </trkpt>
      <trkpt lat="51.47608" lon="3.63719">
        <ele>4.88</ele>
        <time>2021-04-09T10:36:03Z</time>
      </trkpt>
      <trkpt lat="51.47607" lon="3.63705">
        <ele>4.84</ele>
        <time>2021-04-09T10:36:08Z</time>
      </trkpt>
      <trkpt lat="51.47599" lon="3.63689">
        <ele>4.55</ele>
        <time>2021-04-09T10:36:09Z</time>
      </trkpt>
      <trkpt lat="51.47593" lon="3.63685">
        <ele>4.34</ele>
        <time>2021-04-09T10:36:10Z</time>
      </trkpt>
      <trkpt lat="51.47578" lon="3.63686">
        <ele>3.6</ele>
        <time>2021-04-09T10:36:11Z</time>
      </trkpt>
      <trkpt lat="51.4757" lon="3.63677">
        <ele>3.05</ele>
        <time>2021-04-09T10:36:14Z</time>
      </trkpt>
      <trkpt lat="51.47562" lon="3.63664">
        <ele>2.38</ele>
        <time>2021-04-09T10:36:16Z</time>
      </trkpt>
      <trkpt lat="51.47553" lon="3.63643">
        <ele>0.84</ele>
        <time>2021-04-09T10:36:19Z</time>
      </trkpt>
      <trkpt lat="51.47544" lon="3.63619">
        <ele>-0.65</ele>
        <time>2021-04-09T10:36:21Z</time>
      </trkpt>
      <trkpt lat="51.47535" lon="3.63579">
        <ele>-1</ele>
        <time>2021-04-09T10:36:24Z</time>
      </trkpt>
      <trkpt lat="51.47532" lon="3.63543">
        <ele>-0.53</ele>
        <time>2021-04-09T10:36:27Z</time>
      </trkpt>
      <trkpt lat="51.47534" lon="3.63525">
        <ele>1</ele>
        <time>2021-04-09T10:36:29Z</time>
      </trkpt>
      <trkpt lat="51.47538" lon="3.63509">
        <ele>1</ele>
        <time>2021-04-09T10:36:32Z</time>
      </trkpt>
      <trkpt lat="51.47546" lon="3.63491">
        <ele>0.11</ele>
        <time>2021-04-09T10:36:34Z</time>
      </trkpt>
      <trkpt lat="51.47555" lon="3.63479">
        <ele>0.71</ele>
        <time>2021-04-09T10:36:37Z</time>
      </trkpt>
      <trkpt lat="51.47566" lon="3.6347">
        <ele>1.37</ele>
        <time>2021-04-09T10:36:39Z</time>
      </trkpt>
      <trkpt lat="51.47578" lon="3.63466">
        <ele>1.82</ele>
        <time>2021-04-09T10:36:42Z</time>
      </trkpt>
      <trkpt lat="51.4759" lon="3.63467">
        <ele>1.75</ele>
        <time>2021-04-09T10:36:44Z</time>
      </trkpt>
      <trkpt lat="51.47601" lon="3.63471">
        <ele>1.38</ele>
        <time>2021-04-09T10:36:47Z</time>
      </trkpt>
      <trkpt lat="51.47609" lon="3.63477">
        <ele>0.89</ele>
        <time>2021-04-09T10:36:50Z</time>
      </trkpt>
      <trkpt lat="51.47619" lon="3.63489">
        <ele>0.03</ele>
        <time>2021-04-09T10:36:52Z</time>
      </trkpt>
      <trkpt lat="51.47627" lon="3.63504">
        <ele>-0.56</ele>
        <time>2021-04-09T10:36:55Z</time>
      </trkpt>
      <trkpt lat="51.4766" lon="3.63596">
        <ele>1.47</ele>
        <time>2021-04-09T10:36:57Z</time>
      </trkpt>
      <trkpt lat="51.47911" lon="3.64567">
        <ele>-3.2</ele>
        <time>2021-04-09T10:37:00Z</time>
      </trkpt>
      <trkpt lat="51.47927" lon="3.6466">
        <ele>-4.72</ele>
        <time>2021-04-09T10:37:05Z</time>
      </trkpt>
      <trkpt lat="51.4795" lon="3.64766">
        <ele>-2.15</ele>
        <time>2021-04-09T10:37:10Z</time>
      </trkpt>
      <trkpt lat="51.47956" lon="3.64808">
        <ele>-1.54</ele>
        <time>2021-04-09T10:37:16Z</time>
      </trkpt>
      <trkpt lat="51.47959" lon="3.64848">
        <ele>-0.76</ele>
        <time>2021-04-09T10:37:21Z</time>
      </trkpt>
      <trkpt lat="51.47959" lon="3.64872">
        <ele>-0.14</ele>
        <time>2021-04-09T10:37:26Z</time>
      </trkpt>
      <trkpt lat="51.47953" lon="3.64925">
        <ele>0.78</ele>
        <time>2021-04-09T10:37:31Z</time>
      </trkpt>
      <trkpt lat="51.47948" lon="3.64949">
        <ele>1</ele>
        <time>2021-04-09T10:37:37Z</time>
      </trkpt>
      <trkpt lat="51.47939" lon="3.64981">
        <ele>0.74</ele>
        <time>2021-04-09T10:37:42Z</time>
      </trkpt>
      <trkpt lat="51.47915" lon="3.6505">
        <ele>-0.28</ele>
        <time>2021-04-09T10:37:47Z</time>
      </trkpt>
      <trkpt lat="51.47906" lon="3.65088">
        <ele>-0.32</ele>
        <time>2021-04-09T10:37:52Z</time>
      </trkpt>
      <trkpt lat="51.47903" lon="3.65126">
        <ele>1</ele>
        <time>2021-04-09T10:37:58Z</time>
      </trkpt>
      <trkpt lat="51.47908" lon="3.65163">
        <ele>1</ele>
        <time>2021-04-09T10:38:03Z</time>
      </trkpt>
      <trkpt lat="51.47919" lon="3.65197">
        <ele>0.1</ele>
        <time>2021-04-09T10:38:08Z</time>
      </trkpt>
      <trkpt lat="51.47932" lon="3.6522">
        <ele>0.93</ele>
        <time>2021-04-09T10:38:13Z</time>
      </trkpt>
      <trkpt lat="51.47953" lon="3.65241">
        <ele>1</ele>
        <time>2021-04-09T10:38:19Z</time>
      </trkpt>
      <trkpt lat="51.47968" lon="3.65248">
        <ele>1</ele>
        <time>2021-04-09T10:38:24Z</time>
      </trkpt>
      <trkpt lat="51.47982" lon="3.6525">
        <ele>1</ele>
        <time>2021-04-09T10:38:29Z</time>
      </trkpt>
      <trkpt lat="51.48013" lon="3.65243">
        <ele>1</ele>
        <time>2021-04-09T10:38:34Z</time>
      </trkpt>
      <trkpt lat="51.48031" lon="3.65234">
        <ele>0.87</ele>
        <time>2021-04-09T10:38:40Z</time>
      </trkpt>
      <trkpt lat="51.48174" lon="3.6514">
        <ele>1.32</ele>
        <time>2021-04-09T10:38:45Z</time>
      </trkpt>
      <trkpt lat="51.48218" lon="3.65108">
        <ele>3.55</ele>
        <time>2021-04-09T10:38:50Z</time>
      </trkpt>
      <trkpt lat="51.48347" lon="3.65">
        <ele>1</ele>
        <time>2021-04-09T10:38:55Z</time>
      </trkpt>
      <trkpt lat="51.48495" lon="3.64862">
        <ele>-0.89</ele>
        <time>2021-04-09T10:39:01Z</time>
      </trkpt>
      <trkpt lat="51.48569" lon="3.64784">
        <ele>-0.5</ele>
        <time>2021-04-09T10:39:06Z</time>
      </trkpt>
      <trkpt lat="51.48677" lon="3.64661">
        <ele>0.8</ele>
        <time>2021-04-09T10:39:11Z</time>
      </trkpt>
      <trkpt lat="51.4877" lon="3.64544">
        <ele>0.83</ele>
        <time>2021-04-09T10:39:16Z</time>
      </trkpt>
      <trkpt lat="51.4885" lon="3.64437">
        <ele>-0.58</ele>
        <time>2021-04-09T10:39:22Z</time>
      </trkpt>
      <trkpt lat="51.48877" lon="3.64397">
        <ele>-1</ele>
        <time>2021-04-09T10:39:27Z</time>
      </trkpt>
      <trkpt lat="51.49003" lon="3.64198">
        <ele>0.91</ele>
        <time>2021-04-09T10:39:32Z</time>
      </trkpt>
      <trkpt lat="51.49269" lon="3.63761">
        <ele>0.73</ele>
        <time>2021-04-09T10:39:37Z</time>
      </trkpt>
      <trkpt lat="51.49421" lon="3.63516">
        <ele>1.72</ele>
        <time>2021-04-09T10:39:43Z</time>
      </trkpt>
      <trkpt lat="51.49482" lon="3.63433">
        <ele>1.37</ele>
        <time>2021-04-09T10:39:48Z</time>
      </trkpt>
      <trkpt lat="51.49537" lon="3.63378">
        <ele>2</ele>
        <time>2021-04-09T10:39:53Z</time>
      </trkpt>
      <trkpt lat="51.49577" lon="3.63347">
        <ele>2</ele>
        <time>2021-04-09T10:39:58Z</time>
      </trkpt>
      <trkpt lat="51.49604" lon="3.63331">
        <ele>2.73</ele>
        <time>2021-04-09T10:40:03Z</time>
      </trkpt>
      <trkpt lat="51.49644" lon="3.63312">
        <ele>3.59</ele>
        <time>2021-04-09T10:40:09Z</time>
      </trkpt>
      <trkpt lat="51.49712" lon="3.63292">
        <ele>3.47</ele>
        <time>2021-04-09T10:40:14Z</time>
      </trkpt>
      <trkpt lat="51.49778" lon="3.63287">
        <ele>1</ele>
        <time>2021-04-09T10:40:19Z</time>
      </trkpt>
      <trkpt lat="51.50063" lon="3.63302">
        <ele>4.79</ele>
        <time>2021-04-09T10:40:24Z</time>
      </trkpt>
      <trkpt lat="51.50206" lon="3.63312">
        <ele>-0.12</ele>
        <time>2021-04-09T10:40:30Z</time>
      </trkpt>
      <trkpt lat="51.50688" lon="3.63338">
        <ele>-2</ele>
        <time>2021-04-09T10:40:35Z</time>
      </trkpt>
      <trkpt lat="51.50764" lon="3.63332">
        <ele>-2.96</ele>
        <time>2021-04-09T10:40:40Z</time>
      </trkpt>
      <trkpt lat="51.50849" lon="3.63318">
        <ele>-2.72</ele>
        <time>2021-04-09T10:40:45Z</time>
      </trkpt>
      <trkpt lat="51.50914" lon="3.633">
        <ele>-2.17</ele>
        <time>2021-04-09T10:40:51Z</time>
      </trkpt>
      <trkpt lat="51.50975" lon="3.63278">
        <ele>-3</ele>
        <time>2021-04-09T10:40:56Z</time>
      </trkpt>
      <trkpt lat="51.51063" lon="3.63239">
        <ele>-1.74</ele>
        <time>2021-04-09T10:41:01Z</time>
      </trkpt>
      <trkpt lat="51.51112" lon="3.63213">
        <ele>-0.65</ele>
        <time>2021-04-09T10:41:06Z</time>
      </trkpt>
      <trkpt lat="51.51188" lon="3.63163">
        <ele>-0.8</ele>
        <time>2021-04-09T10:41:12Z</time>
      </trkpt>
      <trkpt lat="51.5123" lon="3.6313">
        <ele>-1</ele>
        <time>2021-04-09T10:41:17Z</time>
      </trkpt>
      <trkpt lat="51.51292" lon="3.63077">
        <ele>-0.5</ele>
        <time>2021-04-09T10:41:22Z</time>
      </trkpt>
      <trkpt lat="51.51386" lon="3.62984">
        <ele>-2.54</ele>
        <time>2021-04-09T10:41:27Z</time>
      </trkpt>
      <trkpt lat="51.51422" lon="3.62943">
        <ele>-0.94</ele>
        <time>2021-04-09T10:41:33Z</time>
      </trkpt>
      <trkpt lat="51.51479" lon="3.6287">
        <ele>-0.48</ele>
        <time>2021-04-09T10:41:38Z</time>
      </trkpt>
      <trkpt lat="51.51542" lon="3.62779">
        <ele>-2.02</ele>
        <time>2021-04-09T10:41:43Z</time>
      </trkpt>
      <trkpt lat="51.51608" lon="3.6267">
        <ele>-3.1</ele>
        <time>2021-04-09T10:41:48Z</time>
      </trkpt>
      <trkpt lat="51.51938" lon="3.62077">
        <ele>-1</ele>
        <time>2021-04-09T10:41:54Z</time>
      </trkpt>
      <trkpt lat="51.51962" lon="3.62039">
        <ele>-1.59</ele>
        <time>2021-04-09T10:41:59Z</time>
      </trkpt>
      <trkpt lat="51.51972" lon="3.62042">
        <ele>-1.49</ele>
        <time>2021-04-09T10:42:07Z</time>
      </trkpt>
      <trkpt lat="51.51981" lon="3.62035">
        <ele>-2.05</ele>
        <time>2021-04-09T10:42:15Z</time>
      </trkpt>
      <trkpt lat="51.51985" lon="3.62026">
        <ele>-2.45</ele>
        <time>2021-04-09T10:42:23Z</time>
      </trkpt>
      <trkpt lat="51.51986" lon="3.62015">
        <ele>-2.5</ele>
        <time>2021-04-09T10:42:31Z</time>
      </trkpt>
      <trkpt lat="51.51983" lon="3.62">
        <ele>-2.41</ele>
        <time>2021-04-09T10:42:39Z</time>
      </trkpt>
      <trkpt lat="51.52031" lon="3.61903">
        <ele>-1</ele>
        <time>2021-04-09T10:42:47Z</time>
      </trkpt>
      <trkpt lat="51.52127" lon="3.61736">
        <ele>-1</ele>
        <time>2021-04-09T10:42:55Z</time>
      </trkpt>
      <trkpt lat="51.5217" lon="3.61674">
        <ele>1</ele>
        <time>2021-04-09T10:43:03Z</time>
      </trkpt>
      <trkpt lat="51.52216" lon="3.61617">
        <time>2021-04-09T10:43:11Z</time>
      </trkpt>
      <trkpt lat="51.52265" lon="3.61568">
        <ele>-1</ele>
        <time>2021-04-09T10:43:19Z</time>
      </trkpt>
      <trkpt lat="51.52292" lon="3.61545">
        <ele>-1.31</ele>
        <time>2021-04-09T10:43:27Z</time>
      </trkpt>
      <trkpt lat="51.5236" lon="3.61498">
        <ele>-1.11</ele>
        <time>2021-04-09T10:43:35Z</time>
      </trkpt>
      <trkpt lat="51.52434" lon="3.6146">
        <ele>-1.61</ele>
        <time>2021-04-09T10:43:43Z</time>
      </trkpt>
      <trkpt lat="51.52743" lon="3.61327">
        <ele>-2.1</ele>
        <time>2021-04-09T10:43:51Z</time>
      </trkpt>
      <trkpt lat="51.53056" lon="3.61188">
        <ele>-1.73</ele>
        <time>2021-04-09T10:43:59Z</time>
      </trkpt>
      <trkpt lat="51.53294" lon="3.61079">
        <ele>-2.58</ele>
        <time>2021-04-09T10:44:07Z</time>
      </trkpt>
      <trkpt lat="51.53538" lon="3.60964">
        <ele>-1.55</ele>
        <time>2021-04-09T10:44:15Z</time>
      </trkpt>
      <trkpt lat="51.53733" lon="3.60867">
        <ele>-1.92</ele>
        <time>2021-04-09T10:44:23Z</time>
      </trkpt>
      <trkpt lat="51.53898" lon="3.6078">
        <ele>-0.37</ele>
        <time>2021-04-09T10:44:31Z</time>
      </trkpt>
      <trkpt lat="51.54067" lon="3.60688">
        <ele>-2</ele>
        <time>2021-04-09T10:44:39Z</time>
      </trkpt>
      <trkpt lat="51.54278" lon="3.60567">
        <ele>-1.01</ele>
        <time>2021-04-09T10:44:47Z</time>
      </trkpt>
      <trkpt lat="51.54316" lon="3.60552">
        <ele>0.86</ele>
        <time>2021-04-09T10:44:55Z</time>
      </trkpt>
      <trkpt lat="51.54324" lon="3.60562">
        <ele>1</ele>
        <time>2021-04-09T10:45:01Z</time>
      </trkpt>
      <trkpt lat="51.54333" lon="3.60564">
        <ele>1</ele>
        <time>2021-04-09T10:45:07Z</time>
      </trkpt>
      <trkpt lat="51.54341" lon="3.60558">
        <ele>0.43</ele>
        <time>2021-04-09T10:45:13Z</time>
      </trkpt>
      <trkpt lat="51.54346" lon="3.60551">
        <ele>0.02</ele>
        <time>2021-04-09T10:45:19Z</time>
      </trkpt>
      <trkpt lat="51.54348" lon="3.60541">
        <ele>-0.29</ele>
        <time>2021-04-09T10:45:25Z</time>
      </trkpt>
      <trkpt lat="51.54391" lon="3.60522">
        <ele>-0.8</ele>
        <time>2021-04-09T10:45:31Z</time>
      </trkpt>
      <trkpt lat="51.54529" lon="3.60486">
        <ele>0.48</ele>
        <time>2021-04-09T10:45:37Z</time>
      </trkpt>
      <trkpt lat="51.54605" lon="3.60463">
        <ele>-1.78</ele>
        <time>2021-04-09T10:45:43Z</time>
      </trkpt>
      <trkpt lat="51.54795" lon="3.60396">
        <ele>-0.86</ele>
        <time>2021-04-09T10:45:49Z</time>
      </trkpt>
      <trkpt lat="51.54935" lon="3.60338">
        <ele>-0.36</ele>
        <time>2021-04-09T10:45:55Z</time>
      </trkpt>
      <trkpt lat="51.55111" lon="3.60252">
        <ele>-1.07</ele>
        <time>2021-04-09T10:46:01Z</time>
      </trkpt>
      <trkpt lat="51.55218" lon="3.60194">
        <ele>0.17</ele>
        <time>2021-04-09T10:46:07Z</time>
      </trkpt>
      <trkpt lat="51.55424" lon="3.60075">
        <ele>1</ele>
        <time>2021-04-09T10:46:13Z</time>
      </trkpt>
      <trkpt lat="51.55492" lon="3.60041">
        <ele>-0.72</ele>
        <time>2021-04-09T10:46:19Z</time>
      </trkpt>
      <trkpt lat="51.55575" lon="3.60005">
        <ele>1</ele>
        <time>2021-04-09T10:46:25Z</time>
      </trkpt>
      <trkpt lat="51.55661" lon="3.59973">
        <ele>1</ele>
        <time>2021-04-09T10:46:31Z</time>
      </trkpt>
      <trkpt lat="51.55711" lon="3.59956">
        <ele>1</ele>
        <time>2021-04-09T10:46:37Z</time>
      </trkpt>
      <trkpt lat="51.55754" lon="3.59952">
        <ele>-0.85</ele>
        <time>2021-04-09T10:46:43Z</time>
      </trkpt>
      <trkpt lat="51.55756" lon="3.59958">
        <ele>-0.77</ele>
        <time>2021-04-09T10:46:48Z</time>
      </trkpt>
      <trkpt lat="51.55763" lon="3.59965">
        <ele>-0.52</ele>
        <time>2021-04-09T10:46:53Z</time>
      </trkpt>
      <trkpt lat="51.55773" lon="3.59965">
        <ele>-0.19</ele>
        <time>2021-04-09T10:46:58Z</time>
      </trkpt>
      <trkpt lat="51.55781" lon="3.59956">
        <ele>1</ele>
        <time>2021-04-09T10:47:03Z</time>
      </trkpt>
      <trkpt lat="51.55822" lon="3.59963">
        <ele>1</ele>
        <time>2021-04-09T10:47:08Z</time>
      </trkpt>
      <trkpt lat="51.55968" lon="3.60029">
        <ele>-0.95</ele>
        <time>2021-04-09T10:47:13Z</time>
      </trkpt>
      <trkpt lat="51.56008" lon="3.60053">
        <ele>-0.73</ele>
        <time>2021-04-09T10:47:18Z</time>
      </trkpt>
      <trkpt lat="51.56045" lon="3.60082">
        <ele>1</ele>
        <time>2021-04-09T10:47:22Z</time>
      </trkpt>
      <trkpt lat="51.56081" lon="3.60117">
        <ele>1</ele>
        <time>2021-04-09T10:47:27Z</time>
      </trkpt>
      <trkpt lat="51.56113" lon="3.60153">
        <ele>-1</ele>
        <time>2021-04-09T10:47:32Z</time>
      </trkpt>
      <trkpt lat="51.56136" lon="3.60183">
        <ele>-1</ele>
        <time>2021-04-09T10:47:37Z</time>
      </trkpt>
      <trkpt lat="51.56163" lon="3.60223">
        <ele>-1</ele>
        <time>2021-04-09T10:47:42Z</time>
      </trkpt>
      <trkpt lat="51.56188" lon="3.60267">
        <ele>-0.55</ele>
        <time>2021-04-09T10:47:47Z</time>
      </trkpt>
      <trkpt lat="51.56336" lon="3.6056">
        <ele>1</ele>
        <time>2021-04-09T10:47:52Z</time>
      </trkpt>
      <trkpt lat="51.56382" lon="3.60647">
        <ele>0.28</ele>
        <time>2021-04-09T10:47:57Z</time>
      </trkpt>
      <trkpt lat="51.56492" lon="3.60863">
        <ele>0.06</ele>
        <time>2021-04-09T10:48:02Z</time>
      </trkpt>
      <trkpt lat="51.56541" lon="3.60954">
        <ele>0.53</ele>
        <time>2021-04-09T10:48:07Z</time>
      </trkpt>
      <trkpt lat="51.56559" lon="3.60983">
        <ele>1</ele>
        <time>2021-04-09T10:48:12Z</time>
      </trkpt>
      <trkpt lat="51.56621" lon="3.61066">
        <ele>1</ele>
        <time>2021-04-09T10:48:16Z</time>
      </trkpt>
      <trkpt lat="51.56667" lon="3.61112">
        <ele>1</ele>
        <time>2021-04-09T10:48:21Z</time>
      </trkpt>
      <trkpt lat="51.56716" lon="3.61153">
        <ele>1</ele>
        <time>2021-04-09T10:48:26Z</time>
      </trkpt>
      <trkpt lat="51.56751" lon="3.61175">
        <ele>1</ele>
        <time>2021-04-09T10:48:31Z</time>
      </trkpt>
      <trkpt lat="51.56863" lon="3.61235">
        <ele>0.94</ele>
        <time>2021-04-09T10:48:36Z</time>
      </trkpt>
      <trkpt lat="51.5689" lon="3.61252">
        <ele>0.08</ele>
        <time>2021-04-09T10:48:41Z</time>
      </trkpt>
      <trkpt lat="51.5693" lon="3.61284">
        <ele>1</ele>
        <time>2021-04-09T10:48:46Z</time>
      </trkpt>
      <trkpt lat="51.56949" lon="3.61303">
        <ele>1</ele>
        <time>2021-04-09T10:48:51Z</time>
      </trkpt>
      <trkpt lat="51.5699" lon="3.61348">
        <ele>1</ele>
        <time>2021-04-09T10:48:56Z</time>
      </trkpt>
      <trkpt lat="51.57019" lon="3.61385">
        <ele>2.52</ele>
        <time>2021-04-09T10:49:01Z</time>
      </trkpt>
      <trkpt lat="51.57357" lon="3.61882">
        <ele>-0.62</ele>
        <time>2021-04-09T10:49:06Z</time>
      </trkpt>
      <trkpt lat="51.57386" lon="3.6192">
        <ele>-0.89</ele>
        <time>2021-04-09T10:49:10Z</time>
      </trkpt>
      <trkpt lat="51.57433" lon="3.61969">
        <ele>1</ele>
        <time>2021-04-09T10:49:15Z</time>
      </trkpt>
      <trkpt lat="51.57432" lon="3.61978">
        <ele>1</ele>
        <time>2021-04-09T10:49:16Z</time>
      </trkpt>
      <trkpt lat="51.57434" lon="3.61987">
        <ele>1</ele>
        <time>2021-04-09T10:49:17Z</time>
      </trkpt>
      <trkpt lat="51.57437" lon="3.61995">
        <ele>1</ele>
        <time>2021-04-09T10:49:18Z</time>
      </trkpt>
      <trkpt lat="51.57442" lon="3.62001">
        <ele>1</ele>
        <time>2021-04-09T10:49:19Z</time>
      </trkpt>
      <trkpt lat="51.57451" lon="3.62003">
        <ele>0.24</ele>
        <time>2021-04-09T10:49:20Z</time>
      </trkpt>
      <trkpt lat="51.5746" lon="3.61998">
        <ele>0.56</ele>
        <time>2021-04-09T10:49:20Z</time>
      </trkpt>
      <trkpt lat="51.57463" lon="3.61992">
        <ele>0.68</ele>
        <time>2021-04-09T10:49:21Z</time>
      </trkpt>
      <trkpt lat="51.57467" lon="3.61979">
        <ele>0.79</ele>
        <time>2021-04-09T10:49:22Z</time>
      </trkpt>
      <trkpt lat="51.57465" lon="3.61964">
        <ele>0.73</ele>
        <time>2021-04-09T10:49:23Z</time>
      </trkpt>
      <trkpt lat="51.57458" lon="3.61952">
        <ele>0.49</ele>
        <time>2021-04-09T10:49:24Z</time>
      </trkpt>
      <trkpt lat="51.57463" lon="3.6193">
        <ele>0.84</ele>
        <time>2021-04-09T10:49:25Z</time>
      </trkpt>
      <trkpt lat="51.57463" lon="3.61916">
        <ele>1</ele>
        <time>2021-04-09T10:49:26Z</time>
      </trkpt>
      <trkpt lat="51.5747" lon="3.61921">
        <ele>0.99</ele>
        <time>2021-04-09T10:49:32Z</time>
      </trkpt>
      <trkpt lat="51.57482" lon="3.61936">
        <ele>1</ele>
        <time>2021-04-09T10:49:39Z</time>
      </trkpt>
      <trkpt lat="51.57495" lon="3.61969">
        <ele>1</ele>
        <time>2021-04-09T10:49:46Z</time>
      </trkpt>
      <trkpt lat="51.57499" lon="3.61976">
        <ele>1</ele>
        <time>2021-04-09T10:49:53Z</time>
      </trkpt>
      <trkpt lat="51.57791" lon="3.6215">
        <ele>0.52</ele>
        <time>2021-04-09T10:50:00Z</time>
      </trkpt>
      <trkpt lat="51.58194" lon="3.62388">
        <ele>1</ele>
        <time>2021-04-09T10:50:07Z</time>
      </trkpt>
      <trkpt lat="51.58255" lon="3.62432">
        <ele>2.55</ele>
        <time>2021-04-09T10:50:13Z</time>
      </trkpt>
      <trkpt lat="51.58315" lon="3.62485">
        <ele>3.78</ele>
        <time>2021-04-09T10:50:20Z</time>
      </trkpt>
      <trkpt lat="51.58351" lon="3.62525">
        <ele>4.96</ele>
        <time>2021-04-09T10:50:27Z</time>
      </trkpt>
      <trkpt lat="51.5837" lon="3.62549">
        <ele>5.24</ele>
        <time>2021-04-09T10:50:34Z</time>
      </trkpt>
      <trkpt lat="51.58468" lon="3.62691">
        <ele>3.71</ele>
        <time>2021-04-09T10:50:41Z</time>
      </trkpt>
      <trkpt lat="51.58509" lon="3.62758">
        <ele>4.03</ele>
        <time>2021-04-09T10:50:48Z</time>
      </trkpt>
      <trkpt lat="51.58519" lon="3.62769">
        <ele>4.01</ele>
        <time>2021-04-09T10:50:54Z</time>
      </trkpt>
      <trkpt lat="51.58544" lon="3.62787">
        <ele>4.95</ele>
        <time>2021-04-09T10:51:01Z</time>
      </trkpt>
      <trkpt lat="51.58551" lon="3.62802">
        <ele>4.93</ele>
        <time>2021-04-09T10:51:08Z</time>
      </trkpt>
      <trkpt lat="51.58551" lon="3.62812">
        <ele>4.63</ele>
        <time>2021-04-09T10:51:15Z</time>
      </trkpt>
      <trkpt lat="51.58549" lon="3.62823">
        <ele>4.27</ele>
        <time>2021-04-09T10:51:22Z</time>
      </trkpt>
      <trkpt lat="51.5851" lon="3.62873">
        <ele>2.73</ele>
        <time>2021-04-09T10:51:29Z</time>
      </trkpt>
      <trkpt lat="51.58509" lon="3.62887">
        <ele>2.64</ele>
        <time>2021-04-09T10:51:35Z</time>
      </trkpt>
      <trkpt lat="51.5851" lon="3.62893">
        <ele>2.67</ele>
        <time>2021-04-09T10:51:42Z</time>
      </trkpt>
      <trkpt lat="51.58511" lon="3.62898">
        <ele>2.66</ele>
        <time>2021-04-09T10:51:49Z</time>
      </trkpt>
      <trkpt lat="51.58517" lon="3.62909">
        <ele>2.75</ele>
        <time>2021-04-09T10:51:56Z</time>
      </trkpt>
      <trkpt lat="51.58559" lon="3.62977">
        <ele>3.1</ele>
        <time>2021-04-09T10:52:03Z</time>
      </trkpt>
      <trkpt lat="51.58578" lon="3.63012">
        <ele>3</ele>
        <time>2021-04-09T10:52:10Z</time>
      </trkpt>
      <trkpt lat="51.58623" lon="3.63142">
        <ele>3.77</ele>
        <time>2021-04-09T10:52:16Z</time>
      </trkpt>
      <trkpt lat="51.58643" lon="3.63204">
        <ele>4.07</ele>
        <time>2021-04-09T10:52:23Z</time>
      </trkpt>
      <trkpt lat="51.58812" lon="3.63807">
        <ele>4.2</ele>
        <time>2021-04-09T10:52:30Z</time>
      </trkpt>
      <trkpt lat="51.58827" lon="3.63866">
        <ele>3.85</ele>
        <time>2021-04-09T10:52:37Z</time>
      </trkpt>
      <trkpt lat="51.5884" lon="3.63921">
        <ele>3.41</ele>
        <time>2021-04-09T10:52:44Z</time>
      </trkpt>
      <trkpt lat="51.58878" lon="3.64103">
        <ele>2.79</ele>
        <time>2021-04-09T10:52:50Z</time>
      </trkpt>
      <trkpt lat="51.589" lon="3.64239">
        <ele>4.74</ele>
        <time>2021-04-09T10:52:57Z</time>
      </trkpt>
      <trkpt lat="51.58901" lon="3.64291">
        <ele>3.79</ele>
        <time>2021-04-09T10:53:04Z</time>
      </trkpt>
      <trkpt lat="51.589" lon="3.64362">
        <ele>2.16</ele>
        <time>2021-04-09T10:53:11Z</time>
      </trkpt>
      <trkpt lat="51.58902" lon="3.64396">
        <ele>1.91</ele>
        <time>2021-04-09T10:53:18Z</time>
      </trkpt>
      <trkpt lat="51.58912" lon="3.64469">
        <ele>1.83</ele>
        <time>2021-04-09T10:53:25Z</time>
      </trkpt>
      <trkpt lat="51.5892" lon="3.64496">
        <ele>2.02</ele>
        <time>2021-04-09T10:53:31Z</time>
      </trkpt>
      <trkpt lat="51.58922" lon="3.64526">
        <ele>2</ele>
        <time>2021-04-09T10:53:38Z</time>
      </trkpt>
      <trkpt lat="51.58941" lon="3.64645">
        <ele>1.9</ele>
        <time>2021-04-09T10:53:45Z</time>
      </trkpt>
      <trkpt lat="51.58944" lon="3.6469">
        <ele>2</ele>
        <time>2021-04-09T10:53:52Z</time>
      </trkpt>
      <trkpt lat="51.58952" lon="3.65802">
        <ele>1.16</ele>
        <time>2021-04-09T10:53:59Z</time>
      </trkpt>
      <trkpt lat="51.58951" lon="3.65931">
        <ele>1.76</ele>
        <time>2021-04-09T10:54:06Z</time>
      </trkpt>
      <trkpt lat="51.58949" lon="3.65995">
        <ele>2.97</ele>
        <time>2021-04-09T10:54:12Z</time>
      </trkpt>
      <trkpt lat="51.58942" lon="3.66064">
        <ele>2.92</ele>
        <time>2021-04-09T10:54:19Z</time>
      </trkpt>
      <trkpt lat="51.58904" lon="3.66307">
        <ele>3.56</ele>
        <time>2021-04-09T10:54:26Z</time>
      </trkpt>
      <trkpt lat="51.58899" lon="3.66306">
        <ele>3.38</ele>
        <time>2021-04-09T10:54:30Z</time>
      </trkpt>
      <trkpt lat="51.58895" lon="3.66309">
        <ele>3.21</ele>
        <time>2021-04-09T10:54:34Z</time>
      </trkpt>
      <trkpt lat="51.58891" lon="3.66314">
        <ele>3.07</ele>
        <time>2021-04-09T10:54:38Z</time>
      </trkpt>
      <trkpt lat="51.58889" lon="3.66322">
        <ele>3</ele>
        <time>2021-04-09T10:54:42Z</time>
      </trkpt>
      <trkpt lat="51.58891" lon="3.66336">
        <ele>3.06</ele>
        <time>2021-04-09T10:54:46Z</time>
      </trkpt>
      <trkpt lat="51.58898" lon="3.66345">
        <ele>3.33</ele>
        <time>2021-04-09T10:54:50Z</time>
      </trkpt>
      <trkpt lat="51.58887" lon="3.66439">
        <ele>2.1</ele>
        <time>2021-04-09T10:54:54Z</time>
      </trkpt>
      <trkpt lat="51.58875" lon="3.6651">
        <ele>1.5</ele>
        <time>2021-04-09T10:54:58Z</time>
      </trkpt>
      <trkpt lat="51.58846" lon="3.66662">
        <ele>1.26</ele>
        <time>2021-04-09T10:55:02Z</time>
      </trkpt>
      <trkpt lat="51.58828" lon="3.6674">
        <ele>1.82</ele>
        <time>2021-04-09T10:55:06Z</time>
      </trkpt>
      <trkpt lat="51.58797" lon="3.66925">
        <ele>1.89</ele>
        <time>2021-04-09T10:55:10Z</time>
      </trkpt>
      <trkpt lat="51.58791" lon="3.66987">
        <ele>1.96</ele>
        <time>2021-04-09T10:55:14Z</time>
      </trkpt>
      <trkpt lat="51.58771" lon="3.67131">
        <ele>0.75</ele>
        <time>2021-04-09T10:55:18Z</time>
      </trkpt>
      <trkpt lat="51.58738" lon="3.67345">
        <ele>3.9</ele>
        <time>2021-04-09T10:55:22Z</time>
      </trkpt>
      <trkpt lat="51.58738" lon="3.67374">
        <ele>3.12</ele>
        <time>2021-04-09T10:55:26Z</time>
      </trkpt>
      <trkpt lat="51.58743" lon="3.67409">
        <ele>2.75</ele>
        <time>2021-04-09T10:55:31Z</time>
      </trkpt>
      <trkpt lat="51.58754" lon="3.67444">
        <ele>1.85</ele>
        <time>2021-04-09T10:55:35Z</time>
      </trkpt>
      <trkpt lat="51.58763" lon="3.67462">
        <ele>1.53</ele>
        <time>2021-04-09T10:55:39Z</time>
      </trkpt>
      <trkpt lat="51.58772" lon="3.67476">
        <ele>1.35</ele>
        <time>2021-04-09T10:55:43Z</time>
      </trkpt>
      <trkpt lat="51.58796" lon="3.6751">
        <ele>2</ele>
        <time>2021-04-09T10:55:47Z</time>
      </trkpt>
      <trkpt lat="51.5882" lon="3.67481">
        <ele>2</ele>
        <time>2021-04-09T10:55:51Z</time>
      </trkpt>
      <trkpt lat="51.58861" lon="3.67448">
        <ele>2</ele>
        <time>2021-04-09T10:55:54Z</time>
      </trkpt>
      <trkpt lat="51.58867" lon="3.67453">
        <ele>2</ele>
        <time>2021-04-09T10:56:05Z</time>
      </trkpt>
      <trkpt lat="51.58874" lon="3.67454">
        <ele>2</ele>
        <time>2021-04-09T10:56:16Z</time>
      </trkpt>
      <trkpt lat="51.58943" lon="3.67603">
        <ele>0.3</ele>
        <time>2021-04-09T10:56:27Z</time>
      </trkpt>
      <trkpt lat="51.58974" lon="3.67653">
        <ele>0.63</ele>
        <time>2021-04-09T10:56:38Z</time>
      </trkpt>
      <trkpt lat="51.5902" lon="3.67714">
        <ele>2.01</ele>
        <time>2021-04-09T10:56:49Z</time>
      </trkpt>
      <trkpt lat="51.59056" lon="3.67753">
        <ele>0.91</ele>
        <time>2021-04-09T10:57:00Z</time>
      </trkpt>
      <trkpt lat="51.5911" lon="3.67798">
        <ele>1.95</ele>
        <time>2021-04-09T10:57:11Z</time>
      </trkpt>
      <trkpt lat="51.59579" lon="3.68091">
        <ele>3.58</ele>
        <time>2021-04-09T10:57:22Z</time>
      </trkpt>
      <trkpt lat="51.59703" lon="3.68149">
        <ele>6.93</ele>
        <time>2021-04-09T10:57:32Z</time>
      </trkpt>
      <trkpt lat="51.59784" lon="3.68176">
        <ele>8</ele>
        <time>2021-04-09T10:57:43Z</time>
      </trkpt>
      <trkpt lat="51.59889" lon="3.68199">
        <ele>10.98</ele>
        <time>2021-04-09T10:57:54Z</time>
      </trkpt>
      <trkpt lat="51.60098" lon="3.68232">
        <ele>2.19</ele>
        <time>2021-04-09T10:58:05Z</time>
      </trkpt>
      <trkpt lat="51.61811" lon="3.68465">
        <ele>10.88</ele>
        <time>2021-04-09T10:58:16Z</time>
      </trkpt>
      <trkpt lat="51.62011" lon="3.68495">
        <ele>12.75</ele>
        <time>2021-04-09T10:58:27Z</time>
      </trkpt>
      <trkpt lat="51.62078" lon="3.68514">
        <ele>11.69</ele>
        <time>2021-04-09T10:58:38Z</time>
      </trkpt>
      <trkpt lat="51.62159" lon="3.68543">
        <ele>9.07</ele>
        <time>2021-04-09T10:58:49Z</time>
      </trkpt>
      <trkpt lat="51.62232" lon="3.68578">
        <ele>9.48</ele>
        <time>2021-04-09T10:59:00Z</time>
      </trkpt>
      <trkpt lat="51.62312" lon="3.68624">
        <ele>9.77</ele>
        <time>2021-04-09T10:59:11Z</time>
      </trkpt>
      <trkpt lat="51.6236" lon="3.68656">
        <ele>9.02</ele>
        <time>2021-04-09T10:59:21Z</time>
      </trkpt>
      <trkpt lat="51.6242" lon="3.687">
        <ele>6.7</ele>
        <time>2021-04-09T10:59:32Z</time>
      </trkpt>
      <trkpt lat="51.6251" lon="3.68779">
        <ele>6.36</ele>
        <time>2021-04-09T10:59:43Z</time>
      </trkpt>
      <trkpt lat="51.62584" lon="3.68855">
        <ele>8.02</ele>
        <time>2021-04-09T10:59:54Z</time>
      </trkpt>
      <trkpt lat="51.62652" lon="3.68935">
        <ele>8.65</ele>
        <time>2021-04-09T11:00:05Z</time>
      </trkpt>
      <trkpt lat="51.62727" lon="3.69037">
        <ele>9.73</ele>
        <time>2021-04-09T11:00:16Z</time>
      </trkpt>
      <trkpt lat="51.62813" lon="3.69161">
        <ele>8.42</ele>
        <time>2021-04-09T11:00:27Z</time>
      </trkpt>
      <trkpt lat="51.62913" lon="3.69316">
        <ele>6.53</ele>
        <time>2021-04-09T11:00:38Z</time>
      </trkpt>
      <trkpt lat="51.63052" lon="3.69548">
        <ele>9.23</ele>
        <time>2021-04-09T11:00:49Z</time>
      </trkpt>
      <trkpt lat="51.63185" lon="3.69791">
        <ele>9.34</ele>
        <time>2021-04-09T11:00:59Z</time>
      </trkpt>
      <trkpt lat="51.63329" lon="3.70078">
        <ele>11</ele>
        <time>2021-04-09T11:01:10Z</time>
      </trkpt>
      <trkpt lat="51.63347" lon="3.70128">
        <ele>11</ele>
        <time>2021-04-09T11:01:21Z</time>
      </trkpt>
      <trkpt lat="51.63415" lon="3.70281">
        <ele>9.94</ele>
        <time>2021-04-09T11:01:32Z</time>
      </trkpt>
      <trkpt lat="51.63424" lon="3.70315">
        <ele>10.18</ele>
        <time>2021-04-09T11:01:35Z</time>
      </trkpt>
      <trkpt lat="51.63423" lon="3.70328">
        <ele>10.04</ele>
        <time>2021-04-09T11:01:37Z</time>
      </trkpt>
      <trkpt lat="51.63417" lon="3.70344">
        <ele>9.63</ele>
        <time>2021-04-09T11:01:39Z</time>
      </trkpt>
      <trkpt lat="51.63405" lon="3.70358">
        <ele>9.12</ele>
        <time>2021-04-09T11:01:42Z</time>
      </trkpt>
      <trkpt lat="51.63393" lon="3.70378">
        <ele>8.41</ele>
        <time>2021-04-09T11:01:44Z</time>
      </trkpt>
      <trkpt lat="51.63385" lon="3.70404">
        <ele>7.31</ele>
        <time>2021-04-09T11:01:47Z</time>
      </trkpt>
      <trkpt lat="51.63382" lon="3.70433">
        <ele>6.16</ele>
        <time>2021-04-09T11:01:49Z</time>
      </trkpt>
      <trkpt lat="51.63383" lon="3.70447">
        <ele>5.78</ele>
        <time>2021-04-09T11:01:51Z</time>
      </trkpt>
      <trkpt lat="51.63388" lon="3.70475">
        <ele>5.87</ele>
        <time>2021-04-09T11:01:54Z</time>
      </trkpt>
      <trkpt lat="51.63415" lon="3.70552">
        <ele>4.18</ele>
        <time>2021-04-09T11:01:56Z</time>
      </trkpt>
      <trkpt lat="51.63459" lon="3.70661">
        <ele>3.63</ele>
        <time>2021-04-09T11:01:59Z</time>
      </trkpt>
      <trkpt lat="51.63519" lon="3.70788">
        <ele>3.68</ele>
        <time>2021-04-09T11:02:01Z</time>
      </trkpt>
      <trkpt lat="51.63586" lon="3.70915">
        <ele>3.11</ele>
        <time>2021-04-09T11:02:04Z</time>
      </trkpt>
      <trkpt lat="51.63471" lon="3.71081">
        <ele>2.12</ele>
        <time>2021-04-09T11:02:09Z</time>
      </trkpt>
      <trkpt lat="51.63466" lon="3.71084">
        <ele>2.2</ele>
        <time>2021-04-09T11:02:15Z</time>
      </trkpt>
      <trkpt lat="51.63455" lon="3.71078">
        <ele>2.69</ele>
        <time>2021-04-09T11:02:21Z</time>
      </trkpt>
      <trkpt lat="51.63443" lon="3.71068">
        <ele>2.95</ele>
        <time>2021-04-09T11:02:27Z</time>
      </trkpt>
      <trkpt lat="51.63296" lon="3.70901">
        <ele>2.36</ele>
        <time>2021-04-09T11:02:33Z</time>
      </trkpt>
      <trkpt lat="51.63304" lon="3.70881">
        <ele>3.21</ele>
        <time>2021-04-09T11:02:39Z</time>
      </trkpt>
      <trkpt lat="51.63337" lon="3.70811">
        <ele>3.87</ele>
        <time>2021-04-09T11:02:45Z</time>
      </trkpt>
      <trkpt lat="51.634" lon="3.70705">
        <ele>4.61</ele>
        <time>2021-04-09T11:02:50Z</time>
      </trkpt>
      <trkpt lat="51.63407" lon="3.70689">
        <ele>4.36</ele>
        <time>2021-04-09T11:02:56Z</time>
      </trkpt>
      <trkpt lat="51.6341" lon="3.70666">
        <ele>4.22</ele>
        <time>2021-04-09T11:03:01Z</time>
      </trkpt>
      <trkpt lat="51.63409" lon="3.70645">
        <ele>4.26</ele>
        <time>2021-04-09T11:03:07Z</time>
      </trkpt>
      <trkpt lat="51.63404" lon="3.70626">
        <ele>4.46</ele>
        <time>2021-04-09T11:03:13Z</time>
      </trkpt>
      <trkpt lat="51.63373" lon="3.70561">
        <ele>3.85</ele>
        <time>2021-04-09T11:03:18Z</time>
      </trkpt>
      <trkpt lat="51.63226" lon="3.70165">
        <ele>4.21</ele>
        <time>2021-04-09T11:03:24Z</time>
      </trkpt>
      <trkpt lat="51.63149" lon="3.69971">
        <ele>5.76</ele>
        <time>2021-04-09T11:03:30Z</time>
      </trkpt>
      <trkpt lat="51.63053" lon="3.69749">
        <ele>4.91</ele>
        <time>2021-04-09T11:03:35Z</time>
      </trkpt>
      <trkpt lat="51.62977" lon="3.69587">
        <ele>4.33</ele>
        <time>2021-04-09T11:03:41Z</time>
      </trkpt>
      <trkpt lat="51.62898" lon="3.69433">
        <ele>4.82</ele>
        <time>2021-04-09T11:03:46Z</time>
      </trkpt>
      <trkpt lat="51.62898" lon="3.69433">
        <ele>4.82</ele>
        <time>2021-04-09T11:03:46Z</time>
      </trkpt>
      <trkpt lat="51.62977" lon="3.69587">
        <ele>4.33</ele>
        <time>2021-04-09T11:03:52Z</time>
      </trkpt>
      <trkpt lat="51.63053" lon="3.69749">
        <ele>4.91</ele>
        <time>2021-04-09T11:03:58Z</time>
      </trkpt>
      <trkpt lat="51.63149" lon="3.69971">
        <ele>5.76</ele>
        <time>2021-04-09T11:04:03Z</time>
      </trkpt>
      <trkpt lat="51.63226" lon="3.70165">
        <ele>4.21</ele>
        <time>2021-04-09T11:04:09Z</time>
      </trkpt>
      <trkpt lat="51.63373" lon="3.70561">
        <ele>3.85</ele>
        <time>2021-04-09T11:04:15Z</time>
      </trkpt>
      <trkpt lat="51.63404" lon="3.70626">
        <ele>4.46</ele>
        <time>2021-04-09T11:04:20Z</time>
      </trkpt>
      <trkpt lat="51.63409" lon="3.70645">
        <ele>4.26</ele>
        <time>2021-04-09T11:04:26Z</time>
      </trkpt>
      <trkpt lat="51.6341" lon="3.70666">
        <ele>4.22</ele>
        <time>2021-04-09T11:04:31Z</time>
      </trkpt>
      <trkpt lat="51.63407" lon="3.70689">
        <ele>4.36</ele>
        <time>2021-04-09T11:04:37Z</time>
      </trkpt>
      <trkpt lat="51.634" lon="3.70705">
        <ele>4.61</ele>
        <time>2021-04-09T11:04:43Z</time>
      </trkpt>
      <trkpt lat="51.63337" lon="3.70811">
        <ele>3.87</ele>
        <time>2021-04-09T11:04:48Z</time>
      </trkpt>
      <trkpt lat="51.63304" lon="3.70881">
        <ele>3.21</ele>
        <time>2021-04-09T11:04:54Z</time>
      </trkpt>
      <trkpt lat="51.63296" lon="3.70901">
        <ele>2.36</ele>
        <time>2021-04-09T11:05:00Z</time>
      </trkpt>
      <trkpt lat="51.63443" lon="3.71068">
        <ele>2.95</ele>
        <time>2021-04-09T11:05:06Z</time>
      </trkpt>
      <trkpt lat="51.63455" lon="3.71078">
        <ele>2.69</ele>
        <time>2021-04-09T11:05:12Z</time>
      </trkpt>
      <trkpt lat="51.63466" lon="3.71084">
        <ele>2.2</ele>
        <time>2021-04-09T11:05:18Z</time>
      </trkpt>
      <trkpt lat="51.63471" lon="3.71081">
        <ele>2.12</ele>
        <time>2021-04-09T11:05:24Z</time>
      </trkpt>
      <trkpt lat="51.63586" lon="3.70915">
        <ele>3.11</ele>
        <time>2021-04-09T11:05:29Z</time>
      </trkpt>
      <trkpt lat="51.63519" lon="3.70788">
        <ele>3.68</ele>
        <time>2021-04-09T11:05:37Z</time>
      </trkpt>
      <trkpt lat="51.63459" lon="3.70661">
        <ele>3.63</ele>
        <time>2021-04-09T11:05:45Z</time>
      </trkpt>
      <trkpt lat="51.63415" lon="3.70552">
        <ele>4.18</ele>
        <time>2021-04-09T11:05:53Z</time>
      </trkpt>
      <trkpt lat="51.63388" lon="3.70475">
        <ele>5.87</ele>
        <time>2021-04-09T11:06:01Z</time>
      </trkpt>
      <trkpt lat="51.63383" lon="3.70447">
        <ele>5.78</ele>
        <time>2021-04-09T11:06:09Z</time>
      </trkpt>
      <trkpt lat="51.63382" lon="3.70433">
        <ele>6.16</ele>
        <time>2021-04-09T11:06:16Z</time>
      </trkpt>
      <trkpt lat="51.63385" lon="3.70404">
        <ele>7.31</ele>
        <time>2021-04-09T11:06:24Z</time>
      </trkpt>
      <trkpt lat="51.63393" lon="3.70378">
        <ele>8.41</ele>
        <time>2021-04-09T11:06:32Z</time>
      </trkpt>
      <trkpt lat="51.63405" lon="3.70358">
        <ele>9.12</ele>
        <time>2021-04-09T11:06:40Z</time>
      </trkpt>
      <trkpt lat="51.63417" lon="3.70344">
        <ele>9.63</ele>
        <time>2021-04-09T11:06:48Z</time>
      </trkpt>
      <trkpt lat="51.63427" lon="3.70339">
        <ele>9.87</ele>
        <time>2021-04-09T11:06:55Z</time>
      </trkpt>
      <trkpt lat="51.63436" lon="3.70341">
        <ele>9.91</ele>
        <time>2021-04-09T11:07:03Z</time>
      </trkpt>
      <trkpt lat="51.63453" lon="3.70369">
        <ele>9.82</ele>
        <time>2021-04-09T11:07:11Z</time>
      </trkpt>
      <trkpt lat="51.6356" lon="3.70616">
        <ele>7</ele>
        <time>2021-04-09T11:07:19Z</time>
      </trkpt>
      <trkpt lat="51.6359" lon="3.70679">
        <ele>8</ele>
        <time>2021-04-09T11:07:27Z</time>
      </trkpt>
      <trkpt lat="51.63605" lon="3.70706">
        <ele>8.4</ele>
        <time>2021-04-09T11:07:34Z</time>
      </trkpt>
      <trkpt lat="51.63614" lon="3.70715">
        <ele>8.63</ele>
        <time>2021-04-09T11:07:42Z</time>
      </trkpt>
      <trkpt lat="51.63671" lon="3.70819">
        <ele>7.52</ele>
        <time>2021-04-09T11:07:50Z</time>
      </trkpt>
      <trkpt lat="51.63707" lon="3.7088">
        <ele>8.32</ele>
        <time>2021-04-09T11:07:58Z</time>
      </trkpt>
      <trkpt lat="51.63765" lon="3.70968">
        <ele>8.52</ele>
        <time>2021-04-09T11:08:06Z</time>
      </trkpt>
      <trkpt lat="51.63843" lon="3.71076">
        <ele>9.63</ele>
        <time>2021-04-09T11:08:13Z</time>
      </trkpt>
      <trkpt lat="51.63931" lon="3.71178">
        <ele>9.58</ele>
        <time>2021-04-09T11:08:21Z</time>
      </trkpt>
      <trkpt lat="51.63993" lon="3.71238">
        <ele>8.18</ele>
        <time>2021-04-09T11:08:29Z</time>
      </trkpt>
      <trkpt lat="51.64062" lon="3.71301">
        <ele>8.37</ele>
        <time>2021-04-09T11:08:37Z</time>
      </trkpt>
      <trkpt lat="51.65033" lon="3.72074">
        <ele>8.55</ele>
        <time>2021-04-09T11:08:45Z</time>
      </trkpt>
      <trkpt lat="51.65202" lon="3.72205">
        <ele>9.1</ele>
        <time>2021-04-09T11:08:53Z</time>
      </trkpt>
      <trkpt lat="51.65246" lon="3.72234">
        <ele>9.94</ele>
        <time>2021-04-09T11:09:00Z</time>
      </trkpt>
      <trkpt lat="51.65323" lon="3.72271">
        <ele>10.11</ele>
        <time>2021-04-09T11:09:08Z</time>
      </trkpt>
      <trkpt lat="51.65375" lon="3.7229">
        <ele>11.05</ele>
        <time>2021-04-09T11:09:16Z</time>
      </trkpt>
      <trkpt lat="51.65433" lon="3.72305">
        <ele>10.42</ele>
        <time>2021-04-09T11:09:24Z</time>
      </trkpt>
      <trkpt lat="51.6547" lon="3.72311">
        <ele>10</ele>
        <time>2021-04-09T11:09:32Z</time>
      </trkpt>
      <trkpt lat="51.65542" lon="3.72314">
        <ele>8.27</ele>
        <time>2021-04-09T11:09:39Z</time>
      </trkpt>
      <trkpt lat="51.66579" lon="3.72248">
        <ele>2.86</ele>
        <time>2021-04-09T11:09:47Z</time>
      </trkpt>
      <trkpt lat="51.66671" lon="3.72246">
        <ele>7.63</ele>
        <time>2021-04-09T11:09:55Z</time>
      </trkpt>
      <trkpt lat="51.66734" lon="3.72253">
        <ele>5.53</ele>
        <time>2021-04-09T11:10:03Z</time>
      </trkpt>
      <trkpt lat="51.66781" lon="3.72262">
        <ele>7.04</ele>
        <time>2021-04-09T11:10:11Z</time>
      </trkpt>
      <trkpt lat="51.6682" lon="3.72274">
        <ele>8.41</ele>
        <time>2021-04-09T11:10:18Z</time>
      </trkpt>
      <trkpt lat="51.66905" lon="3.72307">
        <ele>7.47</ele>
        <time>2021-04-09T11:10:26Z</time>
      </trkpt>
      <trkpt lat="51.67171" lon="3.72438">
        <ele>0.84</ele>
        <time>2021-04-09T11:10:34Z</time>
      </trkpt>
      <trkpt lat="51.67362" lon="3.72537">
        <ele>-1</ele>
        <time>2021-04-09T11:10:42Z</time>
      </trkpt>
      <trkpt lat="51.67502" lon="3.72616">
        <ele>-0.07</ele>
        <time>2021-04-09T11:10:50Z</time>
      </trkpt>
      <trkpt lat="51.67559" lon="3.72657">
        <ele>-0.91</ele>
        <time>2021-04-09T11:10:57Z</time>
      </trkpt>
      <trkpt lat="51.67607" lon="3.72693">
        <ele>1</ele>
        <time>2021-04-09T11:11:05Z</time>
      </trkpt>
      <trkpt lat="51.67622" lon="3.72708">
        <ele>1</ele>
        <time>2021-04-09T11:11:13Z</time>
      </trkpt>
      <trkpt lat="51.67668" lon="3.72763">
        <ele>-0.48</ele>
        <time>2021-04-09T11:11:21Z</time>
      </trkpt>
      <trkpt lat="51.67713" lon="3.72828">
        <ele>-1</ele>
        <time>2021-04-09T11:11:29Z</time>
      </trkpt>
      <trkpt lat="51.67717" lon="3.72831">
        <ele>-1</ele>
        <time>2021-04-09T11:11:37Z</time>
      </trkpt>
      <trkpt lat="51.67724" lon="3.72831">
        <ele>-0.95</ele>
        <time>2021-04-09T11:11:44Z</time>
      </trkpt>
      <trkpt lat="51.6773" lon="3.72827">
        <ele>-0.77</ele>
        <time>2021-04-09T11:11:52Z</time>
      </trkpt>
      <trkpt lat="51.67755" lon="3.72789">
        <ele>-1</ele>
        <time>2021-04-09T11:12:00Z</time>
      </trkpt>
      <trkpt lat="51.67848" lon="3.72688">
        <ele>0.24</ele>
        <time>2021-04-09T11:12:08Z</time>
      </trkpt>
      <trkpt lat="51.67872" lon="3.72675">
        <ele>0.71</ele>
        <time>2021-04-09T11:12:16Z</time>
      </trkpt>
      <trkpt lat="51.67963" lon="3.7264">
        <ele>1</ele>
        <time>2021-04-09T11:12:23Z</time>
      </trkpt>
      <trkpt lat="51.68025" lon="3.72624">
        <ele>-1</ele>
        <time>2021-04-09T11:12:31Z</time>
      </trkpt>
      <trkpt lat="51.68055" lon="3.72625">
        <ele>-1</ele>
        <time>2021-04-09T11:12:39Z</time>
      </trkpt>
      <trkpt lat="51.6807" lon="3.72633">
        <ele>-0.47</ele>
        <time>2021-04-09T11:12:47Z</time>
      </trkpt>
      <trkpt lat="51.68087" lon="3.72646">
        <ele>-0.23</ele>
        <time>2021-04-09T11:12:55Z</time>
      </trkpt>
      <trkpt lat="51.68113" lon="3.72672">
        <ele>1</ele>
        <time>2021-04-09T11:13:02Z</time>
      </trkpt>
      <trkpt lat="51.68454" lon="3.73188">
        <ele>-0.2</ele>
        <time>2021-04-09T11:13:10Z</time>
      </trkpt>
      <trkpt lat="51.6827" lon="3.73501">
        <ele>-1.28</ele>
        <time>2021-04-09T11:13:33Z</time>
      </trkpt>
      <trkpt lat="51.68087" lon="3.73825">
        <ele>0.13</ele>
        <time>2021-04-09T11:13:55Z</time>
      </trkpt>
      <trkpt lat="51.68159" lon="3.73957">
        <ele>1</ele>
        <time>2021-04-09T11:14:04Z</time>
      </trkpt>
      <trkpt lat="51.68248" lon="3.74084">
        <ele>-2.07</ele>
        <time>2021-04-09T11:14:13Z</time>
      </trkpt>
      <trkpt lat="51.68292" lon="3.7415">
        <ele>-1.11</ele>
        <time>2021-04-09T11:14:22Z</time>
      </trkpt>
      <trkpt lat="51.68316" lon="3.74192">
        <ele>-1</ele>
        <time>2021-04-09T11:14:31Z</time>
      </trkpt>
      <trkpt lat="51.68441" lon="3.74464">
        <ele>-1</ele>
        <time>2021-04-09T11:14:40Z</time>
      </trkpt>
      <trkpt lat="51.6848" lon="3.7444">
        <ele>-1.11</ele>
        <time>2021-04-09T11:14:44Z</time>
      </trkpt>
      <trkpt lat="51.6854" lon="3.74408">
        <ele>0.55</ele>
        <time>2021-04-09T11:14:47Z</time>
      </trkpt>
      <trkpt lat="51.68558" lon="3.74393">
        <ele>-0.06</ele>
        <time>2021-04-09T11:14:51Z</time>
      </trkpt>
      <trkpt lat="51.68579" lon="3.74368">
        <ele>-0.86</ele>
        <time>2021-04-09T11:14:54Z</time>
      </trkpt>
      <trkpt lat="51.68645" lon="3.74257">
        <ele>1.47</ele>
        <time>2021-04-09T11:14:58Z</time>
      </trkpt>
      <trkpt lat="51.68663" lon="3.74219">
        <ele>0.88</ele>
        <time>2021-04-09T11:15:02Z</time>
      </trkpt>
      <trkpt lat="51.68678" lon="3.7416">
        <ele>-0.04</ele>
        <time>2021-04-09T11:15:05Z</time>
      </trkpt>
      <trkpt lat="51.68694" lon="3.7405">
        <ele>0.79</ele>
        <time>2021-04-09T11:15:09Z</time>
      </trkpt>
      <trkpt lat="51.68702" lon="3.74026">
        <ele>0.25</ele>
        <time>2021-04-09T11:15:13Z</time>
      </trkpt>
      <trkpt lat="51.6877" lon="3.73879">
        <ele>0.64</ele>
        <time>2021-04-09T11:15:16Z</time>
      </trkpt>
      <trkpt lat="51.68792" lon="3.73842">
        <ele>0.5</ele>
        <time>2021-04-09T11:15:20Z</time>
      </trkpt>
      <trkpt lat="51.688" lon="3.73833">
        <ele>0.8</ele>
        <time>2021-04-09T11:15:23Z</time>
      </trkpt>
      <trkpt lat="51.68807" lon="3.73835">
        <ele>1</ele>
        <time>2021-04-09T11:15:27Z</time>
      </trkpt>
      <trkpt lat="51.68878" lon="3.74016">
        <ele>1.77</ele>
        <time>2021-04-09T11:15:31Z</time>
      </trkpt>
      <trkpt lat="51.68911" lon="3.74085">
        <ele>-0.67</ele>
        <time>2021-04-09T11:15:34Z</time>
      </trkpt>
      <trkpt lat="51.68933" lon="3.74137">
        <ele>-2</ele>
        <time>2021-04-09T11:15:38Z</time>
      </trkpt>
      <trkpt lat="51.6896" lon="3.74193">
        <ele>-1.47</ele>
        <time>2021-04-09T11:15:41Z</time>
      </trkpt>
      <trkpt lat="51.69049" lon="3.74392">
        <ele>-2</ele>
        <time>2021-04-09T11:15:45Z</time>
      </trkpt>
      <trkpt lat="51.69081" lon="3.7447">
        <ele>-2</ele>
        <time>2021-04-09T11:15:49Z</time>
      </trkpt>
      <trkpt lat="51.69101" lon="3.74512">
        <ele>-2</ele>
        <time>2021-04-09T11:15:52Z</time>
      </trkpt>
      <trkpt lat="51.69119" lon="3.74568">
        <ele>-1</ele>
        <time>2021-04-09T11:15:56Z</time>
      </trkpt>
      <trkpt lat="51.6913" lon="3.74625">
        <ele>-1</ele>
        <time>2021-04-09T11:15:59Z</time>
      </trkpt>
      <trkpt lat="51.69141" lon="3.74697">
        <ele>-1</ele>
        <time>2021-04-09T11:16:03Z</time>
      </trkpt>
      <trkpt lat="51.69165" lon="3.74778">
        <ele>-1</ele>
        <time>2021-04-09T11:16:07Z</time>
      </trkpt>
      <trkpt lat="51.69168" lon="3.74798">
        <ele>-1</ele>
        <time>2021-04-09T11:16:10Z</time>
      </trkpt>
      <trkpt lat="51.69168" lon="3.74819">
        <ele>-1.45</ele>
        <time>2021-04-09T11:16:14Z</time>
      </trkpt>
      <trkpt lat="51.69164" lon="3.74834">
        <ele>-2</ele>
        <time>2021-04-09T11:16:17Z</time>
      </trkpt>
      <trkpt lat="51.69157" lon="3.74848">
        <ele>-2</ele>
        <time>2021-04-09T11:16:21Z</time>
      </trkpt>
      <trkpt lat="51.69158" lon="3.74863">
        <ele>-2</ele>
        <time>2021-04-09T11:16:25Z</time>
      </trkpt>
      <trkpt lat="51.69164" lon="3.74881">
        <ele>-2</ele>
        <time>2021-04-09T11:16:28Z</time>
      </trkpt>
      <trkpt lat="51.69171" lon="3.74897">
        <ele>-2</ele>
        <time>2021-04-09T11:16:32Z</time>
      </trkpt>
      <trkpt lat="51.69204" lon="3.74864">
        <ele>-1.06</ele>
        <time>2021-04-09T11:16:36Z</time>
      </trkpt>
      <trkpt lat="51.6921" lon="3.74874">
        <ele>-1.2</ele>
        <time>2021-04-09T11:16:41Z</time>
      </trkpt>
      <trkpt lat="51.69218" lon="3.74877">
        <ele>-1.1</ele>
        <time>2021-04-09T11:16:45Z</time>
      </trkpt>
      <trkpt lat="51.69227" lon="3.74874">
        <ele>-0.92</ele>
        <time>2021-04-09T11:16:50Z</time>
      </trkpt>
      <trkpt lat="51.69256" lon="3.74899">
        <ele>1</ele>
        <time>2021-04-09T11:16:54Z</time>
      </trkpt>
      <trkpt lat="51.69312" lon="3.74971">
        <ele>-1</ele>
        <time>2021-04-09T11:16:59Z</time>
      </trkpt>
      <trkpt lat="51.69349" lon="3.7501">
        <ele>-1.45</ele>
        <time>2021-04-09T11:17:03Z</time>
      </trkpt>
      <trkpt lat="51.69393" lon="3.75048">
        <ele>-1.73</ele>
        <time>2021-04-09T11:17:08Z</time>
      </trkpt>
      <trkpt lat="51.6943" lon="3.75074">
        <ele>-1.52</ele>
        <time>2021-04-09T11:17:12Z</time>
      </trkpt>
      <trkpt lat="51.69477" lon="3.75099">
        <ele>-0.57</ele>
        <time>2021-04-09T11:17:17Z</time>
      </trkpt>
      <trkpt lat="51.69554" lon="3.75131">
        <ele>-1</ele>
        <time>2021-04-09T11:17:21Z</time>
      </trkpt>
      <trkpt lat="51.69615" lon="3.75159">
        <ele>-1.71</ele>
        <time>2021-04-09T11:17:26Z</time>
      </trkpt>
      <trkpt lat="51.69699" lon="3.75211">
        <ele>-2.51</ele>
        <time>2021-04-09T11:17:30Z</time>
      </trkpt>
      <trkpt lat="51.6974" lon="3.75233">
        <ele>-3</ele>
        <time>2021-04-09T11:17:35Z</time>
      </trkpt>
      <trkpt lat="51.69763" lon="3.75254">
        <ele>-2.47</ele>
        <time>2021-04-09T11:17:40Z</time>
      </trkpt>
      <trkpt lat="51.69763" lon="3.75263">
        <ele>-2.3</ele>
        <time>2021-04-09T11:17:42Z</time>
      </trkpt>
      <trkpt lat="51.69765" lon="3.75271">
        <ele>-2.12</ele>
        <time>2021-04-09T11:17:44Z</time>
      </trkpt>
      <trkpt lat="51.69768" lon="3.75278">
        <ele>-2</ele>
        <time>2021-04-09T11:17:46Z</time>
      </trkpt>
      <trkpt lat="51.69773" lon="3.75283">
        <ele>-2</ele>
        <time>2021-04-09T11:17:48Z</time>
      </trkpt>
      <trkpt lat="51.69778" lon="3.75285">
        <ele>-2</ele>
        <time>2021-04-09T11:17:51Z</time>
      </trkpt>
      <trkpt lat="51.69784" lon="3.75284">
        <ele>-2</ele>
        <time>2021-04-09T11:17:53Z</time>
      </trkpt>
      <trkpt lat="51.69791" lon="3.75276">
        <ele>-1.96</ele>
        <time>2021-04-09T11:17:55Z</time>
      </trkpt>
      <trkpt lat="51.69795" lon="3.75263">
        <ele>-1.67</ele>
        <time>2021-04-09T11:17:57Z</time>
      </trkpt>
      <trkpt lat="51.69796" lon="3.75257">
        <ele>-1.51</ele>
        <time>2021-04-09T11:18:00Z</time>
      </trkpt>
      <trkpt lat="51.69816" lon="3.75244">
        <ele>-1</ele>
        <time>2021-04-09T11:18:02Z</time>
      </trkpt>
      <trkpt lat="51.69823" lon="3.75235">
        <ele>-1</ele>
        <time>2021-04-09T11:18:04Z</time>
      </trkpt>
      <trkpt lat="51.69844" lon="3.75221">
        <ele>-0.58</ele>
        <time>2021-04-09T11:18:06Z</time>
      </trkpt>
      <trkpt lat="51.69878" lon="3.75183">
        <time>2021-04-09T11:18:09Z</time>
      </trkpt>
      <trkpt lat="51.69907" lon="3.75142">
        <ele>-0.32</ele>
        <time>2021-04-09T11:18:11Z</time>
      </trkpt>
      <trkpt lat="51.6992" lon="3.75099">
        <ele>-0.06</ele>
        <time>2021-04-09T11:18:13Z</time>
      </trkpt>
      <trkpt lat="51.69932" lon="3.7505">
        <ele>-0.11</ele>
        <time>2021-04-09T11:18:15Z</time>
      </trkpt>
      <trkpt lat="51.69947" lon="3.74975">
        <ele>-1.81</ele>
        <time>2021-04-09T11:18:17Z</time>
      </trkpt>
      <trkpt lat="51.69962" lon="3.74918">
        <ele>-1.37</ele>
        <time>2021-04-09T11:18:20Z</time>
      </trkpt>
      <trkpt lat="51.69991" lon="3.74839">
        <ele>-0.65</ele>
        <time>2021-04-09T11:18:22Z</time>
      </trkpt>
      <trkpt lat="51.7" lon="3.74838">
        <ele>-0.01</ele>
        <time>2021-04-09T11:18:36Z</time>
      </trkpt>
      <trkpt lat="51.70006" lon="3.7483">
        <ele>0.23</ele>
        <time>2021-04-09T11:18:49Z</time>
      </trkpt>
      <trkpt lat="51.70095" lon="3.74947">
        <time>2021-04-09T11:19:03Z</time>
      </trkpt>
      <trkpt lat="51.70167" lon="3.75062">
        <ele>-1</ele>
        <time>2021-04-09T11:19:17Z</time>
      </trkpt>
      <trkpt lat="51.70242" lon="3.75198">
        <ele>-1.89</ele>
        <time>2021-04-09T11:19:30Z</time>
      </trkpt>
      <trkpt lat="51.70272" lon="3.75257">
        <ele>-1</ele>
        <time>2021-04-09T11:19:44Z</time>
      </trkpt>
      <trkpt lat="51.70328" lon="3.75384">
        <ele>-1.98</ele>
        <time>2021-04-09T11:19:58Z</time>
      </trkpt>
      <trkpt lat="51.70503" lon="3.75801">
        <ele>-2</ele>
        <time>2021-04-09T11:20:11Z</time>
      </trkpt>
      <trkpt lat="51.70904" lon="3.76705">
        <ele>-3</ele>
        <time>2021-04-09T11:20:25Z</time>
      </trkpt>
      <trkpt lat="51.70976" lon="3.76849">
        <ele>-1</ele>
        <time>2021-04-09T11:20:39Z</time>
      </trkpt>
      <trkpt lat="51.71412" lon="3.77639">
        <ele>-3.18</ele>
        <time>2021-04-09T11:20:52Z</time>
      </trkpt>
      <trkpt lat="51.71409" lon="3.77649">
        <ele>-2.91</ele>
        <time>2021-04-09T11:20:55Z</time>
      </trkpt>
      <trkpt lat="51.71413" lon="3.77665">
        <ele>-2.18</ele>
        <time>2021-04-09T11:20:58Z</time>
      </trkpt>
      <trkpt lat="51.71419" lon="3.77673">
        <ele>-2</ele>
        <time>2021-04-09T11:21:01Z</time>
      </trkpt>
      <trkpt lat="51.71428" lon="3.77674">
        <ele>-2</ele>
        <time>2021-04-09T11:21:04Z</time>
      </trkpt>
      <trkpt lat="51.7143" lon="3.77671">
        <ele>-2</ele>
        <time>2021-04-09T11:21:06Z</time>
      </trkpt>
      <trkpt lat="51.71486" lon="3.77774">
        <ele>-1.52</ele>
        <time>2021-04-09T11:21:09Z</time>
      </trkpt>
      <trkpt lat="51.71513" lon="3.77821">
        <ele>-1</ele>
        <time>2021-04-09T11:21:12Z</time>
      </trkpt>
      <trkpt lat="51.71529" lon="3.77844">
        <ele>-1</ele>
        <time>2021-04-09T11:21:15Z</time>
      </trkpt>
      <trkpt lat="51.7155" lon="3.77869">
        <ele>-0.94</ele>
        <time>2021-04-09T11:21:18Z</time>
      </trkpt>
      <trkpt lat="51.71594" lon="3.77901">
        <ele>-1</ele>
        <time>2021-04-09T11:21:21Z</time>
      </trkpt>
      <trkpt lat="51.71616" lon="3.77913">
        <ele>-1.17</ele>
        <time>2021-04-09T11:21:23Z</time>
      </trkpt>
      <trkpt lat="51.7164" lon="3.77921">
        <ele>-2</ele>
        <time>2021-04-09T11:21:26Z</time>
      </trkpt>
      <trkpt lat="51.71672" lon="3.77924">
        <ele>-1.95</ele>
        <time>2021-04-09T11:21:29Z</time>
      </trkpt>
      <trkpt lat="51.71702" lon="3.77923">
        <ele>-1.77</ele>
        <time>2021-04-09T11:21:32Z</time>
      </trkpt>
      <trkpt lat="51.71722" lon="3.77918">
        <ele>-1.95</ele>
        <time>2021-04-09T11:21:35Z</time>
      </trkpt>
      <trkpt lat="51.71747" lon="3.77908">
        <ele>-2</ele>
        <time>2021-04-09T11:21:37Z</time>
      </trkpt>
      <trkpt lat="51.72099" lon="3.77705">
        <ele>-0.57</ele>
        <time>2021-04-09T11:21:40Z</time>
      </trkpt>
      <trkpt lat="51.72134" lon="3.77695">
        <ele>-1.83</ele>
        <time>2021-04-09T11:21:43Z</time>
      </trkpt>
      <trkpt lat="51.72173" lon="3.77692">
        <ele>-1</ele>
        <time>2021-04-09T11:21:46Z</time>
      </trkpt>
      <trkpt lat="51.72218" lon="3.777">
        <ele>-0.12</ele>
        <time>2021-04-09T11:21:49Z</time>
      </trkpt>
      <trkpt lat="51.72249" lon="3.77715">
        <ele>0.24</ele>
        <time>2021-04-09T11:21:52Z</time>
      </trkpt>
      <trkpt lat="51.72275" lon="3.77737">
        <ele>1</ele>
        <time>2021-04-09T11:21:54Z</time>
      </trkpt>
      <trkpt lat="51.72302" lon="3.77764">
        <ele>0.81</ele>
        <time>2021-04-09T11:21:57Z</time>
      </trkpt>
      <trkpt lat="51.72317" lon="3.77784">
        <ele>1</ele>
        <time>2021-04-09T11:22:00Z</time>
      </trkpt>
      <trkpt lat="51.72333" lon="3.77809">
        <ele>0.88</ele>
        <time>2021-04-09T11:22:03Z</time>
      </trkpt>
      <trkpt lat="51.72426" lon="3.7798">
        <ele>-0.93</ele>
        <time>2021-04-09T11:22:06Z</time>
      </trkpt>
      <trkpt lat="51.72448" lon="3.78009">
        <ele>-0.87</ele>
        <time>2021-04-09T11:22:09Z</time>
      </trkpt>
      <trkpt lat="51.7247" lon="3.78031">
        <ele>-0.19</ele>
        <time>2021-04-09T11:22:11Z</time>
      </trkpt>
      <trkpt lat="51.72496" lon="3.78045">
        <ele>-0.95</ele>
        <time>2021-04-09T11:22:14Z</time>
      </trkpt>
      <trkpt lat="51.7252" lon="3.78054">
        <ele>-1</ele>
        <time>2021-04-09T11:22:17Z</time>
      </trkpt>
      <trkpt lat="51.7252" lon="3.78063">
        <ele>-1</ele>
        <time>2021-04-09T11:22:21Z</time>
      </trkpt>
      <trkpt lat="51.72522" lon="3.78071">
        <ele>-1</ele>
        <time>2021-04-09T11:22:24Z</time>
      </trkpt>
      <trkpt lat="51.72525" lon="3.78078">
        <ele>-1</ele>
        <time>2021-04-09T11:22:28Z</time>
      </trkpt>
      <trkpt lat="51.7253" lon="3.78082">
        <ele>-1</ele>
        <time>2021-04-09T11:22:31Z</time>
      </trkpt>
      <trkpt lat="51.72536" lon="3.78082">
        <ele>-1</ele>
        <time>2021-04-09T11:22:35Z</time>
      </trkpt>
      <trkpt lat="51.72541" lon="3.78079">
        <ele>-1</ele>
        <time>2021-04-09T11:22:38Z</time>
      </trkpt>
      <trkpt lat="51.72584" lon="3.78189">
        <ele>-1.96</ele>
        <time>2021-04-09T11:22:42Z</time>
      </trkpt>
      <trkpt lat="51.72797" lon="3.78574">
        <ele>-2.32</ele>
        <time>2021-04-09T11:22:46Z</time>
      </trkpt>
      <trkpt lat="51.72793" lon="3.78581">
        <ele>-2.44</ele>
        <time>2021-04-09T11:22:50Z</time>
      </trkpt>
      <trkpt lat="51.72792" lon="3.78589">
        <ele>-2.31</ele>
        <time>2021-04-09T11:22:55Z</time>
      </trkpt>
      <trkpt lat="51.72792" lon="3.78597">
        <ele>-2.01</ele>
        <time>2021-04-09T11:22:59Z</time>
      </trkpt>
      <trkpt lat="51.72794" lon="3.78604">
        <ele>-1.66</ele>
        <time>2021-04-09T11:23:04Z</time>
      </trkpt>
      <trkpt lat="51.72797" lon="3.78609">
        <ele>-1.39</ele>
        <time>2021-04-09T11:23:09Z</time>
      </trkpt>
      <trkpt lat="51.72804" lon="3.78614">
        <ele>-1.05</ele>
        <time>2021-04-09T11:23:13Z</time>
      </trkpt>
      <trkpt lat="51.72812" lon="3.78612">
        <ele>-1.23</ele>
        <time>2021-04-09T11:23:18Z</time>
      </trkpt>
      <trkpt lat="51.72923" lon="3.78954">
        <ele>-2.21</ele>
        <time>2021-04-09T11:23:22Z</time>
      </trkpt>
      <trkpt lat="51.72949" lon="3.7907">
        <ele>-3</ele>
        <time>2021-04-09T11:23:27Z</time>
      </trkpt>
      <trkpt lat="51.72961" lon="3.79144">
        <ele>-1.92</ele>
        <time>2021-04-09T11:23:31Z</time>
      </trkpt>
      <trkpt lat="51.72968" lon="3.79214">
        <ele>-1.85</ele>
        <time>2021-04-09T11:23:36Z</time>
      </trkpt>
      <trkpt lat="51.72978" lon="3.79401">
        <ele>-2</ele>
        <time>2021-04-09T11:23:41Z</time>
      </trkpt>
      <trkpt lat="51.72988" lon="3.79521">
        <ele>-2.55</ele>
        <time>2021-04-09T11:23:45Z</time>
      </trkpt>
      <trkpt lat="51.73003" lon="3.79636">
        <ele>-1</ele>
        <time>2021-04-09T11:23:50Z</time>
      </trkpt>
      <trkpt lat="51.7303" lon="3.79744">
        <ele>-1</ele>
        <time>2021-04-09T11:23:54Z</time>
      </trkpt>
      <trkpt lat="51.7306" lon="3.79834">
        <ele>-1</ele>
        <time>2021-04-09T11:23:59Z</time>
      </trkpt>
      <trkpt lat="51.73235" lon="3.80262">
        <ele>-1.3</ele>
        <time>2021-04-09T11:24:04Z</time>
      </trkpt>
      <trkpt lat="51.73232" lon="3.80267">
        <ele>-1.26</ele>
        <time>2021-04-09T11:24:09Z</time>
      </trkpt>
      <trkpt lat="51.73232" lon="3.80276">
        <ele>-1.04</ele>
        <time>2021-04-09T11:24:15Z</time>
      </trkpt>
      <trkpt lat="51.73235" lon="3.80291">
        <ele>-1</ele>
        <time>2021-04-09T11:24:21Z</time>
      </trkpt>
      <trkpt lat="51.7324" lon="3.80299">
        <ele>-1</ele>
        <time>2021-04-09T11:24:26Z</time>
      </trkpt>
      <trkpt lat="51.73246" lon="3.80304">
        <ele>-1</ele>
        <time>2021-04-09T11:24:32Z</time>
      </trkpt>
      <trkpt lat="51.73252" lon="3.80303">
        <ele>-1.07</ele>
        <time>2021-04-09T11:24:37Z</time>
      </trkpt>
      <trkpt lat="51.73351" lon="3.80546">
        <ele>-1.42</ele>
        <time>2021-04-09T11:24:43Z</time>
      </trkpt>
      <trkpt lat="51.73376" lon="3.80611">
        <ele>-1.53</ele>
        <time>2021-04-09T11:24:49Z</time>
      </trkpt>
      <trkpt lat="51.73396" lon="3.80676">
        <ele>-2</ele>
        <time>2021-04-09T11:24:54Z</time>
      </trkpt>
      <trkpt lat="51.73411" lon="3.80736">
        <ele>-1</ele>
        <time>2021-04-09T11:25:00Z</time>
      </trkpt>
      <trkpt lat="51.73429" lon="3.80821">
        <ele>-0.7</ele>
        <time>2021-04-09T11:25:06Z</time>
      </trkpt>
      <trkpt lat="51.73442" lon="3.8091">
        <ele>-0.9</ele>
        <time>2021-04-09T11:25:11Z</time>
      </trkpt>
      <trkpt lat="51.73449" lon="3.80987">
        <ele>-0.85</ele>
        <time>2021-04-09T11:25:17Z</time>
      </trkpt>
      <trkpt lat="51.73453" lon="3.81095">
        <ele>-1</ele>
        <time>2021-04-09T11:25:22Z</time>
      </trkpt>
      <trkpt lat="51.73424" lon="3.82196">
        <ele>1.19</ele>
        <time>2021-04-09T11:25:28Z</time>
      </trkpt>
      <trkpt lat="51.73415" lon="3.822">
        <ele>0.74</ele>
        <time>2021-04-09T11:25:31Z</time>
      </trkpt>
      <trkpt lat="51.73411" lon="3.82208">
        <ele>0.42</ele>
        <time>2021-04-09T11:25:35Z</time>
      </trkpt>
      <trkpt lat="51.73409" lon="3.82219">
        <ele>0.09</ele>
        <time>2021-04-09T11:25:38Z</time>
      </trkpt>
      <trkpt lat="51.73413" lon="3.82248">
        <ele>1</ele>
        <time>2021-04-09T11:25:41Z</time>
      </trkpt>
      <trkpt lat="51.73407" lon="3.82278">
        <ele>1.11</ele>
        <time>2021-04-09T11:25:45Z</time>
      </trkpt>
      <trkpt lat="51.73409" lon="3.82286">
        <ele>0.21</ele>
        <time>2021-04-09T11:25:48Z</time>
      </trkpt>
      <trkpt lat="51.73414" lon="3.82296">
        <ele>0.57</ele>
        <time>2021-04-09T11:25:51Z</time>
      </trkpt>
      <trkpt lat="51.73421" lon="3.82301">
        <ele>0.87</ele>
        <time>2021-04-09T11:25:54Z</time>
      </trkpt>
      <trkpt lat="51.73413" lon="3.8242">
        <ele>2.12</ele>
        <time>2021-04-09T11:25:58Z</time>
      </trkpt>
      <trkpt lat="51.73399" lon="3.82836">
        <ele>-1.37</ele>
        <time>2021-04-09T11:26:01Z</time>
      </trkpt>
      <trkpt lat="51.73428" lon="3.82838">
        <ele>-1.6</ele>
        <time>2021-04-09T11:26:08Z</time>
      </trkpt>
      <trkpt lat="51.7346" lon="3.82832">
        <ele>-0.37</ele>
        <time>2021-04-09T11:26:15Z</time>
      </trkpt>
      <trkpt lat="51.73473" lon="3.82831">
        <ele>0.07</ele>
        <time>2021-04-09T11:26:22Z</time>
      </trkpt>
      <trkpt lat="51.73502" lon="3.82821">
        <ele>0.45</ele>
        <time>2021-04-09T11:26:29Z</time>
      </trkpt>
      <trkpt lat="51.73532" lon="3.828">
        <ele>1</ele>
        <time>2021-04-09T11:26:36Z</time>
      </trkpt>
      <trkpt lat="51.73635" lon="3.82712">
        <ele>-1.38</ele>
        <time>2021-04-09T11:26:42Z</time>
      </trkpt>
      <trkpt lat="51.73711" lon="3.82642">
        <ele>1.06</ele>
        <time>2021-04-09T11:26:49Z</time>
      </trkpt>
      <trkpt lat="51.73798" lon="3.82568">
        <ele>4.87</ele>
        <time>2021-04-09T11:26:56Z</time>
      </trkpt>
      <trkpt lat="51.73829" lon="3.82548">
        <ele>5</ele>
        <time>2021-04-09T11:27:03Z</time>
      </trkpt>
      <trkpt lat="51.73866" lon="3.82537">
        <ele>4.74</ele>
        <time>2021-04-09T11:27:10Z</time>
      </trkpt>
      <trkpt lat="51.7388" lon="3.82535">
        <ele>3.98</ele>
        <time>2021-04-09T11:27:17Z</time>
      </trkpt>
      <trkpt lat="51.73933" lon="3.8254">
        <ele>3.31</ele>
        <time>2021-04-09T11:27:24Z</time>
      </trkpt>
      <trkpt lat="51.74714" lon="3.82661">
        <ele>4.67</ele>
        <time>2021-04-09T11:27:31Z</time>
      </trkpt>
      <trkpt lat="51.74787" lon="3.82676">
        <ele>1.33</ele>
        <time>2021-04-09T11:27:38Z</time>
      </trkpt>
      <trkpt lat="51.74862" lon="3.82697">
        <ele>0.8</ele>
        <time>2021-04-09T11:27:45Z</time>
      </trkpt>
      <trkpt lat="51.74916" lon="3.82717">
        <ele>-0.66</ele>
        <time>2021-04-09T11:27:51Z</time>
      </trkpt>
      <trkpt lat="51.74978" lon="3.82748">
        <ele>5.21</ele>
        <time>2021-04-09T11:27:58Z</time>
      </trkpt>
      <trkpt lat="51.75047" lon="3.82792">
        <ele>5.5</ele>
        <time>2021-04-09T11:28:05Z</time>
      </trkpt>
      <trkpt lat="51.75113" lon="3.82841">
        <ele>5.82</ele>
        <time>2021-04-09T11:28:12Z</time>
      </trkpt>
      <trkpt lat="51.75143" lon="3.82866">
        <ele>5.68</ele>
        <time>2021-04-09T11:28:19Z</time>
      </trkpt>
      <trkpt lat="51.75214" lon="3.82937">
        <ele>3.93</ele>
        <time>2021-04-09T11:28:26Z</time>
      </trkpt>
      <trkpt lat="51.75251" lon="3.82979">
        <ele>4.78</ele>
        <time>2021-04-09T11:28:33Z</time>
      </trkpt>
      <trkpt lat="51.75286" lon="3.83022">
        <ele>5.28</ele>
        <time>2021-04-09T11:28:40Z</time>
      </trkpt>
      <trkpt lat="51.75335" lon="3.83091">
        <ele>4.78</ele>
        <time>2021-04-09T11:28:47Z</time>
      </trkpt>
      <trkpt lat="51.75389" lon="3.83179">
        <ele>4</ele>
        <time>2021-04-09T11:28:54Z</time>
      </trkpt>
      <trkpt lat="51.75434" lon="3.83263">
        <ele>3.16</ele>
        <time>2021-04-09T11:29:00Z</time>
      </trkpt>
      <trkpt lat="51.75449" lon="3.83295">
        <ele>3.33</ele>
        <time>2021-04-09T11:29:07Z</time>
      </trkpt>
      <trkpt lat="51.75482" lon="3.83368">
        <ele>5.87</ele>
        <time>2021-04-09T11:29:14Z</time>
      </trkpt>
      <trkpt lat="51.75522" lon="3.83472">
        <ele>7</ele>
        <time>2021-04-09T11:29:21Z</time>
      </trkpt>
      <trkpt lat="51.75571" lon="3.83628">
        <ele>5.56</ele>
        <time>2021-04-09T11:29:28Z</time>
      </trkpt>
      <trkpt lat="51.756" lon="3.83738">
        <ele>4.6</ele>
        <time>2021-04-09T11:29:35Z</time>
      </trkpt>
      <trkpt lat="51.75795" lon="3.84504">
        <ele>3.44</ele>
        <time>2021-04-09T11:29:42Z</time>
      </trkpt>
      <trkpt lat="51.75808" lon="3.84574">
        <ele>3.17</ele>
        <time>2021-04-09T11:29:49Z</time>
      </trkpt>
      <trkpt lat="51.75812" lon="3.84639">
        <ele>2.23</ele>
        <time>2021-04-09T11:29:56Z</time>
      </trkpt>
      <trkpt lat="51.75809" lon="3.847">
        <ele>3.21</ele>
        <time>2021-04-09T11:30:03Z</time>
      </trkpt>
      <trkpt lat="51.758" lon="3.84768">
        <ele>3.61</ele>
        <time>2021-04-09T11:30:09Z</time>
      </trkpt>
      <trkpt lat="51.75784" lon="3.84828">
        <ele>2.42</ele>
        <time>2021-04-09T11:30:16Z</time>
      </trkpt>
      <trkpt lat="51.75713" lon="3.85052">
        <ele>0.54</ele>
        <time>2021-04-09T11:30:23Z</time>
      </trkpt>
      <trkpt lat="51.75676" lon="3.85197">
        <ele>1.09</ele>
        <time>2021-04-09T11:30:30Z</time>
      </trkpt>
      <trkpt lat="51.75672" lon="3.85246">
        <ele>2</ele>
        <time>2021-04-09T11:30:37Z</time>
      </trkpt>
      <trkpt lat="51.75677" lon="3.85289">
        <ele>2.63</ele>
        <time>2021-04-09T11:30:44Z</time>
      </trkpt>
      <trkpt lat="51.75687" lon="3.85324">
        <ele>2.75</ele>
        <time>2021-04-09T11:30:51Z</time>
      </trkpt>
      <trkpt lat="51.75698" lon="3.85347">
        <ele>3.12</ele>
        <time>2021-04-09T11:30:58Z</time>
      </trkpt>
      <trkpt lat="51.75723" lon="3.85382">
        <ele>4.71</ele>
        <time>2021-04-09T11:31:05Z</time>
      </trkpt>
      <trkpt lat="51.75733" lon="3.85365">
        <ele>4.08</ele>
        <time>2021-04-09T11:31:08Z</time>
      </trkpt>
      <trkpt lat="51.75748" lon="3.85331">
        <ele>3.99</ele>
        <time>2021-04-09T11:31:12Z</time>
      </trkpt>
      <trkpt lat="51.75788" lon="3.8525">
        <ele>4.62</ele>
        <time>2021-04-09T11:31:16Z</time>
      </trkpt>
      <trkpt lat="51.75821" lon="3.8518">
        <ele>3</ele>
        <time>2021-04-09T11:31:19Z</time>
      </trkpt>
      <trkpt lat="51.75842" lon="3.85159">
        <ele>3.23</ele>
        <time>2021-04-09T11:31:23Z</time>
      </trkpt>
      <trkpt lat="51.75869" lon="3.85146">
        <ele>3.18</ele>
        <time>2021-04-09T11:31:26Z</time>
      </trkpt>
      <trkpt lat="51.75881" lon="3.85145">
        <ele>3.06</ele>
        <time>2021-04-09T11:31:30Z</time>
      </trkpt>
      <trkpt lat="51.75905" lon="3.85151">
        <ele>3</ele>
        <time>2021-04-09T11:31:34Z</time>
      </trkpt>
      <trkpt lat="51.75916" lon="3.85156">
        <ele>3</ele>
        <time>2021-04-09T11:31:37Z</time>
      </trkpt>
      <trkpt lat="51.75939" lon="3.85179">
        <ele>3</ele>
        <time>2021-04-09T11:31:41Z</time>
      </trkpt>
      <trkpt lat="51.75959" lon="3.85215">
        <ele>3</ele>
        <time>2021-04-09T11:31:45Z</time>
      </trkpt>
      <trkpt lat="51.76077" lon="3.85484">
        <ele>2.86</ele>
        <time>2021-04-09T11:31:48Z</time>
      </trkpt>
      <trkpt lat="51.76059" lon="3.85508">
        <ele>3</ele>
        <time>2021-04-09T11:31:55Z</time>
      </trkpt>
      <trkpt lat="51.76054" lon="3.85521">
        <ele>3</ele>
        <time>2021-04-09T11:32:02Z</time>
      </trkpt>
      <trkpt lat="51.76053" lon="3.85535">
        <ele>3.02</ele>
        <time>2021-04-09T11:32:08Z</time>
      </trkpt>
      <trkpt lat="51.76056" lon="3.85554">
        <ele>3</ele>
        <time>2021-04-09T11:32:15Z</time>
      </trkpt>
      <trkpt lat="51.76067" lon="3.85573">
        <ele>3</ele>
        <time>2021-04-09T11:32:22Z</time>
      </trkpt>
      <trkpt lat="51.76203" lon="3.8566">
        <ele>2.08</ele>
        <time>2021-04-09T11:32:28Z</time>
      </trkpt>
      <trkpt lat="51.76321" lon="3.8574">
        <ele>3.71</ele>
        <time>2021-04-09T11:32:35Z</time>
      </trkpt>
      <trkpt lat="51.76465" lon="3.85846">
        <ele>4.44</ele>
        <time>2021-04-09T11:32:42Z</time>
      </trkpt>
      <trkpt lat="51.7666" lon="3.85976">
        <ele>5.15</ele>
        <time>2021-04-09T11:32:48Z</time>
      </trkpt>
      <trkpt lat="51.77569" lon="3.86542">
        <ele>3.96</ele>
        <time>2021-04-09T11:32:55Z</time>
      </trkpt>
      <trkpt lat="51.78299" lon="3.87001">
        <ele>3.75</ele>
        <time>2021-04-09T11:33:02Z</time>
      </trkpt>
      <trkpt lat="51.78432" lon="3.87092">
        <ele>5.68</ele>
        <time>2021-04-09T11:33:08Z</time>
      </trkpt>
      <trkpt lat="51.78454" lon="3.87109">
        <ele>5.06</ele>
        <time>2021-04-09T11:33:15Z</time>
      </trkpt>
      <trkpt lat="51.78476" lon="3.8713">
        <ele>5.24</ele>
        <time>2021-04-09T11:33:22Z</time>
      </trkpt>
      <trkpt lat="51.78499" lon="3.87163">
        <ele>6.08</ele>
        <time>2021-04-09T11:33:28Z</time>
      </trkpt>
      <trkpt lat="51.78521" lon="3.87215">
        <ele>6.74</ele>
        <time>2021-04-09T11:33:35Z</time>
      </trkpt>
      <trkpt lat="51.78529" lon="3.87252">
        <ele>6.92</ele>
        <time>2021-04-09T11:33:42Z</time>
      </trkpt>
      <trkpt lat="51.78533" lon="3.87291">
        <ele>6</ele>
        <time>2021-04-09T11:33:48Z</time>
      </trkpt>
      <trkpt lat="51.78533" lon="3.87327">
        <ele>5.36</ele>
        <time>2021-04-09T11:33:55Z</time>
      </trkpt>
      <trkpt lat="51.7853" lon="3.87362">
        <ele>5.04</ele>
        <time>2021-04-09T11:34:02Z</time>
      </trkpt>
      <trkpt lat="51.78517" lon="3.87422">
        <ele>4.4</ele>
        <time>2021-04-09T11:34:08Z</time>
      </trkpt>
      <trkpt lat="51.78395" lon="3.87857">
        <ele>4</ele>
        <time>2021-04-09T11:34:15Z</time>
      </trkpt>
      <trkpt lat="51.78388" lon="3.87897">
        <ele>4</ele>
        <time>2021-04-09T11:34:22Z</time>
      </trkpt>
      <trkpt lat="51.78385" lon="3.87945">
        <ele>3.85</ele>
        <time>2021-04-09T11:34:28Z</time>
      </trkpt>
      <trkpt lat="51.78387" lon="3.87987">
        <ele>3.38</ele>
        <time>2021-04-09T11:34:35Z</time>
      </trkpt>
      <trkpt lat="51.78393" lon="3.88026">
        <ele>3.14</ele>
        <time>2021-04-09T11:34:42Z</time>
      </trkpt>
      <trkpt lat="51.78399" lon="3.88052">
        <ele>2.85</ele>
        <time>2021-04-09T11:34:48Z</time>
      </trkpt>
      <trkpt lat="51.78416" lon="3.88099">
        <ele>3.41</ele>
        <time>2021-04-09T11:34:55Z</time>
      </trkpt>
      <trkpt lat="51.78458" lon="3.882">
        <ele>2.4</ele>
        <time>2021-04-09T11:35:02Z</time>
      </trkpt>
      <trkpt lat="51.78516" lon="3.8833">
        <ele>2.64</ele>
        <time>2021-04-09T11:35:08Z</time>
      </trkpt>
      <trkpt lat="51.78539" lon="3.88373">
        <ele>2.58</ele>
        <time>2021-04-09T11:35:15Z</time>
      </trkpt>
      <trkpt lat="51.7859" lon="3.8844">
        <ele>2.16</ele>
        <time>2021-04-09T11:35:22Z</time>
      </trkpt>
      <trkpt lat="51.7862" lon="3.8846">
        <ele>2</ele>
        <time>2021-04-09T11:35:28Z</time>
      </trkpt>
      <trkpt lat="51.7866" lon="3.88483">
        <ele>2.09</ele>
        <time>2021-04-09T11:35:35Z</time>
      </trkpt>
      <trkpt lat="51.78897" lon="3.88552">
        <ele>0.75</ele>
        <time>2021-04-09T11:35:42Z</time>
      </trkpt>
      <trkpt lat="51.78999" lon="3.88575">
        <ele>1</ele>
        <time>2021-04-09T11:35:48Z</time>
      </trkpt>
      <trkpt lat="51.79043" lon="3.88573">
        <ele>1</ele>
        <time>2021-04-09T11:35:55Z</time>
      </trkpt>
      <trkpt lat="51.7908" lon="3.8856">
        <ele>1</ele>
        <time>2021-04-09T11:36:02Z</time>
      </trkpt>
      <trkpt lat="51.7914" lon="3.88518">
        <ele>2.1</ele>
        <time>2021-04-09T11:36:08Z</time>
      </trkpt>
      <trkpt lat="51.79216" lon="3.88442">
        <ele>4.05</ele>
        <time>2021-04-09T11:36:15Z</time>
      </trkpt>
      <trkpt lat="51.79219" lon="3.88449">
        <ele>4</ele>
        <time>2021-04-09T11:36:21Z</time>
      </trkpt>
      <trkpt lat="51.79223" lon="3.88453">
        <ele>4</ele>
        <time>2021-04-09T11:36:27Z</time>
      </trkpt>
      <trkpt lat="51.7923" lon="3.88455">
        <ele>3.89</ele>
        <time>2021-04-09T11:36:32Z</time>
      </trkpt>
      <trkpt lat="51.79238" lon="3.88463">
        <ele>3.61</ele>
        <time>2021-04-09T11:36:38Z</time>
      </trkpt>
      <trkpt lat="51.79301" lon="3.88618">
        <ele>2.66</ele>
        <time>2021-04-09T11:36:44Z</time>
      </trkpt>
      <trkpt lat="51.79342" lon="3.88729">
        <ele>3.36</ele>
        <time>2021-04-09T11:36:50Z</time>
      </trkpt>
      <trkpt lat="51.79361" lon="3.88773">
        <ele>2.85</ele>
        <time>2021-04-09T11:36:55Z</time>
      </trkpt>
      <trkpt lat="51.79516" lon="3.89245">
        <ele>2</ele>
        <time>2021-04-09T11:37:01Z</time>
      </trkpt>
      <trkpt lat="51.79536" lon="3.89314">
        <ele>2.81</ele>
        <time>2021-04-09T11:37:07Z</time>
      </trkpt>
      <trkpt lat="51.79552" lon="3.89385">
        <ele>3</ele>
        <time>2021-04-09T11:37:13Z</time>
      </trkpt>
      <trkpt lat="51.79567" lon="3.89461">
        <ele>3.82</ele>
        <time>2021-04-09T11:37:18Z</time>
      </trkpt>
      <trkpt lat="51.7958" lon="3.89537">
        <ele>4.6</ele>
        <time>2021-04-09T11:37:24Z</time>
      </trkpt>
      <trkpt lat="51.7959" lon="3.89614">
        <ele>6</ele>
        <time>2021-04-09T11:37:30Z</time>
      </trkpt>
      <trkpt lat="51.796" lon="3.89705">
        <ele>4.47</ele>
        <time>2021-04-09T11:37:36Z</time>
      </trkpt>
      <trkpt lat="51.79616" lon="3.89917">
        <ele>3.13</ele>
        <time>2021-04-09T11:37:41Z</time>
      </trkpt>
      <trkpt lat="51.79629" lon="3.90129">
        <ele>3.03</ele>
        <time>2021-04-09T11:37:47Z</time>
      </trkpt>
      <trkpt lat="51.79649" lon="3.90689">
        <ele>1.32</ele>
        <time>2021-04-09T11:37:53Z</time>
      </trkpt>
      <trkpt lat="51.7966" lon="3.9092">
        <ele>0.87</ele>
        <time>2021-04-09T11:37:59Z</time>
      </trkpt>
      <trkpt lat="51.79676" lon="3.91216">
        <ele>-2</ele>
        <time>2021-04-09T11:38:04Z</time>
      </trkpt>
      <trkpt lat="51.79689" lon="3.91419">
        <ele>-0.94</ele>
        <time>2021-04-09T11:38:10Z</time>
      </trkpt>
      <trkpt lat="51.79713" lon="3.91734">
        <ele>1.8</ele>
        <time>2021-04-09T11:38:16Z</time>
      </trkpt>
      <trkpt lat="51.7975" lon="3.92136">
        <ele>1</ele>
        <time>2021-04-09T11:38:22Z</time>
      </trkpt>
      <trkpt lat="51.79787" lon="3.92471">
        <ele>-0.31</ele>
        <time>2021-04-09T11:38:27Z</time>
      </trkpt>
      <trkpt lat="51.79885" lon="3.93253">
        <ele>2.12</ele>
        <time>2021-04-09T11:38:33Z</time>
      </trkpt>
      <trkpt lat="51.79932" lon="3.93667">
        <ele>0.01</ele>
        <time>2021-04-09T11:38:39Z</time>
      </trkpt>
      <trkpt lat="51.79952" lon="3.93877">
        <ele>1.41</ele>
        <time>2021-04-09T11:38:45Z</time>
      </trkpt>
      <trkpt lat="51.79965" lon="3.93967">
        <ele>2</ele>
        <time>2021-04-09T11:38:50Z</time>
      </trkpt>
      <trkpt lat="51.79977" lon="3.9402">
        <ele>1.68</ele>
        <time>2021-04-09T11:38:56Z</time>
      </trkpt>
      <trkpt lat="51.79993" lon="3.94077">
        <ele>0.25</ele>
        <time>2021-04-09T11:39:02Z</time>
      </trkpt>
      <trkpt lat="51.80027" lon="3.94175">
        <ele>0.91</ele>
        <time>2021-04-09T11:39:08Z</time>
      </trkpt>
      <trkpt lat="51.80063" lon="3.94266">
        <ele>0.88</ele>
        <time>2021-04-09T11:39:13Z</time>
      </trkpt>
      <trkpt lat="51.80108" lon="3.94357">
        <ele>-3.37</ele>
        <time>2021-04-09T11:39:19Z</time>
      </trkpt>
      <trkpt lat="51.80144" lon="3.94422">
        <ele>-0.81</ele>
        <time>2021-04-09T11:39:25Z</time>
      </trkpt>
      <trkpt lat="51.80168" lon="3.94458">
        <ele>-0.05</ele>
        <time>2021-04-09T11:39:31Z</time>
      </trkpt>
      <trkpt lat="51.80192" lon="3.94489">
        <ele>-0.3</ele>
        <time>2021-04-09T11:39:36Z</time>
      </trkpt>
      <trkpt lat="51.80239" lon="3.94537">
        <ele>-2.27</ele>
        <time>2021-04-09T11:39:42Z</time>
      </trkpt>
      <trkpt lat="51.80279" lon="3.94565">
        <ele>-1.95</ele>
        <time>2021-04-09T11:39:48Z</time>
      </trkpt>
      <trkpt lat="51.80319" lon="3.94585">
        <ele>0.46</ele>
        <time>2021-04-09T11:39:54Z</time>
      </trkpt>
      <trkpt lat="51.80343" lon="3.94593">
        <ele>1</ele>
        <time>2021-04-09T11:39:59Z</time>
      </trkpt>
      <trkpt lat="51.80368" lon="3.94598">
        <ele>0.89</ele>
        <time>2021-04-09T11:40:05Z</time>
      </trkpt>
      <trkpt lat="51.80393" lon="3.94601">
        <ele>0.63</ele>
        <time>2021-04-09T11:40:11Z</time>
      </trkpt>
      <trkpt lat="51.80419" lon="3.94601">
        <ele>0.5</ele>
        <time>2021-04-09T11:40:17Z</time>
      </trkpt>
      <trkpt lat="51.8045" lon="3.94596">
        <ele>-0.46</ele>
        <time>2021-04-09T11:40:22Z</time>
      </trkpt>
      <trkpt lat="51.80478" lon="3.94589">
        <ele>0.02</ele>
        <time>2021-04-09T11:40:28Z</time>
      </trkpt>
      <trkpt lat="51.805" lon="3.9458">
        <ele>1</ele>
        <time>2021-04-09T11:40:34Z</time>
      </trkpt>
      <trkpt lat="51.8052" lon="3.94571">
        <ele>1</ele>
        <time>2021-04-09T11:40:40Z</time>
      </trkpt>
      <trkpt lat="51.8059" lon="3.94527">
        <ele>2</ele>
        <time>2021-04-09T11:40:45Z</time>
      </trkpt>
      <trkpt lat="51.80646" lon="3.94496">
        <ele>1</ele>
        <time>2021-04-09T11:40:51Z</time>
      </trkpt>
      <trkpt lat="51.80663" lon="3.94487">
        <ele>1</ele>
        <time>2021-04-09T11:40:57Z</time>
      </trkpt>
      <trkpt lat="51.80688" lon="3.94479">
        <ele>1</ele>
        <time>2021-04-09T11:41:03Z</time>
      </trkpt>
      <trkpt lat="51.80718" lon="3.94473">
        <ele>0.98</ele>
        <time>2021-04-09T11:41:08Z</time>
      </trkpt>
      <trkpt lat="51.80752" lon="3.94471">
        <ele>0.93</ele>
        <time>2021-04-09T11:41:14Z</time>
      </trkpt>
      <trkpt lat="51.80793" lon="3.94477">
        <ele>-0.08</ele>
        <time>2021-04-09T11:41:20Z</time>
      </trkpt>
      <trkpt lat="51.80828" lon="3.94489">
        <ele>0.2</ele>
        <time>2021-04-09T11:41:26Z</time>
      </trkpt>
      <trkpt lat="51.8083" lon="3.94497">
        <ele>-0.03</ele>
        <time>2021-04-09T11:41:30Z</time>
      </trkpt>
      <trkpt lat="51.80838" lon="3.94509">
        <ele>0.17</ele>
        <time>2021-04-09T11:41:35Z</time>
      </trkpt>
      <trkpt lat="51.80847" lon="3.94511">
        <ele>0.49</ele>
        <time>2021-04-09T11:41:40Z</time>
      </trkpt>
      <trkpt lat="51.80852" lon="3.94509">
        <ele>0.66</ele>
        <time>2021-04-09T11:41:44Z</time>
      </trkpt>
      <trkpt lat="51.80859" lon="3.94499">
        <ele>0.93</ele>
        <time>2021-04-09T11:41:49Z</time>
      </trkpt>
      <trkpt lat="51.80911" lon="3.94518">
        <ele>2.28</ele>
        <time>2021-04-09T11:41:54Z</time>
      </trkpt>
      <trkpt lat="51.8093" lon="3.94528">
        <ele>2</ele>
        <time>2021-04-09T11:41:58Z</time>
      </trkpt>
      <trkpt lat="51.80953" lon="3.94541">
        <ele>1.36</ele>
        <time>2021-04-09T11:42:03Z</time>
      </trkpt>
      <trkpt lat="51.80973" lon="3.94557">
        <ele>1</ele>
        <time>2021-04-09T11:42:08Z</time>
      </trkpt>
      <trkpt lat="51.80997" lon="3.94579">
        <ele>1</ele>
        <time>2021-04-09T11:42:12Z</time>
      </trkpt>
      <trkpt lat="51.81027" lon="3.94614">
        <ele>1</ele>
        <time>2021-04-09T11:42:17Z</time>
      </trkpt>
      <trkpt lat="51.81068" lon="3.94669">
        <ele>1.4</ele>
        <time>2021-04-09T11:42:22Z</time>
      </trkpt>
      <trkpt lat="51.81154" lon="3.94803">
        <ele>-0.47</ele>
        <time>2021-04-09T11:42:26Z</time>
      </trkpt>
      <trkpt lat="51.81194" lon="3.94874">
        <ele>-1.46</ele>
        <time>2021-04-09T11:42:31Z</time>
      </trkpt>
      <trkpt lat="51.81207" lon="3.94899">
        <ele>-2</ele>
        <time>2021-04-09T11:42:36Z</time>
      </trkpt>
      <trkpt lat="51.81241" lon="3.94982">
        <ele>-1.12</ele>
        <time>2021-04-09T11:42:40Z</time>
      </trkpt>
      <trkpt lat="51.81354" lon="3.95332">
        <ele>-0.01</ele>
        <time>2021-04-09T11:42:45Z</time>
      </trkpt>
      <trkpt lat="51.8137" lon="3.95392">
        <ele>-1</ele>
        <time>2021-04-09T11:42:50Z</time>
      </trkpt>
      <trkpt lat="51.81385" lon="3.95457">
        <ele>1</ele>
        <time>2021-04-09T11:42:54Z</time>
      </trkpt>
      <trkpt lat="51.81405" lon="3.95558">
        <ele>1</ele>
        <time>2021-04-09T11:42:59Z</time>
      </trkpt>
      <trkpt lat="51.81415" lon="3.95624">
        <ele>1</ele>
        <time>2021-04-09T11:43:04Z</time>
      </trkpt>
      <trkpt lat="51.81427" lon="3.95727">
        <ele>-0.38</ele>
        <time>2021-04-09T11:43:08Z</time>
      </trkpt>
      <trkpt lat="51.81431" lon="3.95783">
        <ele>0.47</ele>
        <time>2021-04-09T11:43:13Z</time>
      </trkpt>
      <trkpt lat="51.81436" lon="3.95885">
        <ele>-0.17</ele>
        <time>2021-04-09T11:43:18Z</time>
      </trkpt>
      <trkpt lat="51.81437" lon="3.95967">
        <ele>-0.34</ele>
        <time>2021-04-09T11:43:22Z</time>
      </trkpt>
      <trkpt lat="51.81433" lon="3.96232">
        <ele>-3.98</ele>
        <time>2021-04-09T11:43:27Z</time>
      </trkpt>
      <trkpt lat="51.81432" lon="3.96677">
        <ele>2</ele>
        <time>2021-04-09T11:43:32Z</time>
      </trkpt>
      <trkpt lat="51.81434" lon="3.96902">
        <ele>-1.38</ele>
        <time>2021-04-09T11:43:36Z</time>
      </trkpt>
      <trkpt lat="51.81435" lon="3.9696">
        <ele>-2</ele>
        <time>2021-04-09T11:43:41Z</time>
      </trkpt>
      <trkpt lat="51.81438" lon="3.97025">
        <ele>-1.22</ele>
        <time>2021-04-09T11:43:46Z</time>
      </trkpt>
      <trkpt lat="51.8145" lon="3.97161">
        <ele>-0.84</ele>
        <time>2021-04-09T11:43:50Z</time>
      </trkpt>
      <trkpt lat="51.81463" lon="3.9726">
        <ele>-1</ele>
        <time>2021-04-09T11:43:55Z</time>
      </trkpt>
      <trkpt lat="51.81475" lon="3.97331">
        <ele>-0.18</ele>
        <time>2021-04-09T11:44:00Z</time>
      </trkpt>
      <trkpt lat="51.81541" lon="3.97681">
        <ele>-0.54</ele>
        <time>2021-04-09T11:44:04Z</time>
      </trkpt>
      <trkpt lat="51.81556" lon="3.97782">
        <ele>1</ele>
        <time>2021-04-09T11:44:09Z</time>
      </trkpt>
      <trkpt lat="51.81563" lon="3.9787">
        <ele>0.96</ele>
        <time>2021-04-09T11:44:14Z</time>
      </trkpt>
      <trkpt lat="51.81569" lon="3.97975">
        <ele>1</ele>
        <time>2021-04-09T11:44:18Z</time>
      </trkpt>
      <trkpt lat="51.8157" lon="3.98058">
        <ele>0.52</ele>
        <time>2021-04-09T11:44:23Z</time>
      </trkpt>
      <trkpt lat="51.81568" lon="3.98195">
        <ele>1.43</ele>
        <time>2021-04-09T11:44:28Z</time>
      </trkpt>
      <trkpt lat="51.81563" lon="3.98291">
        <ele>1</ele>
        <time>2021-04-09T11:44:32Z</time>
      </trkpt>
      <trkpt lat="51.81572" lon="3.98292">
        <ele>1</ele>
        <time>2021-04-09T11:44:37Z</time>
      </trkpt>
      <trkpt lat="51.81619" lon="3.98296">
        <ele>-0.9</ele>
        <time>2021-04-09T11:44:42Z</time>
      </trkpt>
      <trkpt lat="51.81658" lon="3.98304">
        <ele>-0.94</ele>
        <time>2021-04-09T11:44:46Z</time>
      </trkpt>
      <trkpt lat="51.81674" lon="3.98315">
        <ele>-1.06</ele>
        <time>2021-04-09T11:44:51Z</time>
      </trkpt>
      <trkpt lat="51.81691" lon="3.98335">
        <ele>-1.12</ele>
        <time>2021-04-09T11:44:56Z</time>
      </trkpt>
      <trkpt lat="51.81701" lon="3.98353">
        <ele>-0.5</ele>
        <time>2021-04-09T11:45:00Z</time>
      </trkpt>
      <trkpt lat="51.8171" lon="3.98375">
        <ele>0.1</ele>
        <time>2021-04-09T11:45:05Z</time>
      </trkpt>
      <trkpt lat="51.8181" lon="3.98848">
        <ele>0.16</ele>
        <time>2021-04-09T11:45:09Z</time>
      </trkpt>
      <trkpt lat="51.81857" lon="3.99083">
        <ele>-0.15</ele>
        <time>2021-04-09T11:45:14Z</time>
      </trkpt>
      <trkpt lat="51.81868" lon="3.99157">
        <ele>-1.38</ele>
        <time>2021-04-09T11:45:19Z</time>
      </trkpt>
      <trkpt lat="51.81871" lon="3.9921">
        <ele>-1.09</ele>
        <time>2021-04-09T11:45:23Z</time>
      </trkpt>
      <trkpt lat="51.81892" lon="3.99217">
        <ele>-0.06</ele>
        <time>2021-04-09T11:45:29Z</time>
      </trkpt>
      <trkpt lat="51.81899" lon="3.99223">
        <ele>0.35</ele>
        <time>2021-04-09T11:45:36Z</time>
      </trkpt>
      <trkpt lat="51.82" lon="3.9938">
        <ele>-1</ele>
        <time>2021-04-09T11:45:42Z</time>
      </trkpt>
      <trkpt lat="51.82103" lon="3.99545">
        <ele>-0.15</ele>
        <time>2021-04-09T11:45:48Z</time>
      </trkpt>
      <trkpt lat="51.8228" lon="3.9981">
        <ele>-0.99</ele>
        <time>2021-04-09T11:45:54Z</time>
      </trkpt>
      <trkpt lat="51.8238" lon="3.9997">
        <ele>-1.32</ele>
        <time>2021-04-09T11:46:00Z</time>
      </trkpt>
      <trkpt lat="51.8246" lon="4.0009">
        <ele>-1.32</ele>
        <time>2021-04-09T11:46:06Z</time>
      </trkpt>
      <trkpt lat="51.82627" lon="4.00355">
        <ele>-1.43</ele>
        <time>2021-04-09T11:46:12Z</time>
      </trkpt>
      <trkpt lat="51.82642" lon="4.00381">
        <ele>-1</ele>
        <time>2021-04-09T11:46:18Z</time>
      </trkpt>
      <trkpt lat="51.82689" lon="4.00629">
        <ele>-0.21</ele>
        <time>2021-04-09T11:46:24Z</time>
      </trkpt>
      <trkpt lat="51.82698" lon="4.00655">
        <ele>2.7</ele>
        <time>2021-04-09T11:46:30Z</time>
      </trkpt>
      <trkpt lat="51.8271" lon="4.0068">
        <ele>2.4</ele>
        <time>2021-04-09T11:46:36Z</time>
      </trkpt>
      <trkpt lat="51.82722" lon="4.00688">
        <ele>2.5</ele>
        <time>2021-04-09T11:46:43Z</time>
      </trkpt>
      <trkpt lat="51.82738" lon="4.00688">
        <ele>-0.57</ele>
        <time>2021-04-09T11:46:49Z</time>
      </trkpt>
      <trkpt lat="51.82829" lon="4.00676">
        <ele>2.3</ele>
        <time>2021-04-09T11:46:55Z</time>
      </trkpt>
      <trkpt lat="51.82841" lon="4.00678">
        <ele>0.26</ele>
        <time>2021-04-09T11:47:01Z</time>
      </trkpt>
      <trkpt lat="51.82852" lon="4.00683">
        <ele>0.65</ele>
        <time>2021-04-09T11:47:07Z</time>
      </trkpt>
      <trkpt lat="51.8286" lon="4.00692">
        <ele>0.97</ele>
        <time>2021-04-09T11:47:13Z</time>
      </trkpt>
      <trkpt lat="51.82879" lon="4.00718">
        <ele>1.54</ele>
        <time>2021-04-09T11:47:19Z</time>
      </trkpt>
      <trkpt lat="51.82883" lon="4.00704">
        <ele>1.28</ele>
        <time>2021-04-09T11:47:24Z</time>
      </trkpt>
      <trkpt lat="51.82921" lon="4.00648">
        <ele>0.91</ele>
        <time>2021-04-09T11:47:28Z</time>
      </trkpt>
      <trkpt lat="51.82927" lon="4.00645">
        <ele>0.7</ele>
        <time>2021-04-09T11:47:32Z</time>
      </trkpt>
      <trkpt lat="51.82935" lon="4.00649">
        <ele>0.58</ele>
        <time>2021-04-09T11:47:37Z</time>
      </trkpt>
      <trkpt lat="51.82976" lon="4.00717">
        <ele>1.23</ele>
        <time>2021-04-09T11:47:41Z</time>
      </trkpt>
      <trkpt lat="51.82982" lon="4.00733">
        <ele>1.7</ele>
        <time>2021-04-09T11:47:46Z</time>
      </trkpt>
      <trkpt lat="51.83012" lon="4.00793">
        <ele>2.43</ele>
        <time>2021-04-09T11:47:50Z</time>
      </trkpt>
      <trkpt lat="51.83192" lon="4.01105">
        <ele>4.11</ele>
        <time>2021-04-09T11:47:55Z</time>
      </trkpt>
      <trkpt lat="51.83201" lon="4.01125">
        <ele>4.23</ele>
        <time>2021-04-09T11:47:59Z</time>
      </trkpt>
      <trkpt lat="51.83208" lon="4.01149">
        <ele>4.64</ele>
        <time>2021-04-09T11:48:04Z</time>
      </trkpt>
      <trkpt lat="51.83211" lon="4.01177">
        <ele>5.2</ele>
        <time>2021-04-09T11:48:08Z</time>
      </trkpt>
      <trkpt lat="51.8321" lon="4.01207">
        <ele>5.61</ele>
        <time>2021-04-09T11:48:13Z</time>
      </trkpt>
      <trkpt lat="51.832" lon="4.01262">
        <ele>5.83</ele>
        <time>2021-04-09T11:48:17Z</time>
      </trkpt>
      <trkpt lat="51.83163" lon="4.01417">
        <ele>7.01</ele>
        <time>2021-04-09T11:48:22Z</time>
      </trkpt>
      <trkpt lat="51.83141" lon="4.0149">
        <ele>7.37</ele>
        <time>2021-04-09T11:48:26Z</time>
      </trkpt>
      <trkpt lat="51.83119" lon="4.01549">
        <ele>5.52</ele>
        <time>2021-04-09T11:48:31Z</time>
      </trkpt>
      <trkpt lat="51.83076" lon="4.01651">
        <ele>5.74</ele>
        <time>2021-04-09T11:48:35Z</time>
      </trkpt>
      <trkpt lat="51.83049" lon="4.01705">
        <ele>5.3</ele>
        <time>2021-04-09T11:48:39Z</time>
      </trkpt>
      <trkpt lat="51.83003" lon="4.01787">
        <ele>3.2</ele>
        <time>2021-04-09T11:48:44Z</time>
      </trkpt>
      <trkpt lat="51.8295" lon="4.01887">
        <ele>1.28</ele>
        <time>2021-04-09T11:48:48Z</time>
      </trkpt>
      <trkpt lat="51.82931" lon="4.01928">
        <ele>1</ele>
        <time>2021-04-09T11:48:53Z</time>
      </trkpt>
      <trkpt lat="51.82896" lon="4.02014">
        <ele>3.38</ele>
        <time>2021-04-09T11:48:57Z</time>
      </trkpt>
      <trkpt lat="51.82863" lon="4.02123">
        <ele>3.65</ele>
        <time>2021-04-09T11:49:02Z</time>
      </trkpt>
      <trkpt lat="51.82803" lon="4.02366">
        <ele>4.77</ele>
        <time>2021-04-09T11:49:06Z</time>
      </trkpt>
      <trkpt lat="51.82785" lon="4.02428">
        <ele>2.92</ele>
        <time>2021-04-09T11:49:11Z</time>
      </trkpt>
      <trkpt lat="51.8277" lon="4.02476">
        <ele>1.55</ele>
        <time>2021-04-09T11:49:15Z</time>
      </trkpt>
      <trkpt lat="51.82738" lon="4.0256">
        <ele>2</ele>
        <time>2021-04-09T11:49:20Z</time>
      </trkpt>
      <trkpt lat="51.82711" lon="4.02625">
        <ele>1</ele>
        <time>2021-04-09T11:49:24Z</time>
      </trkpt>
      <trkpt lat="51.82661" lon="4.02731">
        <ele>4.34</ele>
        <time>2021-04-09T11:49:29Z</time>
      </trkpt>
      <trkpt lat="51.82587" lon="4.02879">
        <ele>4.52</ele>
        <time>2021-04-09T11:49:33Z</time>
      </trkpt>
      <trkpt lat="51.82372" lon="4.03285">
        <ele>7.19</ele>
        <time>2021-04-09T11:49:38Z</time>
      </trkpt>
      <trkpt lat="51.82333" lon="4.03349">
        <ele>5.37</ele>
        <time>2021-04-09T11:49:42Z</time>
      </trkpt>
      <trkpt lat="51.82151" lon="4.03599">
        <ele>2.28</ele>
        <time>2021-04-09T11:49:46Z</time>
      </trkpt>
      <trkpt lat="51.82092" lon="4.03666">
        <ele>2.65</ele>
        <time>2021-04-09T11:49:51Z</time>
      </trkpt>
      <trkpt lat="51.82083" lon="4.03664">
        <ele>2.89</ele>
        <time>2021-04-09T11:49:53Z</time>
      </trkpt>
      <trkpt lat="51.82076" lon="4.03671">
        <ele>3</ele>
        <time>2021-04-09T11:49:56Z</time>
      </trkpt>
      <trkpt lat="51.82074" lon="4.03677">
        <ele>3</ele>
        <time>2021-04-09T11:49:58Z</time>
      </trkpt>
      <trkpt lat="51.82073" lon="4.0369">
        <ele>3</ele>
        <time>2021-04-09T11:50:00Z</time>
      </trkpt>
      <trkpt lat="51.82076" lon="4.03699">
        <ele>3.16</ele>
        <time>2021-04-09T11:50:02Z</time>
      </trkpt>
      <trkpt lat="51.82081" lon="4.03705">
        <ele>3.37</ele>
        <time>2021-04-09T11:50:05Z</time>
      </trkpt>
      <trkpt lat="51.82089" lon="4.03706">
        <ele>3.15</ele>
        <time>2021-04-09T11:50:07Z</time>
      </trkpt>
      <trkpt lat="51.82097" lon="4.03712">
        <ele>2.82</ele>
        <time>2021-04-09T11:50:09Z</time>
      </trkpt>
      <trkpt lat="51.82136" lon="4.03775">
        <ele>2.02</ele>
        <time>2021-04-09T11:50:12Z</time>
      </trkpt>
      <trkpt lat="51.82175" lon="4.03829">
        <ele>2.05</ele>
        <time>2021-04-09T11:50:14Z</time>
      </trkpt>
      <trkpt lat="51.82198" lon="4.03854">
        <ele>2.12</ele>
        <time>2021-04-09T11:50:16Z</time>
      </trkpt>
      <trkpt lat="51.8223" lon="4.03895">
        <ele>2</ele>
        <time>2021-04-09T11:50:18Z</time>
      </trkpt>
      <trkpt lat="51.82379" lon="4.04097">
        <ele>-0.86</ele>
        <time>2021-04-09T11:50:21Z</time>
      </trkpt>
      <trkpt lat="51.82432" lon="4.04154">
        <ele>4.61</ele>
        <time>2021-04-09T11:50:23Z</time>
      </trkpt>
      <trkpt lat="51.82459" lon="4.04171">
        <ele>6.04</ele>
        <time>2021-04-09T11:50:25Z</time>
      </trkpt>
      <trkpt lat="51.82475" lon="4.0412">
        <ele>7.1</ele>
        <time>2021-04-09T11:50:32Z</time>
      </trkpt>
      <trkpt lat="51.82482" lon="4.04104">
        <ele>7.43</ele>
        <time>2021-04-09T11:50:38Z</time>
      </trkpt>
      <trkpt lat="51.82492" lon="4.04087">
        <ele>8.32</ele>
        <time>2021-04-09T11:50:45Z</time>
      </trkpt>
      <trkpt lat="51.82513" lon="4.04071">
        <ele>9.47</ele>
        <time>2021-04-09T11:50:52Z</time>
      </trkpt>
      <trkpt lat="51.82525" lon="4.04067">
        <ele>9.91</ele>
        <time>2021-04-09T11:50:58Z</time>
      </trkpt>
      <trkpt lat="51.8254" lon="4.04067">
        <ele>10.42</ele>
        <time>2021-04-09T11:51:05Z</time>
      </trkpt>
      <trkpt lat="51.8255" lon="4.0407">
        <ele>10.78</ele>
        <time>2021-04-09T11:51:11Z</time>
      </trkpt>
      <trkpt lat="51.82559" lon="4.04075">
        <ele>11.28</ele>
        <time>2021-04-09T11:51:18Z</time>
      </trkpt>
      <trkpt lat="51.82576" lon="4.0409">
        <ele>12.22</ele>
        <time>2021-04-09T11:51:24Z</time>
      </trkpt>
      <trkpt lat="51.82729" lon="4.04257">
        <ele>12.81</ele>
        <time>2021-04-09T11:51:31Z</time>
      </trkpt>
      <trkpt lat="51.82748" lon="4.0427">
        <ele>12.94</ele>
        <time>2021-04-09T11:51:37Z</time>
      </trkpt>
      <trkpt lat="51.82897" lon="4.04469">
        <ele>4.04</ele>
        <time>2021-04-09T11:51:44Z</time>
      </trkpt>
      <trkpt lat="51.83645" lon="4.0548">
        <ele>5.54</ele>
        <time>2021-04-09T11:51:51Z</time>
      </trkpt>
      <trkpt lat="51.83816" lon="4.05717">
        <ele>12.43</ele>
        <time>2021-04-09T11:51:57Z</time>
      </trkpt>
      <trkpt lat="51.83891" lon="4.05832">
        <ele>12.06</ele>
        <time>2021-04-09T11:52:04Z</time>
      </trkpt>
      <trkpt lat="51.83964" lon="4.05952">
        <ele>12.92</ele>
        <time>2021-04-09T11:52:10Z</time>
      </trkpt>
      <trkpt lat="51.84011" lon="4.06038">
        <ele>12.44</ele>
        <time>2021-04-09T11:52:17Z</time>
      </trkpt>
      <trkpt lat="51.84081" lon="4.06175">
        <ele>13.53</ele>
        <time>2021-04-09T11:52:23Z</time>
      </trkpt>
      <trkpt lat="51.84151" lon="4.06327">
        <ele>14</ele>
        <time>2021-04-09T11:52:30Z</time>
      </trkpt>
      <trkpt lat="51.84243" lon="4.06577">
        <ele>11.26</ele>
        <time>2021-04-09T11:52:37Z</time>
      </trkpt>
      <trkpt lat="51.84308" lon="4.06789">
        <ele>8.64</ele>
        <time>2021-04-09T11:52:43Z</time>
      </trkpt>
      <trkpt lat="51.84335" lon="4.06887">
        <ele>9.06</ele>
        <time>2021-04-09T11:52:50Z</time>
      </trkpt>
      <trkpt lat="51.84347" lon="4.06936">
        <ele>7.79</ele>
        <time>2021-04-09T11:52:56Z</time>
      </trkpt>
      <trkpt lat="51.84469" lon="4.07502">
        <ele>7.9</ele>
        <time>2021-04-09T11:53:03Z</time>
      </trkpt>
      <trkpt lat="51.84528" lon="4.07753">
        <ele>4.09</ele>
        <time>2021-04-09T11:53:09Z</time>
      </trkpt>
      <trkpt lat="51.84607" lon="4.08064">
        <ele>3</ele>
        <time>2021-04-09T11:53:16Z</time>
      </trkpt>
      <trkpt lat="51.8466" lon="4.08255">
        <ele>4.54</ele>
        <time>2021-04-09T11:53:22Z</time>
      </trkpt>
      <trkpt lat="51.84722" lon="4.08455">
        <ele>-0.63</ele>
        <time>2021-04-09T11:53:29Z</time>
      </trkpt>
      <trkpt lat="51.84766" lon="4.0859">
        <ele>-0.9</ele>
        <time>2021-04-09T11:53:36Z</time>
      </trkpt>
      <trkpt lat="51.84797" lon="4.08694">
        <ele>0.69</ele>
        <time>2021-04-09T11:53:42Z</time>
      </trkpt>
      <trkpt lat="51.84837" lon="4.08819">
        <ele>0.47</ele>
        <time>2021-04-09T11:53:49Z</time>
      </trkpt>
      <trkpt lat="51.84833" lon="4.08829">
        <ele>0.85</ele>
        <time>2021-04-09T11:53:53Z</time>
      </trkpt>
      <trkpt lat="51.84832" lon="4.08842">
        <ele>0.97</ele>
        <time>2021-04-09T11:53:58Z</time>
      </trkpt>
      <trkpt lat="51.84835" lon="4.08853">
        <ele>1</ele>
        <time>2021-04-09T11:54:02Z</time>
      </trkpt>
      <trkpt lat="51.8484" lon="4.08861">
        <ele>1</ele>
        <time>2021-04-09T11:54:06Z</time>
      </trkpt>
      <trkpt lat="51.84846" lon="4.08866">
        <ele>1</ele>
        <time>2021-04-09T11:54:11Z</time>
      </trkpt>
      <trkpt lat="51.84853" lon="4.08866">
        <ele>1</ele>
        <time>2021-04-09T11:54:15Z</time>
      </trkpt>
      <trkpt lat="51.84908" lon="4.09009">
        <ele>-0.33</ele>
        <time>2021-04-09T11:54:20Z</time>
      </trkpt>
      <trkpt lat="51.84915" lon="4.09033">
        <ele>0.13</ele>
        <time>2021-04-09T11:54:24Z</time>
      </trkpt>
      <trkpt lat="51.84937" lon="4.09082">
        <ele>1</ele>
        <time>2021-04-09T11:54:29Z</time>
      </trkpt>
      <trkpt lat="51.84963" lon="4.09131">
        <ele>0.1</ele>
        <time>2021-04-09T11:54:33Z</time>
      </trkpt>
      <trkpt lat="51.85022" lon="4.09275">
        <ele>-1.11</ele>
        <time>2021-04-09T11:54:37Z</time>
      </trkpt>
      <trkpt lat="51.85107" lon="4.09487">
        <ele>-1.52</ele>
        <time>2021-04-09T11:54:42Z</time>
      </trkpt>
      <trkpt lat="51.8515" lon="4.09605">
        <ele>-2</ele>
        <time>2021-04-09T11:54:46Z</time>
      </trkpt>
      <trkpt lat="51.85203" lon="4.09759">
        <ele>0.32</ele>
        <time>2021-04-09T11:54:51Z</time>
      </trkpt>
      <trkpt lat="51.85279" lon="4.09991">
        <ele>-0.66</ele>
        <time>2021-04-09T11:54:55Z</time>
      </trkpt>
      <trkpt lat="51.8532" lon="4.10121">
        <ele>-2</ele>
        <time>2021-04-09T11:55:00Z</time>
      </trkpt>
      <trkpt lat="51.85362" lon="4.10265">
        <ele>-0.44</ele>
        <time>2021-04-09T11:55:04Z</time>
      </trkpt>
      <trkpt lat="51.85454" lon="4.10609">
        <ele>-0.67</ele>
        <time>2021-04-09T11:55:08Z</time>
      </trkpt>
      <trkpt lat="51.85511" lon="4.10858">
        <ele>0.41</ele>
        <time>2021-04-09T11:55:13Z</time>
      </trkpt>
      <trkpt lat="51.85542" lon="4.11">
        <ele>0.5</ele>
        <time>2021-04-09T11:55:17Z</time>
      </trkpt>
      <trkpt lat="51.85571" lon="4.11145">
        <ele>0.56</ele>
        <time>2021-04-09T11:55:22Z</time>
      </trkpt>
      <trkpt lat="51.85644" lon="4.1153">
        <ele>-0.08</ele>
        <time>2021-04-09T11:55:26Z</time>
      </trkpt>
      <trkpt lat="51.85668" lon="4.117">
        <ele>-1</ele>
        <time>2021-04-09T11:55:31Z</time>
      </trkpt>
      <trkpt lat="51.85677" lon="4.11784">
        <ele>-1.38</ele>
        <time>2021-04-09T11:55:35Z</time>
      </trkpt>
      <trkpt lat="51.85694" lon="4.11926">
        <ele>-1.66</ele>
        <time>2021-04-09T11:55:39Z</time>
      </trkpt>
      <trkpt lat="51.85688" lon="4.11934">
        <ele>-1.28</ele>
        <time>2021-04-09T11:55:45Z</time>
      </trkpt>
      <trkpt lat="51.85684" lon="4.11946">
        <ele>-1</ele>
        <time>2021-04-09T11:55:51Z</time>
      </trkpt>
      <trkpt lat="51.85686" lon="4.11963">
        <ele>-1</ele>
        <time>2021-04-09T11:55:57Z</time>
      </trkpt>
      <trkpt lat="51.85692" lon="4.11975">
        <ele>-0.99</ele>
        <time>2021-04-09T11:56:03Z</time>
      </trkpt>
      <trkpt lat="51.85697" lon="4.11978">
        <ele>-1</ele>
        <time>2021-04-09T11:56:09Z</time>
      </trkpt>
      <trkpt lat="51.85711" lon="4.12115">
        <ele>0.22</ele>
        <time>2021-04-09T11:56:14Z</time>
      </trkpt>
      <trkpt lat="51.85721" lon="4.12223">
        <ele>-1.11</ele>
        <time>2021-04-09T11:56:20Z</time>
      </trkpt>
      <trkpt lat="51.85734" lon="4.12315">
        <ele>-0.73</ele>
        <time>2021-04-09T11:56:26Z</time>
      </trkpt>
      <trkpt lat="51.85742" lon="4.12399">
        <ele>-1.39</ele>
        <time>2021-04-09T11:56:32Z</time>
      </trkpt>
      <trkpt lat="51.85761" lon="4.12695">
        <ele>-0.96</ele>
        <time>2021-04-09T11:56:38Z</time>
      </trkpt>
      <trkpt lat="51.85783" lon="4.13319">
        <ele>-2.32</ele>
        <time>2021-04-09T11:56:44Z</time>
      </trkpt>
      <trkpt lat="51.85792" lon="4.13494">
        <ele>-3.12</ele>
        <time>2021-04-09T11:56:50Z</time>
      </trkpt>
      <trkpt lat="51.85803" lon="4.13662">
        <ele>0.74</ele>
        <time>2021-04-09T11:56:55Z</time>
      </trkpt>
      <trkpt lat="51.85818" lon="4.13843">
        <ele>-2.12</ele>
        <time>2021-04-09T11:57:01Z</time>
      </trkpt>
      <trkpt lat="51.85846" lon="4.14118">
        <ele>-1</ele>
        <time>2021-04-09T11:57:07Z</time>
      </trkpt>
      <trkpt lat="51.85872" lon="4.14321">
        <ele>-2.18</ele>
        <time>2021-04-09T11:57:13Z</time>
      </trkpt>
      <trkpt lat="51.85905" lon="4.14548">
        <ele>-3.31</ele>
        <time>2021-04-09T11:57:19Z</time>
      </trkpt>
      <trkpt lat="51.85948" lon="4.14812">
        <ele>-2.87</ele>
        <time>2021-04-09T11:57:25Z</time>
      </trkpt>
      <trkpt lat="51.85989" lon="4.15013">
        <ele>-2.38</ele>
        <time>2021-04-09T11:57:30Z</time>
      </trkpt>
      <trkpt lat="51.861" lon="4.15528">
        <ele>1.41</ele>
        <time>2021-04-09T11:57:36Z</time>
      </trkpt>
      <trkpt lat="51.86135" lon="4.1571">
        <ele>-1.68</ele>
        <time>2021-04-09T11:57:42Z</time>
      </trkpt>
      <trkpt lat="51.86131" lon="4.15721">
        <ele>-2.24</ele>
        <time>2021-04-09T11:57:48Z</time>
      </trkpt>
      <trkpt lat="51.86129" lon="4.15734">
        <ele>-2.35</ele>
        <time>2021-04-09T11:57:55Z</time>
      </trkpt>
      <trkpt lat="51.8612" lon="4.15742">
        <ele>-2.67</ele>
        <time>2021-04-09T11:58:01Z</time>
      </trkpt>
      <trkpt lat="51.86078" lon="4.15772">
        <ele>-0.84</ele>
        <time>2021-04-09T11:58:08Z</time>
      </trkpt>
      <trkpt lat="51.85651" lon="4.16038">
        <ele>-3.93</ele>
        <time>2021-04-09T11:58:14Z</time>
      </trkpt>
      <trkpt lat="51.85533" lon="4.16115">
        <ele>-2.19</ele>
        <time>2021-04-09T11:58:20Z</time>
      </trkpt>
      <trkpt lat="51.85437" lon="4.16173">
        <ele>-2.29</ele>
        <time>2021-04-09T11:58:27Z</time>
      </trkpt>
      <trkpt lat="51.85402" lon="4.1619">
        <ele>-3</ele>
        <time>2021-04-09T11:58:33Z</time>
      </trkpt>
      <trkpt lat="51.85352" lon="4.16195">
        <ele>-3</ele>
        <time>2021-04-09T11:58:39Z</time>
      </trkpt>
      <trkpt lat="51.85346" lon="4.16183">
        <ele>-3</ele>
        <time>2021-04-09T11:58:43Z</time>
      </trkpt>
      <trkpt lat="51.85338" lon="4.16182">
        <ele>-3</ele>
        <time>2021-04-09T11:58:47Z</time>
      </trkpt>
      <trkpt lat="51.85311" lon="4.16199">
        <ele>-2.84</ele>
        <time>2021-04-09T11:58:51Z</time>
      </trkpt>
      <trkpt lat="51.85306" lon="4.16209">
        <ele>-2.47</ele>
        <time>2021-04-09T11:58:55Z</time>
      </trkpt>
      <trkpt lat="51.85305" lon="4.16218">
        <ele>-2.16</ele>
        <time>2021-04-09T11:58:59Z</time>
      </trkpt>
      <trkpt lat="51.85253" lon="4.16257">
        <ele>-2.67</ele>
        <time>2021-04-09T11:59:03Z</time>
      </trkpt>
      <trkpt lat="51.85248" lon="4.16264">
        <ele>-2.56</ele>
        <time>2021-04-09T11:59:07Z</time>
      </trkpt>
      <trkpt lat="51.85227" lon="4.16284">
        <ele>-3.68</ele>
        <time>2021-04-09T11:59:11Z</time>
      </trkpt>
      <trkpt lat="51.85201" lon="4.16313">
        <ele>-3.94</ele>
        <time>2021-04-09T11:59:15Z</time>
      </trkpt>
      <trkpt lat="51.85169" lon="4.16341">
        <ele>-4.63</ele>
        <time>2021-04-09T11:59:19Z</time>
      </trkpt>
      <trkpt lat="51.84953" lon="4.16482">
        <ele>-2.89</ele>
        <time>2021-04-09T11:59:23Z</time>
      </trkpt>
      <trkpt lat="51.84872" lon="4.16533">
        <ele>-3</ele>
        <time>2021-04-09T11:59:27Z</time>
      </trkpt>
      <trkpt lat="51.84817" lon="4.16553">
        <ele>-2.47</ele>
        <time>2021-04-09T11:59:30Z</time>
      </trkpt>
      <trkpt lat="51.84699" lon="4.16628">
        <ele>-1.17</ele>
        <time>2021-04-09T11:59:34Z</time>
      </trkpt>
      <trkpt lat="51.84674" lon="4.16648">
        <ele>-1.33</ele>
        <time>2021-04-09T11:59:38Z</time>
      </trkpt>
      <trkpt lat="51.8466" lon="4.16654">
        <ele>-1.53</ele>
        <time>2021-04-09T11:59:42Z</time>
      </trkpt>
      <trkpt lat="51.84656" lon="4.16648">
        <ele>-1.33</ele>
        <time>2021-04-09T11:59:45Z</time>
      </trkpt>
      <trkpt lat="51.8465" lon="4.16646">
        <ele>-1.26</ele>
        <time>2021-04-09T11:59:49Z</time>
      </trkpt>
      <trkpt lat="51.84642" lon="4.1665">
        <ele>-1.41</ele>
        <time>2021-04-09T11:59:52Z</time>
      </trkpt>
      <trkpt lat="51.84638" lon="4.16659">
        <ele>-1.72</ele>
        <time>2021-04-09T11:59:55Z</time>
      </trkpt>
      <trkpt lat="51.84636" lon="4.1667">
        <ele>-2</ele>
        <time>2021-04-09T11:59:58Z</time>
      </trkpt>
      <trkpt lat="51.84579" lon="4.16705">
        <ele>-1.52</ele>
        <time>2021-04-09T12:00:01Z</time>
      </trkpt>
      <trkpt lat="51.84488" lon="4.16773">
        <ele>0.11</ele>
        <time>2021-04-09T12:00:04Z</time>
      </trkpt>
      <trkpt lat="51.84448" lon="4.16797">
        <ele>1</ele>
        <time>2021-04-09T12:00:07Z</time>
      </trkpt>
      <trkpt lat="51.84423" lon="4.16803">
        <ele>0.76</ele>
        <time>2021-04-09T12:00:10Z</time>
      </trkpt>
      <trkpt lat="51.84397" lon="4.16799">
        <ele>0.13</ele>
        <time>2021-04-09T12:00:14Z</time>
      </trkpt>
      <trkpt lat="51.84331" lon="4.16769">
        <ele>-2.62</ele>
        <time>2021-04-09T12:00:17Z</time>
      </trkpt>
      <trkpt lat="51.8432" lon="4.1677">
        <ele>-2.37</ele>
        <time>2021-04-09T12:00:20Z</time>
      </trkpt>
      <trkpt lat="51.84299" lon="4.1678">
        <ele>-1.77</ele>
        <time>2021-04-09T12:00:23Z</time>
      </trkpt>
      <trkpt lat="51.84268" lon="4.16816">
        <ele>-0.4</ele>
        <time>2021-04-09T12:00:26Z</time>
      </trkpt>
      <trkpt lat="51.84272" lon="4.16826">
        <ele>-0.2</ele>
        <time>2021-04-09T12:00:35Z</time>
      </trkpt>
      <trkpt lat="51.84362" lon="4.17038">
        <ele>-0.7</ele>
        <time>2021-04-09T12:00:44Z</time>
      </trkpt>
      <trkpt lat="51.8439" lon="4.17096">
        <ele>-1.61</ele>
        <time>2021-04-09T12:00:53Z</time>
      </trkpt>
      <trkpt lat="51.84475" lon="4.17301">
        <ele>-0.16</ele>
        <time>2021-04-09T12:01:01Z</time>
      </trkpt>
      <trkpt lat="51.84556" lon="4.1747">
        <ele>-1.97</ele>
        <time>2021-04-09T12:01:10Z</time>
      </trkpt>
      <trkpt lat="51.84571" lon="4.17507">
        <ele>-0.46</ele>
        <time>2021-04-09T12:01:19Z</time>
      </trkpt>
      <trkpt lat="51.84604" lon="4.17583">
        <ele>-1.73</ele>
        <time>2021-04-09T12:01:28Z</time>
      </trkpt>
      <trkpt lat="51.84643" lon="4.17693">
        <ele>-0.15</ele>
        <time>2021-04-09T12:01:37Z</time>
      </trkpt>
      <trkpt lat="51.84696" lon="4.17816">
        <ele>-0.63</ele>
        <time>2021-04-09T12:01:46Z</time>
      </trkpt>
      <trkpt lat="51.84704" lon="4.17831">
        <ele>-0.41</ele>
        <time>2021-04-09T12:01:55Z</time>
      </trkpt>
      <trkpt lat="51.85033" lon="4.18591">
        <ele>-1.46</ele>
        <time>2021-04-09T12:02:03Z</time>
      </trkpt>
      <trkpt lat="51.85061" lon="4.18661">
        <ele>-2.38</ele>
        <time>2021-04-09T12:02:12Z</time>
      </trkpt>
      <trkpt lat="51.85512" lon="4.19709">
        <ele>-1.77</ele>
        <time>2021-04-09T12:02:21Z</time>
      </trkpt>
      <trkpt lat="51.85529" lon="4.19743">
        <ele>-1.05</ele>
        <time>2021-04-09T12:02:30Z</time>
      </trkpt>
      <trkpt lat="51.85581" lon="4.1983">
        <ele>-2.05</ele>
        <time>2021-04-09T12:02:39Z</time>
      </trkpt>
      <trkpt lat="51.85594" lon="4.19858">
        <ele>-1.44</ele>
        <time>2021-04-09T12:02:48Z</time>
      </trkpt>
      <trkpt lat="51.85616" lon="4.19919">
        <ele>-1.39</ele>
        <time>2021-04-09T12:02:56Z</time>
      </trkpt>
      <trkpt lat="51.8564" lon="4.20002">
        <ele>-0.97</ele>
        <time>2021-04-09T12:03:05Z</time>
      </trkpt>
      <trkpt lat="51.85653" lon="4.20039">
        <ele>0.1</ele>
        <time>2021-04-09T12:03:14Z</time>
      </trkpt>
      <trkpt lat="51.85744" lon="4.20247">
        <ele>-0.71</ele>
        <time>2021-04-09T12:03:23Z</time>
      </trkpt>
      <trkpt lat="51.85839" lon="4.20469">
        <ele>-0.37</ele>
        <time>2021-04-09T12:03:32Z</time>
      </trkpt>
      <trkpt lat="51.8601" lon="4.20862">
        <ele>-1.99</ele>
        <time>2021-04-09T12:03:41Z</time>
      </trkpt>
      <trkpt lat="51.86503" lon="4.22013">
        <ele>-3</ele>
        <time>2021-04-09T12:03:49Z</time>
      </trkpt>
      <trkpt lat="51.86544" lon="4.22089">
        <ele>-3.46</ele>
        <time>2021-04-09T12:03:58Z</time>
      </trkpt>
      <trkpt lat="51.86574" lon="4.22139">
        <ele>-1.37</ele>
        <time>2021-04-09T12:04:07Z</time>
      </trkpt>
      <trkpt lat="51.86596" lon="4.22186">
        <ele>1</ele>
        <time>2021-04-09T12:04:16Z</time>
      </trkpt>
      <trkpt lat="51.8661" lon="4.22227">
        <ele>0.05</ele>
        <time>2021-04-09T12:04:25Z</time>
      </trkpt>
      <trkpt lat="51.86622" lon="4.22269">
        <ele>-0.5</ele>
        <time>2021-04-09T12:04:34Z</time>
      </trkpt>
      <trkpt lat="51.8665" lon="4.22354">
        <ele>-1</ele>
        <time>2021-04-09T12:04:42Z</time>
      </trkpt>
      <trkpt lat="51.86672" lon="4.22407">
        <ele>-0.19</ele>
        <time>2021-04-09T12:04:51Z</time>
      </trkpt>
      <trkpt lat="51.86698" lon="4.22445">
        <ele>-0.12</ele>
        <time>2021-04-09T12:05:00Z</time>
      </trkpt>
      <trkpt lat="51.86719" lon="4.2247">
        <ele>-0.89</ele>
        <time>2021-04-09T12:05:09Z</time>
      </trkpt>
      <trkpt lat="51.86744" lon="4.22519">
        <ele>2.5</ele>
        <time>2021-04-09T12:05:18Z</time>
      </trkpt>
      <trkpt lat="51.86726" lon="4.22538">
        <ele>0.06</ele>
        <time>2021-04-09T12:05:24Z</time>
      </trkpt>
      <trkpt lat="51.86675" lon="4.22595">
        <ele>-0.4</ele>
        <time>2021-04-09T12:05:31Z</time>
      </trkpt>
      <trkpt lat="51.86519" lon="4.22752">
        <ele>-1.35</ele>
        <time>2021-04-09T12:05:37Z</time>
      </trkpt>
      <trkpt lat="51.86384" lon="4.22895">
        <ele>-4</ele>
        <time>2021-04-09T12:05:43Z</time>
      </trkpt>
      <trkpt lat="51.86343" lon="4.22942">
        <ele>-3.09</ele>
        <time>2021-04-09T12:05:50Z</time>
      </trkpt>
      <trkpt lat="51.86294" lon="4.23012">
        <ele>-3.84</ele>
        <time>2021-04-09T12:05:56Z</time>
      </trkpt>
      <trkpt lat="51.86272" lon="4.23051">
        <ele>-4.32</ele>
        <time>2021-04-09T12:06:02Z</time>
      </trkpt>
      <trkpt lat="51.86256" lon="4.23086">
        <ele>-4.77</ele>
        <time>2021-04-09T12:06:09Z</time>
      </trkpt>
      <trkpt lat="51.86237" lon="4.23134">
        <ele>-5.47</ele>
        <time>2021-04-09T12:06:15Z</time>
      </trkpt>
      <trkpt lat="51.86221" lon="4.2318">
        <ele>-6.45</ele>
        <time>2021-04-09T12:06:22Z</time>
      </trkpt>
      <trkpt lat="51.86205" lon="4.23238">
        <ele>-3.75</ele>
        <time>2021-04-09T12:06:28Z</time>
      </trkpt>
      <trkpt lat="51.86134" lon="4.23559">
        <ele>-3</ele>
        <time>2021-04-09T12:06:34Z</time>
      </trkpt>
      <trkpt lat="51.86109" lon="4.23681">
        <ele>-3.06</ele>
        <time>2021-04-09T12:06:41Z</time>
      </trkpt>
      <trkpt lat="51.86076" lon="4.23876">
        <ele>-2.14</ele>
        <time>2021-04-09T12:06:47Z</time>
      </trkpt>
      <trkpt lat="51.86033" lon="4.24143">
        <ele>-0.85</ele>
        <time>2021-04-09T12:06:53Z</time>
      </trkpt>
      <trkpt lat="51.8602" lon="4.24252">
        <ele>1.73</ele>
        <time>2021-04-09T12:07:00Z</time>
      </trkpt>
      <trkpt lat="51.86006" lon="4.24346">
        <ele>0.2</ele>
        <time>2021-04-09T12:07:06Z</time>
      </trkpt>
      <trkpt lat="51.85983" lon="4.24478">
        <ele>-0.08</ele>
        <time>2021-04-09T12:07:13Z</time>
      </trkpt>
      <trkpt lat="51.85964" lon="4.24553">
        <ele>1.65</ele>
        <time>2021-04-09T12:07:19Z</time>
      </trkpt>
      <trkpt lat="51.85914" lon="4.2474">
        <ele>0.44</ele>
        <time>2021-04-09T12:07:25Z</time>
      </trkpt>
      <trkpt lat="51.85858" lon="4.2496">
        <ele>-0.89</ele>
        <time>2021-04-09T12:07:32Z</time>
      </trkpt>
      <trkpt lat="51.85849" lon="4.25033">
        <ele>-1.1</ele>
        <time>2021-04-09T12:07:38Z</time>
      </trkpt>
      <trkpt lat="51.85846" lon="4.25081">
        <ele>-1.44</ele>
        <time>2021-04-09T12:07:44Z</time>
      </trkpt>
      <trkpt lat="51.85845" lon="4.25132">
        <ele>-2.4</ele>
        <time>2021-04-09T12:07:51Z</time>
      </trkpt>
      <trkpt lat="51.85851" lon="4.25253">
        <ele>-1.25</ele>
        <time>2021-04-09T12:07:57Z</time>
      </trkpt>
      <trkpt lat="51.85864" lon="4.25419">
        <ele>-3</ele>
        <time>2021-04-09T12:08:03Z</time>
      </trkpt>
      <trkpt lat="51.85879" lon="4.25545">
        <ele>-0.65</ele>
        <time>2021-04-09T12:08:10Z</time>
      </trkpt>
      <trkpt lat="51.85891" lon="4.25696">
        <ele>-0.06</ele>
        <time>2021-04-09T12:08:16Z</time>
      </trkpt>
      <trkpt lat="51.85894" lon="4.25836">
        <ele>-0.81</ele>
        <time>2021-04-09T12:08:23Z</time>
      </trkpt>
      <trkpt lat="51.85889" lon="4.25957">
        <ele>1.02</ele>
        <time>2021-04-09T12:08:29Z</time>
      </trkpt>
      <trkpt lat="51.85885" lon="4.2604">
        <ele>0.33</ele>
        <time>2021-04-09T12:08:35Z</time>
      </trkpt>
      <trkpt lat="51.85883" lon="4.26225">
        <ele>-2.22</ele>
        <time>2021-04-09T12:08:42Z</time>
      </trkpt>
      <trkpt lat="51.85884" lon="4.26359">
        <ele>-3.19</ele>
        <time>2021-04-09T12:08:48Z</time>
      </trkpt>
      <trkpt lat="51.85887" lon="4.26413">
        <ele>-3.07</ele>
        <time>2021-04-09T12:08:54Z</time>
      </trkpt>
      <trkpt lat="51.85898" lon="4.26527">
        <ele>-2</ele>
        <time>2021-04-09T12:09:01Z</time>
      </trkpt>
      <trkpt lat="51.85905" lon="4.26625">
        <ele>-2.33</ele>
        <time>2021-04-09T12:09:07Z</time>
      </trkpt>
      <trkpt lat="51.85908" lon="4.26728">
        <ele>-3.08</ele>
        <time>2021-04-09T12:09:14Z</time>
      </trkpt>
      <trkpt lat="51.85904" lon="4.27115">
        <ele>-2.92</ele>
        <time>2021-04-09T12:09:20Z</time>
      </trkpt>
      <trkpt lat="51.85905" lon="4.27183">
        <ele>-1.42</ele>
        <time>2021-04-09T12:09:26Z</time>
      </trkpt>
      <trkpt lat="51.85908" lon="4.2728">
        <ele>-1.6</ele>
        <time>2021-04-09T12:09:33Z</time>
      </trkpt>
      <trkpt lat="51.85968" lon="4.28103">
        <ele>-1.05</ele>
        <time>2021-04-09T12:09:39Z</time>
      </trkpt>
      <trkpt lat="51.85975" lon="4.28206">
        <ele>1.33</ele>
        <time>2021-04-09T12:09:45Z</time>
      </trkpt>
      <trkpt lat="51.85976" lon="4.28264">
        <ele>1.05</ele>
        <time>2021-04-09T12:09:52Z</time>
      </trkpt>
      <trkpt lat="51.85976" lon="4.28385">
        <ele>1.86</ele>
        <time>2021-04-09T12:09:58Z</time>
      </trkpt>
      <trkpt lat="51.85969" lon="4.28503">
        <ele>-4.77</ele>
        <time>2021-04-09T12:10:05Z</time>
      </trkpt>
      <trkpt lat="51.85912" lon="4.29072">
        <ele>-0.16</ele>
        <time>2021-04-09T12:10:11Z</time>
      </trkpt>
      <trkpt lat="51.85896" lon="4.29214">
        <ele>-4.06</ele>
        <time>2021-04-09T12:10:17Z</time>
      </trkpt>
      <trkpt lat="51.85886" lon="4.29316">
        <ele>-1.88</ele>
        <time>2021-04-09T12:10:24Z</time>
      </trkpt>
      <trkpt lat="51.85874" lon="4.29455">
        <ele>1.2</ele>
        <time>2021-04-09T12:10:30Z</time>
      </trkpt>
      <trkpt lat="51.85848" lon="4.29727">
        <ele>-0.9</ele>
        <time>2021-04-09T12:10:36Z</time>
      </trkpt>
      <trkpt lat="51.85842" lon="4.29763">
        <ele>-0.19</ele>
        <time>2021-04-09T12:10:43Z</time>
      </trkpt>
      <trkpt lat="51.8582" lon="4.29886">
        <ele>-0.37</ele>
        <time>2021-04-09T12:10:49Z</time>
      </trkpt>
      <trkpt lat="51.85797" lon="4.29962">
        <ele>-1.48</ele>
        <time>2021-04-09T12:10:55Z</time>
      </trkpt>
      <trkpt lat="51.85769" lon="4.30033">
        <ele>1.13</ele>
        <time>2021-04-09T12:11:02Z</time>
      </trkpt>
      <trkpt lat="51.85757" lon="4.30058">
        <ele>1.17</ele>
        <time>2021-04-09T12:11:08Z</time>
      </trkpt>
      <trkpt lat="51.85732" lon="4.30105">
        <ele>-0.13</ele>
        <time>2021-04-09T12:11:15Z</time>
      </trkpt>
      <trkpt lat="51.8567" lon="4.30199">
        <ele>-0.16</ele>
        <time>2021-04-09T12:11:21Z</time>
      </trkpt>
      <trkpt lat="51.8567" lon="4.30217">
        <ele>-0.83</ele>
        <time>2021-04-09T12:11:25Z</time>
      </trkpt>
      <trkpt lat="51.8568" lon="4.30242">
        <ele>-1</ele>
        <time>2021-04-09T12:11:30Z</time>
      </trkpt>
      <trkpt lat="51.85794" lon="4.3047">
        <ele>-3.04</ele>
        <time>2021-04-09T12:11:34Z</time>
      </trkpt>
      <trkpt lat="51.85811" lon="4.305">
        <ele>-1.81</ele>
        <time>2021-04-09T12:11:39Z</time>
      </trkpt>
      <trkpt lat="51.85844" lon="4.3055">
        <ele>1.27</ele>
        <time>2021-04-09T12:11:43Z</time>
      </trkpt>
      <trkpt lat="51.85876" lon="4.3059">
        <ele>2.37</ele>
        <time>2021-04-09T12:11:47Z</time>
      </trkpt>
      <trkpt lat="51.85936" lon="4.30652">
        <ele>0.48</ele>
        <time>2021-04-09T12:11:52Z</time>
      </trkpt>
      <trkpt lat="51.85977" lon="4.30685">
        <ele>-1.08</ele>
        <time>2021-04-09T12:11:56Z</time>
      </trkpt>
      <trkpt lat="51.86016" lon="4.3071">
        <ele>3.58</ele>
        <time>2021-04-09T12:12:01Z</time>
      </trkpt>
      <trkpt lat="51.86056" lon="4.30731">
        <ele>5.99</ele>
        <time>2021-04-09T12:12:05Z</time>
      </trkpt>
      <trkpt lat="51.8611" lon="4.30749">
        <ele>2.16</ele>
        <time>2021-04-09T12:12:10Z</time>
      </trkpt>
      <trkpt lat="51.86163" lon="4.30758">
        <ele>0.71</ele>
        <time>2021-04-09T12:12:14Z</time>
      </trkpt>
      <trkpt lat="51.86219" lon="4.3076">
        <ele>5.35</ele>
        <time>2021-04-09T12:12:18Z</time>
      </trkpt>
      <trkpt lat="51.8639" lon="4.30759">
        <ele>3.66</ele>
        <time>2021-04-09T12:12:23Z</time>
      </trkpt>
      <trkpt lat="51.86698" lon="4.30749">
        <ele>-0.92</ele>
        <time>2021-04-09T12:12:27Z</time>
      </trkpt>
      <trkpt lat="51.86766" lon="4.30751">
        <ele>-1.9</ele>
        <time>2021-04-09T12:12:32Z</time>
      </trkpt>
      <trkpt lat="51.8679" lon="4.30749">
        <ele>-2.27</ele>
        <time>2021-04-09T12:12:36Z</time>
      </trkpt>
      <trkpt lat="51.86805" lon="4.3075">
        <ele>-2.43</ele>
        <time>2021-04-09T12:12:40Z</time>
      </trkpt>
      <trkpt lat="51.86819" lon="4.30755">
        <ele>-2.57</ele>
        <time>2021-04-09T12:12:45Z</time>
      </trkpt>
      <trkpt lat="51.86855" lon="4.30778">
        <ele>-2.93</ele>
        <time>2021-04-09T12:12:49Z</time>
      </trkpt>
      <trkpt lat="51.86859" lon="4.30784">
        <ele>-2.9</ele>
        <time>2021-04-09T12:12:54Z</time>
      </trkpt>
      <trkpt lat="51.86861" lon="4.30795">
        <ele>-2.85</ele>
        <time>2021-04-09T12:12:58Z</time>
      </trkpt>
      <trkpt lat="51.86878" lon="4.31076">
        <ele>-0.23</ele>
        <time>2021-04-09T12:13:02Z</time>
      </trkpt>
      <trkpt lat="51.86888" lon="4.31201">
        <ele>3.81</ele>
        <time>2021-04-09T12:13:07Z</time>
      </trkpt>
      <trkpt lat="51.86924" lon="4.31485">
        <ele>5.22</ele>
        <time>2021-04-09T12:13:19Z</time>
      </trkpt>
      <trkpt lat="51.86958" lon="4.3178">
        <ele>6.5</ele>
        <time>2021-04-09T12:13:31Z</time>
      </trkpt>
      <trkpt lat="51.86971" lon="4.32097">
        <ele>2.94</ele>
        <time>2021-04-09T12:13:43Z</time>
      </trkpt>
      <trkpt lat="51.87" lon="4.32722">
        <ele>5.95</ele>
        <time>2021-04-09T12:13:55Z</time>
      </trkpt>
      <trkpt lat="51.87007" lon="4.32797">
        <ele>5.7</ele>
        <time>2021-04-09T12:14:07Z</time>
      </trkpt>
      <trkpt lat="51.87022" lon="4.32926">
        <ele>5.27</ele>
        <time>2021-04-09T12:14:19Z</time>
      </trkpt>
      <trkpt lat="51.87042" lon="4.33051">
        <ele>4.85</ele>
        <time>2021-04-09T12:14:31Z</time>
      </trkpt>
      <trkpt lat="51.87055" lon="4.33113">
        <ele>4.64</ele>
        <time>2021-04-09T12:14:43Z</time>
      </trkpt>
      <trkpt lat="51.87083" lon="4.33236">
        <ele>4.22</ele>
        <time>2021-04-09T12:14:55Z</time>
      </trkpt>
      <trkpt lat="51.87144" lon="4.33477">
        <ele>3.4</ele>
        <time>2021-04-09T12:15:08Z</time>
      </trkpt>
      <trkpt lat="51.87304" lon="4.34098">
        <ele>-1.55</ele>
        <time>2021-04-09T12:15:20Z</time>
      </trkpt>
      <trkpt lat="51.87452" lon="4.34686">
        <ele>3.65</ele>
        <time>2021-04-09T12:15:32Z</time>
      </trkpt>
      <trkpt lat="51.87485" lon="4.34863">
        <ele>2.43</ele>
        <time>2021-04-09T12:15:44Z</time>
      </trkpt>
      <trkpt lat="51.87507" lon="4.35005">
        <ele>8.53</ele>
        <time>2021-04-09T12:15:56Z</time>
      </trkpt>
      <trkpt lat="51.87521" lon="4.35122">
        <ele>7.16</ele>
        <time>2021-04-09T12:16:08Z</time>
      </trkpt>
      <trkpt lat="51.87586" lon="4.36031">
        <ele>4.12</ele>
        <time>2021-04-09T12:16:20Z</time>
      </trkpt>
      <trkpt lat="51.87594" lon="4.36184">
        <ele>3.37</ele>
        <time>2021-04-09T12:16:32Z</time>
      </trkpt>
      <trkpt lat="51.87588" lon="4.36343">
        <ele>4</ele>
        <time>2021-04-09T12:16:38Z</time>
      </trkpt>
      <trkpt lat="51.87568" lon="4.36767">
        <ele>1.86</ele>
        <time>2021-04-09T12:16:43Z</time>
      </trkpt>
      <trkpt lat="51.87567" lon="4.3684">
        <ele>-0.3</ele>
        <time>2021-04-09T12:16:49Z</time>
      </trkpt>
      <trkpt lat="51.87552" lon="4.36996">
        <ele>-3.76</ele>
        <time>2021-04-09T12:16:54Z</time>
      </trkpt>
      <trkpt lat="51.87542" lon="4.37081">
        <ele>-3</ele>
        <time>2021-04-09T12:17:00Z</time>
      </trkpt>
      <trkpt lat="51.87523" lon="4.37182">
        <ele>-3.82</ele>
        <time>2021-04-09T12:17:05Z</time>
      </trkpt>
      <trkpt lat="51.875" lon="4.37273">
        <ele>-4.01</ele>
        <time>2021-04-09T12:17:11Z</time>
      </trkpt>
      <trkpt lat="51.87453" lon="4.37426">
        <ele>0.4</ele>
        <time>2021-04-09T12:17:16Z</time>
      </trkpt>
      <trkpt lat="51.87433" lon="4.375">
        <ele>2.97</ele>
        <time>2021-04-09T12:17:22Z</time>
      </trkpt>
      <trkpt lat="51.87401" lon="4.37668">
        <ele>-1.58</ele>
        <time>2021-04-09T12:17:28Z</time>
      </trkpt>
      <trkpt lat="51.87385" lon="4.37742">
        <ele>-2.26</ele>
        <time>2021-04-09T12:17:33Z</time>
      </trkpt>
      <trkpt lat="51.87359" lon="4.37823">
        <ele>1.3</ele>
        <time>2021-04-09T12:17:39Z</time>
      </trkpt>
      <trkpt lat="51.87336" lon="4.37887">
        <ele>0.96</ele>
        <time>2021-04-09T12:17:44Z</time>
      </trkpt>
      <trkpt lat="51.87322" lon="4.37937">
        <ele>-1.14</ele>
        <time>2021-04-09T12:17:49Z</time>
      </trkpt>
      <trkpt lat="51.87264" lon="4.38118">
        <ele>2.89</ele>
        <time>2021-04-09T12:17:53Z</time>
      </trkpt>
      <trkpt lat="51.87252" lon="4.38163">
        <ele>1.15</ele>
        <time>2021-04-09T12:17:58Z</time>
      </trkpt>
      <trkpt lat="51.87243" lon="4.38207">
        <ele>0.47</ele>
        <time>2021-04-09T12:18:02Z</time>
      </trkpt>
      <trkpt lat="51.87236" lon="4.38253">
        <ele>1.23</ele>
        <time>2021-04-09T12:18:07Z</time>
      </trkpt>
      <trkpt lat="51.87233" lon="4.38319">
        <ele>2.5</ele>
        <time>2021-04-09T12:18:11Z</time>
      </trkpt>
      <trkpt lat="51.87234" lon="4.3836">
        <ele>1.84</ele>
        <time>2021-04-09T12:18:15Z</time>
      </trkpt>
      <trkpt lat="51.87237" lon="4.38402">
        <ele>0.83</ele>
        <time>2021-04-09T12:18:20Z</time>
      </trkpt>
      <trkpt lat="51.87247" lon="4.38465">
        <ele>2.2</ele>
        <time>2021-04-09T12:18:24Z</time>
      </trkpt>
      <trkpt lat="51.87262" lon="4.38521">
        <ele>0.65</ele>
        <time>2021-04-09T12:18:29Z</time>
      </trkpt>
      <trkpt lat="51.87272" lon="4.38548">
        <ele>2.83</ele>
        <time>2021-04-09T12:18:33Z</time>
      </trkpt>
      <trkpt lat="51.87289" lon="4.38589">
        <ele>3.62</ele>
        <time>2021-04-09T12:18:38Z</time>
      </trkpt>
      <trkpt lat="51.87307" lon="4.38626">
        <ele>4.33</ele>
        <time>2021-04-09T12:18:42Z</time>
      </trkpt>
      <trkpt lat="51.87339" lon="4.38675">
        <ele>5.35</ele>
        <time>2021-04-09T12:18:47Z</time>
      </trkpt>
      <trkpt lat="51.87366" lon="4.38705">
        <ele>6.07</ele>
        <time>2021-04-09T12:18:51Z</time>
      </trkpt>
      <trkpt lat="51.87402" lon="4.38735">
        <ele>4.88</ele>
        <time>2021-04-09T12:18:56Z</time>
      </trkpt>
      <trkpt lat="51.87434" lon="4.38754">
        <ele>2.52</ele>
        <time>2021-04-09T12:19:00Z</time>
      </trkpt>
      <trkpt lat="51.87482" lon="4.38771">
        <ele>4.27</ele>
        <time>2021-04-09T12:19:04Z</time>
      </trkpt>
      <trkpt lat="51.87542" lon="4.38773">
        <ele>5.15</ele>
        <time>2021-04-09T12:19:09Z</time>
      </trkpt>
      <trkpt lat="51.87602" lon="4.3875">
        <ele>5.33</ele>
        <time>2021-04-09T12:19:13Z</time>
      </trkpt>
      <trkpt lat="51.87644" lon="4.38723">
        <ele>7.96</ele>
        <time>2021-04-09T12:19:18Z</time>
      </trkpt>
      <trkpt lat="51.87678" lon="4.38694">
        <ele>8.61</ele>
        <time>2021-04-09T12:19:22Z</time>
      </trkpt>
      <trkpt lat="51.87738" lon="4.38649">
        <ele>10.01</ele>
        <time>2021-04-09T12:19:27Z</time>
      </trkpt>
      <trkpt lat="51.87834" lon="4.38555">
        <ele>10.05</ele>
        <time>2021-04-09T12:19:31Z</time>
      </trkpt>
      <trkpt lat="51.87933" lon="4.38468">
        <ele>8</ele>
        <time>2021-04-09T12:19:36Z</time>
      </trkpt>
      <trkpt lat="51.8796" lon="4.38447">
        <ele>9.69</ele>
        <time>2021-04-09T12:19:40Z</time>
      </trkpt>
      <trkpt lat="51.88051" lon="4.38381">
        <ele>6.96</ele>
        <time>2021-04-09T12:19:45Z</time>
      </trkpt>
      <trkpt lat="51.88136" lon="4.38325">
        <ele>5.51</ele>
        <time>2021-04-09T12:19:49Z</time>
      </trkpt>
      <trkpt lat="51.88342" lon="4.38198">
        <ele>6</ele>
        <time>2021-04-09T12:19:54Z</time>
      </trkpt>
      <trkpt lat="51.8846" lon="4.3813">
        <ele>1.36</ele>
        <time>2021-04-09T12:19:58Z</time>
      </trkpt>
      <trkpt lat="51.88635" lon="4.38036">
        <ele>1.95</ele>
        <time>2021-04-09T12:20:02Z</time>
      </trkpt>
      <trkpt lat="51.88807" lon="4.37955">
        <ele>0.07</ele>
        <time>2021-04-09T12:20:07Z</time>
      </trkpt>
      <trkpt lat="51.88916" lon="4.3791">
        <ele>3.27</ele>
        <time>2021-04-09T12:20:11Z</time>
      </trkpt>
      <trkpt lat="51.88955" lon="4.37892">
        <ele>5.26</ele>
        <time>2021-04-09T12:20:20Z</time>
      </trkpt>
      <trkpt lat="51.89032" lon="4.37866">
        <ele>5.13</ele>
        <time>2021-04-09T12:20:28Z</time>
      </trkpt>
      <trkpt lat="51.89186" lon="4.3782">
        <ele>5.34</ele>
        <time>2021-04-09T12:20:36Z</time>
      </trkpt>
      <trkpt lat="51.89267" lon="4.37786">
        <ele>5.38</ele>
        <time>2021-04-09T12:20:45Z</time>
      </trkpt>
      <trkpt lat="51.89352" lon="4.37736">
        <ele>3</ele>
        <time>2021-04-09T12:20:53Z</time>
      </trkpt>
      <trkpt lat="51.89401" lon="4.37699">
        <ele>2.4</ele>
        <time>2021-04-09T12:21:01Z</time>
      </trkpt>
      <trkpt lat="51.89443" lon="4.37663">
        <ele>2.01</ele>
        <time>2021-04-09T12:21:09Z</time>
      </trkpt>
      <trkpt lat="51.89486" lon="4.3762">
        <ele>0.65</ele>
        <time>2021-04-09T12:21:18Z</time>
      </trkpt>
      <trkpt lat="51.89542" lon="4.37559">
        <ele>0.5</ele>
        <time>2021-04-09T12:21:26Z</time>
      </trkpt>
      <trkpt lat="51.89675" lon="4.374">
        <ele>0.38</ele>
        <time>2021-04-09T12:21:34Z</time>
      </trkpt>
      <trkpt lat="51.89797" lon="4.37279">
        <ele>0.29</ele>
        <time>2021-04-09T12:21:43Z</time>
      </trkpt>
      <trkpt lat="51.899" lon="4.37199">
        <ele>0.22</ele>
        <time>2021-04-09T12:21:51Z</time>
      </trkpt>
      <trkpt lat="51.89983" lon="4.37148">
        <ele>0.16</ele>
        <time>2021-04-09T12:21:59Z</time>
      </trkpt>
      <trkpt lat="51.90053" lon="4.3712">
        <ele>0.12</ele>
        <time>2021-04-09T12:22:07Z</time>
      </trkpt>
      <trkpt lat="51.90117" lon="4.37098">
        <ele>0.09</ele>
        <time>2021-04-09T12:22:16Z</time>
      </trkpt>
      <trkpt lat="51.90231" lon="4.37072">
        <ele>0.02</ele>
        <time>2021-04-09T12:22:24Z</time>
      </trkpt>
      <trkpt lat="51.90278" lon="4.37072">
        <ele>-0.01</ele>
        <time>2021-04-09T12:22:32Z</time>
      </trkpt>
      <trkpt lat="51.90364" lon="4.37071">
        <ele>-1.12</ele>
        <time>2021-04-09T12:22:41Z</time>
      </trkpt>
      <trkpt lat="51.90522" lon="4.37091">
        <ele>5</ele>
        <time>2021-04-09T12:22:49Z</time>
      </trkpt>
      <trkpt lat="51.90612" lon="4.37099">
        <ele>4.21</ele>
        <time>2021-04-09T12:22:57Z</time>
      </trkpt>
      <trkpt lat="51.9072" lon="4.37098">
        <ele>2.61</ele>
        <time>2021-04-09T12:23:05Z</time>
      </trkpt>
      <trkpt lat="51.90786" lon="4.3709">
        <ele>5.76</ele>
        <time>2021-04-09T12:23:14Z</time>
      </trkpt>
      <trkpt lat="51.90857" lon="4.37075">
        <ele>5.12</ele>
        <time>2021-04-09T12:23:22Z</time>
      </trkpt>
      <trkpt lat="51.90918" lon="4.37057">
        <ele>1.03</ele>
        <time>2021-04-09T12:23:30Z</time>
      </trkpt>
      <trkpt lat="51.91031" lon="4.37011">
        <ele>2.79</ele>
        <time>2021-04-09T12:23:39Z</time>
      </trkpt>
      <trkpt lat="51.9118" lon="4.3693">
        <ele>-5.03</ele>
        <time>2021-04-09T12:23:47Z</time>
      </trkpt>
      <trkpt lat="51.91246" lon="4.36897">
        <ele>-7.51</ele>
        <time>2021-04-09T12:23:55Z</time>
      </trkpt>
      <trkpt lat="51.91294" lon="4.36876">
        <ele>-3.4</ele>
        <time>2021-04-09T12:24:03Z</time>
      </trkpt>
      <trkpt lat="51.91419" lon="4.3683">
        <ele>-2.81</ele>
        <time>2021-04-09T12:24:12Z</time>
      </trkpt>
      <trkpt lat="51.91495" lon="4.36798">
        <ele>-4.62</ele>
        <time>2021-04-09T12:24:20Z</time>
      </trkpt>
      <trkpt lat="51.91539" lon="4.36785">
        <ele>-5</ele>
        <time>2021-04-09T12:24:28Z</time>
      </trkpt>
      <trkpt lat="51.91629" lon="4.36753">
        <ele>-3.83</ele>
        <time>2021-04-09T12:24:37Z</time>
      </trkpt>
      <trkpt lat="51.91817" lon="4.36698">
        <ele>0.43</ele>
        <time>2021-04-09T12:24:45Z</time>
      </trkpt>
      <trkpt lat="51.9191" lon="4.36674">
        <ele>1.23</ele>
        <time>2021-04-09T12:24:53Z</time>
      </trkpt>
      <trkpt lat="51.92121" lon="4.36642">
        <ele>0.95</ele>
        <time>2021-04-09T12:25:01Z</time>
      </trkpt>
      <trkpt lat="51.92297" lon="4.36612">
        <ele>2.65</ele>
        <time>2021-04-09T12:25:10Z</time>
      </trkpt>
      <trkpt lat="51.92514" lon="4.36586">
        <ele>0.29</ele>
        <time>2021-04-09T12:25:18Z</time>
      </trkpt>
      <trkpt lat="51.92713" lon="4.36552">
        <ele>6.67</ele>
        <time>2021-04-09T12:25:26Z</time>
      </trkpt>
      <trkpt lat="51.92857" lon="4.36515">
        <ele>8.99</ele>
        <time>2021-04-09T12:25:35Z</time>
      </trkpt>
      <trkpt lat="51.92923" lon="4.36502">
        <ele>8.52</ele>
        <time>2021-04-09T12:25:43Z</time>
      </trkpt>
      <trkpt lat="51.93014" lon="4.36485">
        <ele>6.99</ele>
        <time>2021-04-09T12:25:51Z</time>
      </trkpt>
      <trkpt lat="51.93113" lon="4.3647">
        <ele>6.18</ele>
        <time>2021-04-09T12:25:59Z</time>
      </trkpt>
      <trkpt lat="51.93188" lon="4.36459">
        <ele>5.77</ele>
        <time>2021-04-09T12:26:08Z</time>
      </trkpt>
      <trkpt lat="51.9334" lon="4.36428">
        <ele>4.95</ele>
        <time>2021-04-09T12:26:16Z</time>
      </trkpt>
      <trkpt lat="51.9346" lon="4.36389">
        <ele>4.28</ele>
        <time>2021-04-09T12:26:24Z</time>
      </trkpt>
      <trkpt lat="51.93613" lon="4.36323">
        <ele>3.41</ele>
        <time>2021-04-09T12:26:33Z</time>
      </trkpt>
      <trkpt lat="51.93766" lon="4.3624">
        <ele>2.5</ele>
        <time>2021-04-09T12:26:41Z</time>
      </trkpt>
      <trkpt lat="51.93917" lon="4.36142">
        <ele>1.56</ele>
        <time>2021-04-09T12:26:49Z</time>
      </trkpt>
      <trkpt lat="51.94099" lon="4.36016">
        <ele>0.39</ele>
        <time>2021-04-09T12:26:57Z</time>
      </trkpt>
      <trkpt lat="51.94466" lon="4.35749">
        <ele>-2</ele>
        <time>2021-04-09T12:27:06Z</time>
      </trkpt>
      <trkpt lat="51.94957" lon="4.35395">
        <ele>-4.91</ele>
        <time>2021-04-09T12:27:14Z</time>
      </trkpt>
      <trkpt lat="51.9512" lon="4.35271">
        <ele>-3</ele>
        <time>2021-04-09T12:27:22Z</time>
      </trkpt>
      <trkpt lat="51.95203" lon="4.35206">
        <ele>-4.7</ele>
        <time>2021-04-09T12:27:31Z</time>
      </trkpt>
      <trkpt lat="51.95455" lon="4.35018">
        <ele>-4</ele>
        <time>2021-04-09T12:27:39Z</time>
      </trkpt>
      <trkpt lat="51.95561" lon="4.34944">
        <ele>-2.83</ele>
        <time>2021-04-09T12:27:47Z</time>
      </trkpt>
      <trkpt lat="51.95687" lon="4.34862">
        <ele>-2.99</ele>
        <time>2021-04-09T12:27:55Z</time>
      </trkpt>
      <trkpt lat="51.95765" lon="4.34815">
        <ele>-3.84</ele>
        <time>2021-04-09T12:28:04Z</time>
      </trkpt>
      <trkpt lat="51.95944" lon="4.34711">
        <ele>-5</ele>
        <time>2021-04-09T12:28:12Z</time>
      </trkpt>
      <trkpt lat="51.96101" lon="4.34625">
        <ele>-3.64</ele>
        <time>2021-04-09T12:28:20Z</time>
      </trkpt>
      <trkpt lat="51.9656" lon="4.34395">
        <ele>-4.17</ele>
        <time>2021-04-09T12:28:29Z</time>
      </trkpt>
      <trkpt lat="51.96688" lon="4.34324">
        <ele>-4.14</ele>
        <time>2021-04-09T12:28:37Z</time>
      </trkpt>
      <trkpt lat="51.968" lon="4.34256">
        <ele>-3.39</ele>
        <time>2021-04-09T12:28:45Z</time>
      </trkpt>
      <trkpt lat="51.96895" lon="4.34194">
        <ele>-4</ele>
        <time>2021-04-09T12:28:53Z</time>
      </trkpt>
      <trkpt lat="51.9699" lon="4.34128">
        <ele>-3.64</ele>
        <time>2021-04-09T12:29:02Z</time>
      </trkpt>
      <trkpt lat="51.97143" lon="4.34011">
        <ele>-5</ele>
        <time>2021-04-09T12:29:10Z</time>
      </trkpt>
      <trkpt lat="51.97325" lon="4.33859">
        <ele>-4</ele>
        <time>2021-04-09T12:29:18Z</time>
      </trkpt>
      <trkpt lat="51.9784" lon="4.33386">
        <ele>-4.31</ele>
        <time>2021-04-09T12:29:27Z</time>
      </trkpt>
      <trkpt lat="51.98154" lon="4.33105">
        <ele>-5.33</ele>
        <time>2021-04-09T12:29:35Z</time>
      </trkpt>
      <trkpt lat="51.98641" lon="4.32657">
        <ele>-3.2</ele>
        <time>2021-04-09T12:29:43Z</time>
      </trkpt>
      <trkpt lat="51.98945" lon="4.32372">
        <ele>-5.98</ele>
        <time>2021-04-09T12:29:51Z</time>
      </trkpt>
      <trkpt lat="51.98954" lon="4.32364">
        <ele>-5.7</ele>
        <time>2021-04-09T12:30:00Z</time>
      </trkpt>
      <trkpt lat="51.98962" lon="4.32357">
        <ele>-5.37</ele>
        <time>2021-04-09T12:30:08Z</time>
      </trkpt>
      <trkpt lat="51.98975" lon="4.32344">
        <ele>-4.89</ele>
        <time>2021-04-09T12:30:16Z</time>
      </trkpt>
      <trkpt lat="51.98979" lon="4.3234">
        <ele>-4.75</ele>
        <time>2021-04-09T12:30:25Z</time>
      </trkpt>
      <trkpt lat="51.98989" lon="4.32331">
        <ele>-4.47</ele>
        <time>2021-04-09T12:30:33Z</time>
      </trkpt>
      <trkpt lat="51.99613" lon="4.31745">
        <ele>-1.84</ele>
        <time>2021-04-09T12:30:41Z</time>
      </trkpt>
      <trkpt lat="51.99757" lon="4.31604">
        <ele>-3.18</ele>
        <time>2021-04-09T12:30:49Z</time>
      </trkpt>
      <trkpt lat="51.99915" lon="4.31452">
        <ele>-2.94</ele>
        <time>2021-04-09T12:30:58Z</time>
      </trkpt>
      <trkpt lat="52.00009" lon="4.31369">
        <ele>-4.29</ele>
        <time>2021-04-09T12:31:06Z</time>
      </trkpt>
      <trkpt lat="52.00087" lon="4.31305">
        <ele>-3</ele>
        <time>2021-04-09T12:31:14Z</time>
      </trkpt>
      <trkpt lat="52.00212" lon="4.31217">
        <ele>-4</ele>
        <time>2021-04-09T12:31:23Z</time>
      </trkpt>
      <trkpt lat="52.003" lon="4.31169">
        <ele>-3.43</ele>
        <time>2021-04-09T12:31:31Z</time>
      </trkpt>
      <trkpt lat="52.00345" lon="4.31146">
        <ele>-3.74</ele>
        <time>2021-04-09T12:31:39Z</time>
      </trkpt>
      <trkpt lat="52.00409" lon="4.31121">
        <ele>-4.91</ele>
        <time>2021-04-09T12:31:47Z</time>
      </trkpt>
      <trkpt lat="52.00527" lon="4.31085">
        <ele>-3.92</ele>
        <time>2021-04-09T12:31:56Z</time>
      </trkpt>
      <trkpt lat="52.00568" lon="4.31077">
        <ele>-3.31</ele>
        <time>2021-04-09T12:32:04Z</time>
      </trkpt>
      <trkpt lat="52.00608" lon="4.31073">
        <ele>-3.82</ele>
        <time>2021-04-09T12:32:12Z</time>
      </trkpt>
      <trkpt lat="52.00684" lon="4.31068">
        <ele>-3.73</ele>
        <time>2021-04-09T12:32:21Z</time>
      </trkpt>
      <trkpt lat="52.0075" lon="4.3107">
        <ele>-4.01</ele>
        <time>2021-04-09T12:32:29Z</time>
      </trkpt>
      <trkpt lat="52.00839" lon="4.3108">
        <ele>-5</ele>
        <time>2021-04-09T12:32:37Z</time>
      </trkpt>
      <trkpt lat="52.00915" lon="4.31096">
        <ele>-4.53</ele>
        <time>2021-04-09T12:32:45Z</time>
      </trkpt>
      <trkpt lat="52.00987" lon="4.31119">
        <ele>-2.27</ele>
        <time>2021-04-09T12:32:54Z</time>
      </trkpt>
      <trkpt lat="52.01045" lon="4.31141">
        <ele>-1.43</ele>
        <time>2021-04-09T12:33:02Z</time>
      </trkpt>
      <trkpt lat="52.01102" lon="4.31168">
        <ele>-2.43</ele>
        <time>2021-04-09T12:33:10Z</time>
      </trkpt>
      <trkpt lat="52.01171" lon="4.31207">
        <ele>-6.65</ele>
        <time>2021-04-09T12:33:19Z</time>
      </trkpt>
      <trkpt lat="52.01295" lon="4.31285">
        <ele>-2.15</ele>
        <time>2021-04-09T12:33:27Z</time>
      </trkpt>
      <trkpt lat="52.01421" lon="4.31375">
        <ele>-4.51</ele>
        <time>2021-04-09T12:33:35Z</time>
      </trkpt>
      <trkpt lat="52.01487" lon="4.31426">
        <ele>-5.34</ele>
        <time>2021-04-09T12:33:43Z</time>
      </trkpt>
      <trkpt lat="52.01942" lon="4.31756">
        <ele>-2.19</ele>
        <time>2021-04-09T12:33:52Z</time>
      </trkpt>
      <trkpt lat="52.02282" lon="4.32004">
        <ele>-5.68</ele>
        <time>2021-04-09T12:34:00Z</time>
      </trkpt>
      <trkpt lat="52.02379" lon="4.32082">
        <ele>-2</ele>
        <time>2021-04-09T12:34:08Z</time>
      </trkpt>
      <trkpt lat="52.02471" lon="4.3216">
        <ele>-10.42</ele>
        <time>2021-04-09T12:34:17Z</time>
      </trkpt>
      <trkpt lat="52.02563" lon="4.32245">
        <ele>-7.34</ele>
        <time>2021-04-09T12:34:25Z</time>
      </trkpt>
      <trkpt lat="52.02628" lon="4.32308">
        <ele>-9.17</ele>
        <time>2021-04-09T12:34:33Z</time>
      </trkpt>
      <trkpt lat="52.02813" lon="4.32503">
        <ele>-4.62</ele>
        <time>2021-04-09T12:34:41Z</time>
      </trkpt>
      <trkpt lat="52.02913" lon="4.32614">
        <ele>-6.64</ele>
        <time>2021-04-09T12:34:50Z</time>
      </trkpt>
      <trkpt lat="52.03123" lon="4.32881">
        <ele>-3.87</ele>
        <time>2021-04-09T12:34:58Z</time>
      </trkpt>
      <trkpt lat="52.03183" lon="4.32963">
        <ele>-1</ele>
        <time>2021-04-09T12:35:06Z</time>
      </trkpt>
      <trkpt lat="52.03337" lon="4.33193">
        <ele>0.81</ele>
        <time>2021-04-09T12:35:15Z</time>
      </trkpt>
      <trkpt lat="52.0356" lon="4.33538">
        <ele>4.79</ele>
        <time>2021-04-09T12:35:23Z</time>
      </trkpt>
      <trkpt lat="52.03585" lon="4.33598">
        <ele>6.41</ele>
        <time>2021-04-09T12:35:28Z</time>
      </trkpt>
      <trkpt lat="52.03702" lon="4.33798">
        <ele>4.26</ele>
        <time>2021-04-09T12:35:34Z</time>
      </trkpt>
      <trkpt lat="52.03727" lon="4.33836">
        <ele>3.21</ele>
        <time>2021-04-09T12:35:39Z</time>
      </trkpt>
      <trkpt lat="52.03828" lon="4.33994">
        <ele>10.43</ele>
        <time>2021-04-09T12:35:50Z</time>
      </trkpt>
      <trkpt lat="52.04054" lon="4.34386">
        <ele>6.02</ele>
        <time>2021-04-09T12:36:01Z</time>
      </trkpt>
      <trkpt lat="52.04115" lon="4.34499">
        <ele>10.95</ele>
        <time>2021-04-09T12:36:11Z</time>
      </trkpt>
      <trkpt lat="52.04167" lon="4.34599">
        <ele>5.87</ele>
        <time>2021-04-09T12:36:22Z</time>
      </trkpt>
      <trkpt lat="52.0425" lon="4.34762">
        <ele>6.58</ele>
        <time>2021-04-09T12:36:33Z</time>
      </trkpt>
      <trkpt lat="52.04315" lon="4.34896">
        <ele>4.1</ele>
        <time>2021-04-09T12:36:45Z</time>
      </trkpt>
      <trkpt lat="52.04397" lon="4.35084">
        <ele>0.98</ele>
        <time>2021-04-09T12:36:56Z</time>
      </trkpt>
      <trkpt lat="52.04472" lon="4.35244">
        <ele>2</ele>
        <time>2021-04-09T12:37:08Z</time>
      </trkpt>
      <trkpt lat="52.04559" lon="4.35413">
        <ele>2.36</ele>
        <time>2021-04-09T12:37:19Z</time>
      </trkpt>
      <trkpt lat="52.04584" lon="4.35455">
        <ele>1.61</ele>
        <time>2021-04-09T12:37:31Z</time>
      </trkpt>
      <trkpt lat="52.04604" lon="4.35497">
        <ele>0.76</ele>
        <time>2021-04-09T12:37:42Z</time>
      </trkpt>
      <trkpt lat="52.04682" lon="4.35643">
        <ele>0.08</ele>
        <time>2021-04-09T12:37:54Z</time>
      </trkpt>
      <trkpt lat="52.04702" lon="4.35679">
        <ele>-1.59</ele>
        <time>2021-04-09T12:38:06Z</time>
      </trkpt>
      <trkpt lat="52.04828" lon="4.35884">
        <ele>-1.16</ele>
        <time>2021-04-09T12:38:17Z</time>
      </trkpt>
      <trkpt lat="52.04958" lon="4.36072">
        <ele>-0.01</ele>
        <time>2021-04-09T12:38:29Z</time>
      </trkpt>
      <trkpt lat="52.05165" lon="4.3634">
        <ele>-0.94</ele>
        <time>2021-04-09T12:38:40Z</time>
      </trkpt>
      <trkpt lat="52.05233" lon="4.36417">
        <ele>-2.39</ele>
        <time>2021-04-09T12:38:52Z</time>
      </trkpt>
      <trkpt lat="52.05274" lon="4.36469">
        <ele>-2.01</ele>
        <time>2021-04-09T12:39:03Z</time>
      </trkpt>
      <trkpt lat="52.06005" lon="4.37339">
        <ele>6.82</ele>
        <time>2021-04-09T12:39:15Z</time>
      </trkpt>
      <trkpt lat="52.06408" lon="4.37805">
        <ele>2</ele>
        <time>2021-04-09T12:39:26Z</time>
      </trkpt>
      <trkpt lat="52.06508" lon="4.37924">
        <ele>1.22</ele>
        <time>2021-04-09T12:39:38Z</time>
      </trkpt>
      <trkpt lat="52.06564" lon="4.38002">
        <ele>-5</ele>
        <time>2021-04-09T12:39:46Z</time>
      </trkpt>
      <trkpt lat="52.06624" lon="4.38081">
        <ele>-1.08</ele>
        <time>2021-04-09T12:39:55Z</time>
      </trkpt>
      <trkpt lat="52.06692" lon="4.38182">
        <ele>-2</ele>
        <time>2021-04-09T12:40:03Z</time>
      </trkpt>
      <trkpt lat="52.06857" lon="4.38464">
        <ele>-0.87</ele>
        <time>2021-04-09T12:40:12Z</time>
      </trkpt>
      <trkpt lat="52.06917" lon="4.38571">
        <ele>-6</ele>
        <time>2021-04-09T12:40:20Z</time>
      </trkpt>
      <trkpt lat="52.0698" lon="4.38691">
        <ele>-2.74</ele>
        <time>2021-04-09T12:40:29Z</time>
      </trkpt>
      <trkpt lat="52.07035" lon="4.38806">
        <ele>-5.01</ele>
        <time>2021-04-09T12:40:37Z</time>
      </trkpt>
      <trkpt lat="52.07083" lon="4.38916">
        <ele>-6.98</ele>
        <time>2021-04-09T12:40:46Z</time>
      </trkpt>
      <trkpt lat="52.07261" lon="4.39354">
        <ele>-5</ele>
        <time>2021-04-09T12:40:54Z</time>
      </trkpt>
      <trkpt lat="52.07331" lon="4.39536">
        <ele>-5.93</ele>
        <time>2021-04-09T12:41:03Z</time>
      </trkpt>
      <trkpt lat="52.0747" lon="4.39923">
        <ele>-4.78</ele>
        <time>2021-04-09T12:41:15Z</time>
      </trkpt>
      <trkpt lat="52.07524" lon="4.4006">
        <ele>-4</ele>
        <time>2021-04-09T12:41:28Z</time>
      </trkpt>
      <trkpt lat="52.07594" lon="4.40213">
        <ele>-2.65</ele>
        <time>2021-04-09T12:41:40Z</time>
      </trkpt>
      <trkpt lat="52.07677" lon="4.40363">
        <ele>-0.9</ele>
        <time>2021-04-09T12:41:53Z</time>
      </trkpt>
      <trkpt lat="52.07721" lon="4.40435">
        <ele>1.29</ele>
        <time>2021-04-09T12:42:05Z</time>
      </trkpt>
      <trkpt lat="52.07813" lon="4.40571">
        <ele>1.28</ele>
        <time>2021-04-09T12:42:17Z</time>
      </trkpt>
      <trkpt lat="52.07857" lon="4.40617">
        <ele>4.51</ele>
        <time>2021-04-09T12:42:30Z</time>
      </trkpt>
      <trkpt lat="52.079" lon="4.40675">
        <ele>1</ele>
        <time>2021-04-09T12:42:42Z</time>
      </trkpt>
      <trkpt lat="52.08076" lon="4.40893">
        <ele>-3.75</ele>
        <time>2021-04-09T12:42:55Z</time>
      </trkpt>
      <trkpt lat="52.08231" lon="4.4109">
        <ele>-3.62</ele>
        <time>2021-04-09T12:43:07Z</time>
      </trkpt>
      <trkpt lat="52.08336" lon="4.41237">
        <ele>-4.49</ele>
        <time>2021-04-09T12:43:19Z</time>
      </trkpt>
      <trkpt lat="52.08405" lon="4.41341">
        <ele>-4.59</ele>
        <time>2021-04-09T12:43:32Z</time>
      </trkpt>
      <trkpt lat="52.08475" lon="4.41452">
        <ele>-3</ele>
        <time>2021-04-09T12:43:44Z</time>
      </trkpt>
      <trkpt lat="52.08576" lon="4.41629">
        <ele>-5</ele>
        <time>2021-04-09T12:43:56Z</time>
      </trkpt>
      <trkpt lat="52.08832" lon="4.42102">
        <ele>-4.02</ele>
        <time>2021-04-09T12:44:09Z</time>
      </trkpt>
      <trkpt lat="52.09236" lon="4.42857">
        <ele>-4.49</ele>
        <time>2021-04-09T12:44:21Z</time>
      </trkpt>
      <trkpt lat="52.09609" lon="4.43607">
        <ele>-4</ele>
        <time>2021-04-09T12:44:34Z</time>
      </trkpt>
      <trkpt lat="52.10182" lon="4.44766">
        <ele>-4.44</ele>
        <time>2021-04-09T12:44:46Z</time>
      </trkpt>
      <trkpt lat="52.10399" lon="4.4517">
        <ele>-5.57</ele>
        <time>2021-04-09T12:44:58Z</time>
      </trkpt>
      <trkpt lat="52.10496" lon="4.45325">
        <ele>-4.16</ele>
        <time>2021-04-09T12:45:11Z</time>
      </trkpt>
      <trkpt lat="52.10605" lon="4.45489">
        <ele>-0.52</ele>
        <time>2021-04-09T12:45:23Z</time>
      </trkpt>
      <trkpt lat="52.10758" lon="4.45691">
        <ele>-1.67</ele>
        <time>2021-04-09T12:45:36Z</time>
      </trkpt>
      <trkpt lat="52.11093" lon="4.46119">
        <ele>1.05</ele>
        <time>2021-04-09T12:45:48Z</time>
      </trkpt>
      <trkpt lat="52.11169" lon="4.46214">
        <ele>-1.61</ele>
        <time>2021-04-09T12:46:00Z</time>
      </trkpt>
      <trkpt lat="52.11289" lon="4.46354">
        <ele>0.4</ele>
        <time>2021-04-09T12:46:13Z</time>
      </trkpt>
      <trkpt lat="52.11573" lon="4.4671">
        <ele>-1.12</ele>
        <time>2021-04-09T12:46:25Z</time>
      </trkpt>
      <trkpt lat="52.11685" lon="4.46862">
        <ele>-0.69</ele>
        <time>2021-04-09T12:46:38Z</time>
      </trkpt>
      <trkpt lat="52.11887" lon="4.47149">
        <ele>-1.58</ele>
        <time>2021-04-09T12:46:50Z</time>
      </trkpt>
      <trkpt lat="52.12014" lon="4.4734">
        <ele>-1.49</ele>
        <time>2021-04-09T12:47:02Z</time>
      </trkpt>
      <trkpt lat="52.12187" lon="4.47617">
        <ele>-4.27</ele>
        <time>2021-04-09T12:47:15Z</time>
      </trkpt>
      <trkpt lat="52.12298" lon="4.47805">
        <ele>-3.02</ele>
        <time>2021-04-09T12:47:27Z</time>
      </trkpt>
      <trkpt lat="52.12684" lon="4.48548">
        <ele>-2.9</ele>
        <time>2021-04-09T12:47:45Z</time>
      </trkpt>
      <trkpt lat="52.12752" lon="4.48682">
        <ele>-3.06</ele>
        <time>2021-04-09T12:48:03Z</time>
      </trkpt>
      <trkpt lat="52.12877" lon="4.48949">
        <ele>-0.03</ele>
        <time>2021-04-09T12:48:12Z</time>
      </trkpt>
      <trkpt lat="52.12951" lon="4.49113">
        <ele>-1</ele>
        <time>2021-04-09T12:48:21Z</time>
      </trkpt>
      <trkpt lat="52.13017" lon="4.49261">
        <ele>-1.76</ele>
        <time>2021-04-09T12:48:29Z</time>
      </trkpt>
      <trkpt lat="52.13123" lon="4.49509">
        <time>2021-04-09T12:48:38Z</time>
      </trkpt>
      <trkpt lat="52.13235" lon="4.4974">
        <ele>1.47</ele>
        <time>2021-04-09T12:48:47Z</time>
      </trkpt>
      <trkpt lat="52.13503" lon="4.50266">
        <ele>0.82</ele>
        <time>2021-04-09T12:48:56Z</time>
      </trkpt>
      <trkpt lat="52.13594" lon="4.50439">
        <ele>-2.79</ele>
        <time>2021-04-09T12:49:05Z</time>
      </trkpt>
      <trkpt lat="52.1364" lon="4.50514">
        <ele>-2.96</ele>
        <time>2021-04-09T12:49:13Z</time>
      </trkpt>
      <trkpt lat="52.13719" lon="4.50632">
        <ele>1.07</ele>
        <time>2021-04-09T12:49:22Z</time>
      </trkpt>
      <trkpt lat="52.13814" lon="4.50752">
        <ele>0.04</ele>
        <time>2021-04-09T12:49:33Z</time>
      </trkpt>
      <trkpt lat="52.13867" lon="4.50812">
        <ele>1.22</ele>
        <time>2021-04-09T12:49:44Z</time>
      </trkpt>
      <trkpt lat="52.13963" lon="4.50914">
        <ele>1.66</ele>
        <time>2021-04-09T12:49:55Z</time>
      </trkpt>
      <trkpt lat="52.14217" lon="4.51199">
        <ele>3.48</ele>
        <time>2021-04-09T12:50:06Z</time>
      </trkpt>
      <trkpt lat="52.14265" lon="4.51259">
        <ele>2.39</ele>
        <time>2021-04-09T12:50:18Z</time>
      </trkpt>
      <trkpt lat="52.14322" lon="4.51335">
        <ele>-1.87</ele>
        <time>2021-04-09T12:50:29Z</time>
      </trkpt>
      <trkpt lat="52.14356" lon="4.51385">
        <ele>-1.22</ele>
        <time>2021-04-09T12:50:40Z</time>
      </trkpt>
      <trkpt lat="52.14396" lon="4.51449">
        <ele>-0.58</ele>
        <time>2021-04-09T12:50:51Z</time>
      </trkpt>
      <trkpt lat="52.14442" lon="4.51528">
        <ele>3.92</ele>
        <time>2021-04-09T12:51:02Z</time>
      </trkpt>
      <trkpt lat="52.14487" lon="4.51612">
        <ele>0.52</ele>
        <time>2021-04-09T12:51:13Z</time>
      </trkpt>
      <trkpt lat="52.14558" lon="4.51752">
        <ele>0.82</ele>
        <time>2021-04-09T12:51:24Z</time>
      </trkpt>
      <trkpt lat="52.146" lon="4.51865">
        <ele>1.05</ele>
        <time>2021-04-09T12:51:35Z</time>
      </trkpt>
      <trkpt lat="52.14649" lon="4.52025">
        <ele>1.36</ele>
        <time>2021-04-09T12:51:46Z</time>
      </trkpt>
      <trkpt lat="52.14807" lon="4.5258">
        <ele>2.44</ele>
        <time>2021-04-09T12:51:58Z</time>
      </trkpt>
      <trkpt lat="52.14856" lon="4.52741">
        <ele>2.76</ele>
        <time>2021-04-09T12:52:09Z</time>
      </trkpt>
      <trkpt lat="52.14905" lon="4.52891">
        <ele>3.06</ele>
        <time>2021-04-09T12:52:20Z</time>
      </trkpt>
      <trkpt lat="52.14936" lon="4.52978">
        <ele>3.23</ele>
        <time>2021-04-09T12:52:31Z</time>
      </trkpt>
      <trkpt lat="52.14987" lon="4.5313">
        <ele>4.18</ele>
        <time>2021-04-09T12:52:42Z</time>
      </trkpt>
      <trkpt lat="52.15114" lon="4.5344">
        <ele>-0.55</ele>
        <time>2021-04-09T12:52:53Z</time>
      </trkpt>
      <trkpt lat="52.15211" lon="4.5366">
        <ele>2.6</ele>
        <time>2021-04-09T12:53:04Z</time>
      </trkpt>
      <trkpt lat="52.1563" lon="4.5457">
        <ele>1</ele>
        <time>2021-04-09T12:53:15Z</time>
      </trkpt>
      <trkpt lat="52.15898" lon="4.55117">
        <ele>0.34</ele>
        <time>2021-04-09T12:53:26Z</time>
      </trkpt>
      <trkpt lat="52.16003" lon="4.55305">
        <ele>1</ele>
        <time>2021-04-09T12:53:37Z</time>
      </trkpt>
      <trkpt lat="52.16137" lon="4.55529">
        <ele>-0.16</ele>
        <time>2021-04-09T12:53:49Z</time>
      </trkpt>
      <trkpt lat="52.16297" lon="4.55766">
        <ele>-0.81</ele>
        <time>2021-04-09T12:54:00Z</time>
      </trkpt>
      <trkpt lat="52.16372" lon="4.55867">
        <ele>-0.61</ele>
        <time>2021-04-09T12:54:11Z</time>
      </trkpt>
      <trkpt lat="52.16471" lon="4.5599">
        <ele>-1.35</ele>
        <time>2021-04-09T12:54:22Z</time>
      </trkpt>
      <trkpt lat="52.16645" lon="4.56192">
        <ele>-2.6</ele>
        <time>2021-04-09T12:54:33Z</time>
      </trkpt>
      <trkpt lat="52.16723" lon="4.56276">
        <ele>-0.92</ele>
        <time>2021-04-09T12:54:44Z</time>
      </trkpt>
      <trkpt lat="52.16872" lon="4.56448">
        <ele>0.38</ele>
        <time>2021-04-09T12:54:55Z</time>
      </trkpt>
      <trkpt lat="52.16979" lon="4.56598">
        <ele>-2.24</ele>
        <time>2021-04-09T12:55:06Z</time>
      </trkpt>
      <trkpt lat="52.17124" lon="4.56821">
        <ele>-1.74</ele>
        <time>2021-04-09T12:55:17Z</time>
      </trkpt>
      <trkpt lat="52.1718" lon="4.56922">
        <ele>-2.42</ele>
        <time>2021-04-09T12:55:28Z</time>
      </trkpt>
      <trkpt lat="52.17263" lon="4.57085">
        <ele>-1.95</ele>
        <time>2021-04-09T12:55:40Z</time>
      </trkpt>
      <trkpt lat="52.17354" lon="4.57296">
        <time>2021-04-09T12:55:51Z</time>
      </trkpt>
      <trkpt lat="52.17433" lon="4.57505">
        <ele>-1.67</ele>
        <time>2021-04-09T12:56:02Z</time>
      </trkpt>
      <trkpt lat="52.17546" lon="4.57813">
        <ele>-1.52</ele>
        <time>2021-04-09T12:56:13Z</time>
      </trkpt>
      <trkpt lat="52.17627" lon="4.58024">
        <ele>-1.45</ele>
        <time>2021-04-09T12:56:24Z</time>
      </trkpt>
      <trkpt lat="52.17712" lon="4.5824">
        <ele>-0.38</ele>
        <time>2021-04-09T12:56:35Z</time>
      </trkpt>
      <trkpt lat="52.17864" lon="4.58607">
        <ele>-1.01</ele>
        <time>2021-04-09T12:56:46Z</time>
      </trkpt>
      <trkpt lat="52.17966" lon="4.58846">
        <ele>-1</ele>
        <time>2021-04-09T12:56:57Z</time>
      </trkpt>
      <trkpt lat="52.18152" lon="4.5932">
        <ele>1.24</ele>
        <time>2021-04-09T12:57:08Z</time>
      </trkpt>
      <trkpt lat="52.18223" lon="4.59485">
        <ele>-0.46</ele>
        <time>2021-04-09T12:57:19Z</time>
      </trkpt>
      <trkpt lat="52.18276" lon="4.59596">
        <ele>-3.5</ele>
        <time>2021-04-09T12:57:31Z</time>
      </trkpt>
      <trkpt lat="52.18324" lon="4.59691">
        <ele>-1.34</ele>
        <time>2021-04-09T12:57:42Z</time>
      </trkpt>
      <trkpt lat="52.18359" lon="4.59756">
        <ele>-2.08</ele>
        <time>2021-04-09T12:57:53Z</time>
      </trkpt>
      <trkpt lat="52.18482" lon="4.59957">
        <ele>-2.92</ele>
        <time>2021-04-09T12:58:04Z</time>
      </trkpt>
      <trkpt lat="52.18604" lon="4.60135">
        <ele>-4.25</ele>
        <time>2021-04-09T12:58:15Z</time>
      </trkpt>
      <trkpt lat="52.18777" lon="4.60344">
        <ele>-4.59</ele>
        <time>2021-04-09T12:58:26Z</time>
      </trkpt>
      <trkpt lat="52.18887" lon="4.60457">
        <ele>-2.94</ele>
        <time>2021-04-09T12:58:37Z</time>
      </trkpt>
      <trkpt lat="52.18965" lon="4.60531">
        <ele>-1.89</ele>
        <time>2021-04-09T12:58:48Z</time>
      </trkpt>
      <trkpt lat="52.19016" lon="4.60583">
        <ele>-1.59</ele>
        <time>2021-04-09T12:58:59Z</time>
      </trkpt>
      <trkpt lat="52.1911" lon="4.60665">
        <ele>-3</ele>
        <time>2021-04-09T12:59:11Z</time>
      </trkpt>
      <trkpt lat="52.19226" lon="4.60774">
        <ele>-1.87</ele>
        <time>2021-04-09T12:59:22Z</time>
      </trkpt>
      <trkpt lat="52.1936" lon="4.60897">
        <ele>-2.36</ele>
        <time>2021-04-09T12:59:33Z</time>
      </trkpt>
      <trkpt lat="52.19919" lon="4.6142">
        <ele>-2.86</ele>
        <time>2021-04-09T12:59:44Z</time>
      </trkpt>
      <trkpt lat="52.20705" lon="4.6215">
        <ele>-4.03</ele>
        <time>2021-04-09T12:59:55Z</time>
      </trkpt>
      <trkpt lat="52.20891" lon="4.62307">
        <ele>-2.01</ele>
        <time>2021-04-09T13:00:06Z</time>
      </trkpt>
      <trkpt lat="52.21087" lon="4.62456">
        <ele>-3.7</ele>
        <time>2021-04-09T13:00:17Z</time>
      </trkpt>
      <trkpt lat="52.21215" lon="4.62542">
        <ele>-4.52</ele>
        <time>2021-04-09T13:00:28Z</time>
      </trkpt>
      <trkpt lat="52.21369" lon="4.6264">
        <ele>-3.03</ele>
        <time>2021-04-09T13:00:39Z</time>
      </trkpt>
      <trkpt lat="52.21524" lon="4.62729">
        <ele>-1.89</ele>
        <time>2021-04-09T13:00:50Z</time>
      </trkpt>
      <trkpt lat="52.21609" lon="4.62777">
        <ele>3.95</ele>
        <time>2021-04-09T13:01:02Z</time>
      </trkpt>
      <trkpt lat="52.21768" lon="4.62866">
        <ele>-2</ele>
        <time>2021-04-09T13:01:13Z</time>
      </trkpt>
      <trkpt lat="52.21854" lon="4.62918">
        <ele>-2.37</ele>
        <time>2021-04-09T13:01:24Z</time>
      </trkpt>
      <trkpt lat="52.21907" lon="4.62956">
        <ele>-2.76</ele>
        <time>2021-04-09T13:01:35Z</time>
      </trkpt>
      <trkpt lat="52.22028" lon="4.63057">
        <ele>-2.03</ele>
        <time>2021-04-09T13:01:46Z</time>
      </trkpt>
      <trkpt lat="52.22093" lon="4.63124">
        <ele>-2.1</ele>
        <time>2021-04-09T13:01:57Z</time>
      </trkpt>
      <trkpt lat="52.22191" lon="4.63242">
        <ele>-1.94</ele>
        <time>2021-04-09T13:02:08Z</time>
      </trkpt>
      <trkpt lat="52.2223" lon="4.63293">
        <ele>-2.48</ele>
        <time>2021-04-09T13:02:19Z</time>
      </trkpt>
      <trkpt lat="52.22946" lon="4.64339">
        <ele>-5</ele>
        <time>2021-04-09T13:02:30Z</time>
      </trkpt>
      <trkpt lat="52.23198" lon="4.64699">
        <ele>-5.46</ele>
        <time>2021-04-09T13:02:41Z</time>
      </trkpt>
      <trkpt lat="52.23298" lon="4.64839">
        <ele>-1.26</ele>
        <time>2021-04-09T13:02:53Z</time>
      </trkpt>
      <trkpt lat="52.23433" lon="4.65021">
        <ele>-3.39</ele>
        <time>2021-04-09T13:03:04Z</time>
      </trkpt>
      <trkpt lat="52.23578" lon="4.65206">
        <ele>-3.38</ele>
        <time>2021-04-09T13:03:15Z</time>
      </trkpt>
      <trkpt lat="52.23748" lon="4.65429">
        <ele>-6.5</ele>
        <time>2021-04-09T13:03:26Z</time>
      </trkpt>
      <trkpt lat="52.23836" lon="4.65551">
        <ele>-0.99</ele>
        <time>2021-04-09T13:03:37Z</time>
      </trkpt>
      <trkpt lat="52.24083" lon="4.65904">
        <ele>-3.54</ele>
        <time>2021-04-09T13:03:48Z</time>
      </trkpt>
      <trkpt lat="52.24123" lon="4.65966">
        <ele>-6</ele>
        <time>2021-04-09T13:03:59Z</time>
      </trkpt>
      <trkpt lat="52.24496" lon="4.66503">
        <ele>-4</ele>
        <time>2021-04-09T13:04:10Z</time>
      </trkpt>
      <trkpt lat="52.25355" lon="4.67733">
        <ele>-5.77</ele>
        <time>2021-04-09T13:04:21Z</time>
      </trkpt>
      <trkpt lat="52.25764" lon="4.68326">
        <ele>-6.12</ele>
        <time>2021-04-09T13:04:33Z</time>
      </trkpt>
      <trkpt lat="52.26269" lon="4.69042">
        <ele>-6.2</ele>
        <time>2021-04-09T13:04:44Z</time>
      </trkpt>
      <trkpt lat="52.26564" lon="4.69468">
        <ele>-5</ele>
        <time>2021-04-09T13:04:55Z</time>
      </trkpt>
      <trkpt lat="52.26712" lon="4.69675">
        <ele>-4</ele>
        <time>2021-04-09T13:05:06Z</time>
      </trkpt>
      <trkpt lat="52.26832" lon="4.69848">
        <ele>-4.05</ele>
        <time>2021-04-09T13:05:17Z</time>
      </trkpt>
      <trkpt lat="52.28822" lon="4.72703">
        <ele>0.48</ele>
        <time>2021-04-09T13:07:34Z</time>
      </trkpt>
      <trkpt lat="52.28852" lon="4.72771">
        <ele>-1.5</ele>
        <time>2021-04-09T13:07:47Z</time>
      </trkpt>
      <trkpt lat="52.28941" lon="4.72935">
        <ele>-2.54</ele>
        <time>2021-04-09T13:07:59Z</time>
      </trkpt>
      <trkpt lat="52.28958" lon="4.72971">
        <ele>-3</ele>
        <time>2021-04-09T13:08:11Z</time>
      </trkpt>
      <trkpt lat="52.29014" lon="4.73075">
        <ele>-2.85</ele>
        <time>2021-04-09T13:08:23Z</time>
      </trkpt>
      <trkpt lat="52.29029" lon="4.73096">
        <ele>-3.47</ele>
        <time>2021-04-09T13:08:36Z</time>
      </trkpt>
      <trkpt lat="52.2906" lon="4.73132">
        <ele>-3.64</ele>
        <time>2021-04-09T13:08:48Z</time>
      </trkpt>
      <trkpt lat="52.29096" lon="4.73163">
        <ele>-2.58</ele>
        <time>2021-04-09T13:09:00Z</time>
      </trkpt>
      <trkpt lat="52.29134" lon="4.73184">
        <ele>-3.26</ele>
        <time>2021-04-09T13:09:13Z</time>
      </trkpt>
      <trkpt lat="52.29157" lon="4.73195">
        <ele>-3.37</ele>
        <time>2021-04-09T13:09:25Z</time>
      </trkpt>
      <trkpt lat="52.29181" lon="4.73203">
        <ele>-3.47</ele>
        <time>2021-04-09T13:09:37Z</time>
      </trkpt>
      <trkpt lat="52.29221" lon="4.73209">
        <ele>-3.63</ele>
        <time>2021-04-09T13:09:50Z</time>
      </trkpt>
      <trkpt lat="52.29238" lon="4.73209">
        <ele>-3.7</ele>
        <time>2021-04-09T13:10:02Z</time>
      </trkpt>
      <trkpt lat="52.29272" lon="4.73205">
        <ele>-3.42</ele>
        <time>2021-04-09T13:10:14Z</time>
      </trkpt>
      <trkpt lat="52.29297" lon="4.73198">
        <ele>-3.72</ele>
        <time>2021-04-09T13:10:27Z</time>
      </trkpt>
      <trkpt lat="52.29397" lon="4.73166">
        <ele>-4.4</ele>
        <time>2021-04-09T13:10:39Z</time>
      </trkpt>
      <trkpt lat="52.29476" lon="4.73144">
        <ele>-3.98</ele>
        <time>2021-04-09T13:10:51Z</time>
      </trkpt>
      <trkpt lat="52.29523" lon="4.73133">
        <ele>-5</ele>
        <time>2021-04-09T13:11:03Z</time>
      </trkpt>
      <trkpt lat="52.2962" lon="4.73122">
        <ele>-4.69</ele>
        <time>2021-04-09T13:11:16Z</time>
      </trkpt>
      <trkpt lat="52.29669" lon="4.73121">
        <ele>-1.43</ele>
        <time>2021-04-09T13:11:28Z</time>
      </trkpt>
      <trkpt lat="52.29739" lon="4.73122">
        <ele>-3.75</ele>
        <time>2021-04-09T13:11:40Z</time>
      </trkpt>
      <trkpt lat="52.29821" lon="4.73129">
        <ele>-4.27</ele>
        <time>2021-04-09T13:11:53Z</time>
      </trkpt>
      <trkpt lat="52.3205" lon="4.73334">
        <ele>-4</ele>
        <time>2021-04-09T13:12:05Z</time>
      </trkpt>
      <trkpt lat="52.32189" lon="4.73346">
        <ele>-6.63</ele>
        <time>2021-04-09T13:12:17Z</time>
      </trkpt>
      <trkpt lat="52.34556" lon="4.73564">
        <ele>-5</ele>
        <time>2021-04-09T13:12:30Z</time>
      </trkpt>
      <trkpt lat="52.34655" lon="4.73575">
        <ele>-5.57</ele>
        <time>2021-04-09T13:12:42Z</time>
      </trkpt>
      <trkpt lat="52.34764" lon="4.73592">
        <ele>-4.64</ele>
        <time>2021-04-09T13:12:54Z</time>
      </trkpt>
      <trkpt lat="52.34935" lon="4.73629">
        <ele>-6</ele>
        <time>2021-04-09T13:13:07Z</time>
      </trkpt>
      <trkpt lat="52.35137" lon="4.73718">
        <ele>-6.05</ele>
        <time>2021-04-09T13:13:10Z</time>
      </trkpt>
      <trkpt lat="52.35184" lon="4.73742">
        <ele>-4</ele>
        <time>2021-04-09T13:13:13Z</time>
      </trkpt>
      <trkpt lat="52.3523" lon="4.73769">
        <ele>-6</ele>
        <time>2021-04-09T13:13:16Z</time>
      </trkpt>
      <trkpt lat="52.35254" lon="4.73788">
        <ele>-6.09</ele>
        <time>2021-04-09T13:13:19Z</time>
      </trkpt>
      <trkpt lat="52.35288" lon="4.73825">
        <ele>-6.05</ele>
        <time>2021-04-09T13:13:22Z</time>
      </trkpt>
      <trkpt lat="52.35305" lon="4.73847">
        <ele>-6.04</ele>
        <time>2021-04-09T13:13:25Z</time>
      </trkpt>
      <trkpt lat="52.35322" lon="4.73874">
        <ele>-6.02</ele>
        <time>2021-04-09T13:13:28Z</time>
      </trkpt>
      <trkpt lat="52.35339" lon="4.73908">
        <ele>-6</ele>
        <time>2021-04-09T13:13:31Z</time>
      </trkpt>
      <trkpt lat="52.35365" lon="4.73968">
        <ele>-5.76</ele>
        <time>2021-04-09T13:13:34Z</time>
      </trkpt>
      <trkpt lat="52.35384" lon="4.74023">
        <ele>-4.02</ele>
        <time>2021-04-09T13:13:37Z</time>
      </trkpt>
      <trkpt lat="52.35414" lon="4.74103">
        <ele>-6.78</ele>
        <time>2021-04-09T13:13:44Z</time>
      </trkpt>
      <trkpt lat="52.35442" lon="4.74158">
        <ele>-4.39</ele>
        <time>2021-04-09T13:13:52Z</time>
      </trkpt>
      <trkpt lat="52.35455" lon="4.74182">
        <ele>-4</ele>
        <time>2021-04-09T13:13:59Z</time>
      </trkpt>
      <trkpt lat="52.35481" lon="4.7422">
        <ele>-4.32</ele>
        <time>2021-04-09T13:14:06Z</time>
      </trkpt>
      <trkpt lat="52.35505" lon="4.74248">
        <ele>-5.19</ele>
        <time>2021-04-09T13:14:13Z</time>
      </trkpt>
      <trkpt lat="52.35543" lon="4.7428">
        <ele>-5</ele>
        <time>2021-04-09T13:14:20Z</time>
      </trkpt>
      <trkpt lat="52.35568" lon="4.74296">
        <ele>-4.88</ele>
        <time>2021-04-09T13:14:28Z</time>
      </trkpt>
      <trkpt lat="52.35589" lon="4.74306">
        <ele>-4.79</ele>
        <time>2021-04-09T13:14:35Z</time>
      </trkpt>
      <trkpt lat="52.35613" lon="4.74314">
        <ele>-4.06</ele>
        <time>2021-04-09T13:14:42Z</time>
      </trkpt>
      <trkpt lat="52.35661" lon="4.74319">
        <ele>-5.31</ele>
        <time>2021-04-09T13:14:49Z</time>
      </trkpt>
      <trkpt lat="52.35709" lon="4.74312">
        <ele>-6.53</ele>
        <time>2021-04-09T13:14:57Z</time>
      </trkpt>
      <trkpt lat="52.35749" lon="4.74296">
        <ele>-7</ele>
        <time>2021-04-09T13:15:04Z</time>
      </trkpt>
      <trkpt lat="52.35785" lon="4.74273">
        <ele>-5.96</ele>
        <time>2021-04-09T13:15:11Z</time>
      </trkpt>
      <trkpt lat="52.35812" lon="4.74248">
        <ele>-5.24</ele>
        <time>2021-04-09T13:15:18Z</time>
      </trkpt>
      <trkpt lat="52.35835" lon="4.74222">
        <ele>-5.93</ele>
        <time>2021-04-09T13:15:25Z</time>
      </trkpt>
      <trkpt lat="52.35858" lon="4.74191">
        <ele>-6.12</ele>
        <time>2021-04-09T13:15:33Z</time>
      </trkpt>
      <trkpt lat="52.35872" lon="4.74168">
        <ele>-7.34</ele>
        <time>2021-04-09T13:15:40Z</time>
      </trkpt>
      <trkpt lat="52.35894" lon="4.74125">
        <ele>-7.81</ele>
        <time>2021-04-09T13:15:47Z</time>
      </trkpt>
      <trkpt lat="52.3591" lon="4.74086">
        <ele>-7.26</ele>
        <time>2021-04-09T13:15:54Z</time>
      </trkpt>
      <trkpt lat="52.35927" lon="4.74026">
        <ele>-7.22</ele>
        <time>2021-04-09T13:16:02Z</time>
      </trkpt>
      <trkpt lat="52.35936" lon="4.73986">
        <ele>-6.44</ele>
        <time>2021-04-09T13:16:09Z</time>
      </trkpt>
      <trkpt lat="52.35946" lon="4.73918">
        <ele>-4.97</ele>
        <time>2021-04-09T13:16:16Z</time>
      </trkpt>
      <trkpt lat="52.35964" lon="4.73682">
        <ele>-3.71</ele>
        <time>2021-04-09T13:16:23Z</time>
      </trkpt>
      <trkpt lat="52.35975" lon="4.73607">
        <ele>-3.77</ele>
        <time>2021-04-09T13:16:30Z</time>
      </trkpt>
      <trkpt lat="52.35988" lon="4.73543">
        <ele>-1.67</ele>
        <time>2021-04-09T13:16:38Z</time>
      </trkpt>
      <trkpt lat="52.35998" lon="4.73507">
        <ele>-1.83</ele>
        <time>2021-04-09T13:16:45Z</time>
      </trkpt>
      <trkpt lat="52.36011" lon="4.7347">
        <ele>-2.77</ele>
        <time>2021-04-09T13:16:52Z</time>
      </trkpt>
      <trkpt lat="52.36036" lon="4.73409">
        <ele>-3.02</ele>
        <time>2021-04-09T13:16:59Z</time>
      </trkpt>
      <trkpt lat="52.36319" lon="4.7287">
        <ele>-1.12</ele>
        <time>2021-04-09T13:17:07Z</time>
      </trkpt>
      <trkpt lat="52.36363" lon="4.72772">
        <ele>-1.85</ele>
        <time>2021-04-09T13:17:14Z</time>
      </trkpt>
      <trkpt lat="52.36953" lon="4.71673">
        <ele>-1</ele>
        <time>2021-04-09T13:17:21Z</time>
      </trkpt>
      <trkpt lat="52.37" lon="4.7158">
        <ele>-3.13</ele>
        <time>2021-04-09T13:17:28Z</time>
      </trkpt>
      <trkpt lat="52.3721" lon="4.71188">
        <ele>1</ele>
        <time>2021-04-09T13:17:35Z</time>
      </trkpt>
      <trkpt lat="52.3725" lon="4.71116">
        <ele>0.82</ele>
        <time>2021-04-09T13:17:43Z</time>
      </trkpt>
      <trkpt lat="52.37276" lon="4.71074">
        <ele>1.38</ele>
        <time>2021-04-09T13:17:50Z</time>
      </trkpt>
      <trkpt lat="52.37302" lon="4.7104">
        <ele>0.66</ele>
        <time>2021-04-09T13:17:57Z</time>
      </trkpt>
      <trkpt lat="52.37341" lon="4.71">
        <ele>2.99</ele>
        <time>2021-04-09T13:18:04Z</time>
      </trkpt>
      <trkpt lat="52.37383" lon="4.70965">
        <ele>0.45</ele>
        <time>2021-04-09T13:18:12Z</time>
      </trkpt>
      <trkpt lat="52.3744" lon="4.70929">
        <ele>-0.17</ele>
        <time>2021-04-09T13:18:19Z</time>
      </trkpt>
      <trkpt lat="52.37457" lon="4.70921">
        <ele>0.91</ele>
        <time>2021-04-09T13:18:26Z</time>
      </trkpt>
      <trkpt lat="52.37507" lon="4.70905">
        <ele>1.86</ele>
        <time>2021-04-09T13:18:33Z</time>
      </trkpt>
      <trkpt lat="52.3756" lon="4.70895">
        <ele>1.9</ele>
        <time>2021-04-09T13:18:40Z</time>
      </trkpt>
      <trkpt lat="52.37619" lon="4.70889">
        <ele>1.7</ele>
        <time>2021-04-09T13:18:48Z</time>
      </trkpt>
      <trkpt lat="52.38041" lon="4.70822">
        <ele>0.73</ele>
        <time>2021-04-09T13:18:55Z</time>
      </trkpt>
      <trkpt lat="52.38147" lon="4.70799">
        <ele>5.47</ele>
        <time>2021-04-09T13:19:02Z</time>
      </trkpt>
      <trkpt lat="52.38625" lon="4.70723">
        <ele>7.49</ele>
        <time>2021-04-09T13:19:09Z</time>
      </trkpt>
      <trkpt lat="52.39008" lon="4.70668">
        <ele>-3</ele>
        <time>2021-04-09T13:19:17Z</time>
      </trkpt>
      <trkpt lat="52.39288" lon="4.70624">
        <ele>-2.63</ele>
        <time>2021-04-09T13:19:24Z</time>
      </trkpt>
      <trkpt lat="52.40154" lon="4.70482">
        <ele>-2.27</ele>
        <time>2021-04-09T13:19:31Z</time>
      </trkpt>
      <trkpt lat="52.40271" lon="4.70454">
        <ele>1.5</ele>
        <time>2021-04-09T13:19:38Z</time>
      </trkpt>
      <trkpt lat="52.40386" lon="4.70419">
        <ele>-0.91</ele>
        <time>2021-04-09T13:19:45Z</time>
      </trkpt>
      <trkpt lat="52.4053" lon="4.70358">
        <ele>1.12</ele>
        <time>2021-04-09T13:19:53Z</time>
      </trkpt>
      <trkpt lat="52.4137" lon="4.69916">
        <ele>0.72</ele>
        <time>2021-04-09T13:20:00Z</time>
      </trkpt>
      <trkpt lat="52.41456" lon="4.69868">
        <ele>0.17</ele>
        <time>2021-04-09T13:20:07Z</time>
      </trkpt>
      <trkpt lat="52.41535" lon="4.69818">
        <ele>-0.12</ele>
        <time>2021-04-09T13:20:14Z</time>
      </trkpt>
      <trkpt lat="52.41649" lon="4.69738">
        <ele>-1.28</ele>
        <time>2021-04-09T13:20:22Z</time>
      </trkpt>
      <trkpt lat="52.41729" lon="4.69674">
        <ele>-1.4</ele>
        <time>2021-04-09T13:20:29Z</time>
      </trkpt>
      <trkpt lat="52.41814" lon="4.69593">
        <ele>1.13</ele>
        <time>2021-04-09T13:20:36Z</time>
      </trkpt>
      <trkpt lat="52.41889" lon="4.69515">
        <ele>0.99</ele>
        <time>2021-04-09T13:20:43Z</time>
      </trkpt>
      <trkpt lat="52.42037" lon="4.6932">
        <ele>1.61</ele>
        <time>2021-04-09T13:20:50Z</time>
      </trkpt>
      <trkpt lat="52.42139" lon="4.69166">
        <ele>2.01</ele>
        <time>2021-04-09T13:20:58Z</time>
      </trkpt>
      <trkpt lat="52.42223" lon="4.6902">
        <ele>1</ele>
        <time>2021-04-09T13:21:05Z</time>
      </trkpt>
      <trkpt lat="52.42385" lon="4.68719">
        <ele>-3.87</ele>
        <time>2021-04-09T13:21:12Z</time>
      </trkpt>
      <trkpt lat="52.42453" lon="4.68596">
        <ele>-0.06</ele>
        <time>2021-04-09T13:21:19Z</time>
      </trkpt>
      <trkpt lat="52.42526" lon="4.68476">
        <ele>2.7</ele>
        <time>2021-04-09T13:21:27Z</time>
      </trkpt>
      <trkpt lat="52.42585" lon="4.68386">
        <ele>1.85</ele>
        <time>2021-04-09T13:21:34Z</time>
      </trkpt>
      <trkpt lat="52.42647" lon="4.68299">
        <ele>1</ele>
        <time>2021-04-09T13:21:41Z</time>
      </trkpt>
      <trkpt lat="52.42724" lon="4.68198">
        <ele>-0.77</ele>
        <time>2021-04-09T13:21:48Z</time>
      </trkpt>
      <trkpt lat="52.42753" lon="4.68163">
        <ele>-0.05</ele>
        <time>2021-04-09T13:21:55Z</time>
      </trkpt>
      <trkpt lat="52.43063" lon="4.67829">
        <ele>-0.38</ele>
        <time>2021-04-09T13:22:03Z</time>
      </trkpt>
      <trkpt lat="52.43381" lon="4.67499">
        <ele>1</ele>
        <time>2021-04-09T13:22:10Z</time>
      </trkpt>
      <trkpt lat="52.43624" lon="4.67243">
        <ele>1</ele>
        <time>2021-04-09T13:22:17Z</time>
      </trkpt>
      <trkpt lat="52.43682" lon="4.67205">
        <ele>-0.3</ele>
        <time>2021-04-09T13:22:21Z</time>
      </trkpt>
      <trkpt lat="52.43772" lon="4.67121">
        <ele>1</ele>
        <time>2021-04-09T13:22:24Z</time>
      </trkpt>
      <trkpt lat="52.43815" lon="4.67087">
        <ele>0.43</ele>
        <time>2021-04-09T13:22:28Z</time>
      </trkpt>
      <trkpt lat="52.43841" lon="4.67072">
        <ele>1.65</ele>
        <time>2021-04-09T13:22:31Z</time>
      </trkpt>
      <trkpt lat="52.43865" lon="4.67059">
        <ele>4.01</ele>
        <time>2021-04-09T13:22:35Z</time>
      </trkpt>
      <trkpt lat="52.43903" lon="4.67045">
        <ele>4.29</ele>
        <time>2021-04-09T13:22:38Z</time>
      </trkpt>
      <trkpt lat="52.43969" lon="4.67028">
        <ele>-3.74</ele>
        <time>2021-04-09T13:22:41Z</time>
      </trkpt>
      <trkpt lat="52.44033" lon="4.67015">
        <ele>0.19</ele>
        <time>2021-04-09T13:22:45Z</time>
      </trkpt>
      <trkpt lat="52.44095" lon="4.66993">
        <ele>2.76</ele>
        <time>2021-04-09T13:22:48Z</time>
      </trkpt>
      <trkpt lat="52.44147" lon="4.66962">
        <ele>-1.25</ele>
        <time>2021-04-09T13:22:52Z</time>
      </trkpt>
      <trkpt lat="52.44197" lon="4.66921">
        <ele>-2.68</ele>
        <time>2021-04-09T13:22:55Z</time>
      </trkpt>
      <trkpt lat="52.44225" lon="4.66892">
        <ele>-0.76</ele>
        <time>2021-04-09T13:22:59Z</time>
      </trkpt>
      <trkpt lat="52.44256" lon="4.66852">
        <ele>0.16</ele>
        <time>2021-04-09T13:23:02Z</time>
      </trkpt>
      <trkpt lat="52.44304" lon="4.66775">
        <ele>1</ele>
        <time>2021-04-09T13:23:06Z</time>
      </trkpt>
      <trkpt lat="52.44338" lon="4.66706">
        <ele>2.11</ele>
        <time>2021-04-09T13:23:09Z</time>
      </trkpt>
      <trkpt lat="52.44425" lon="4.66477">
        <ele>-0.81</ele>
        <time>2021-04-09T13:23:13Z</time>
      </trkpt>
      <trkpt lat="52.44458" lon="4.66407">
        <ele>-0.35</ele>
        <time>2021-04-09T13:23:16Z</time>
      </trkpt>
      <trkpt lat="52.445" lon="4.66341">
        <ele>2</ele>
        <time>2021-04-09T13:23:20Z</time>
      </trkpt>
      <trkpt lat="52.4453" lon="4.66302">
        <ele>3.06</ele>
        <time>2021-04-09T13:23:23Z</time>
      </trkpt>
      <trkpt lat="52.44586" lon="4.66243">
        <ele>2.83</ele>
        <time>2021-04-09T13:23:27Z</time>
      </trkpt>
      <trkpt lat="52.44663" lon="4.6617">
        <ele>1</ele>
        <time>2021-04-09T13:23:30Z</time>
      </trkpt>
      <trkpt lat="52.44771" lon="4.66079">
        <ele>3</ele>
        <time>2021-04-09T13:23:34Z</time>
      </trkpt>
      <trkpt lat="52.44877" lon="4.66002">
        <ele>5.2</ele>
        <time>2021-04-09T13:23:37Z</time>
      </trkpt>
      <trkpt lat="52.44985" lon="4.65933">
        <ele>6.04</ele>
        <time>2021-04-09T13:23:41Z</time>
      </trkpt>
      <trkpt lat="52.45028" lon="4.6592">
        <ele>4.88</ele>
        <time>2021-04-09T13:23:43Z</time>
      </trkpt>
      <trkpt lat="52.45076" lon="4.65901">
        <ele>5.4</ele>
        <time>2021-04-09T13:23:46Z</time>
      </trkpt>
      <trkpt lat="52.4511" lon="4.65897">
        <ele>4.74</ele>
        <time>2021-04-09T13:23:49Z</time>
      </trkpt>
      <trkpt lat="52.45146" lon="4.65904">
        <ele>4.07</ele>
        <time>2021-04-09T13:23:52Z</time>
      </trkpt>
      <trkpt lat="52.45301" lon="4.65951">
        <ele>1.22</ele>
        <time>2021-04-09T13:23:55Z</time>
      </trkpt>
      <trkpt lat="52.45338" lon="4.65954">
        <ele>0.18</ele>
        <time>2021-04-09T13:23:58Z</time>
      </trkpt>
      <trkpt lat="52.4537" lon="4.65948">
        <ele>1</ele>
        <time>2021-04-09T13:24:01Z</time>
      </trkpt>
      <trkpt lat="52.45394" lon="4.65938">
        <ele>0.86</ele>
        <time>2021-04-09T13:24:04Z</time>
      </trkpt>
      <trkpt lat="52.45453" lon="4.65899">
        <ele>0.94</ele>
        <time>2021-04-09T13:24:07Z</time>
      </trkpt>
      <trkpt lat="52.45499" lon="4.65864">
        <ele>1.05</ele>
        <time>2021-04-09T13:24:10Z</time>
      </trkpt>
      <trkpt lat="52.45649" lon="4.65771">
        <ele>1.09</ele>
        <time>2021-04-09T13:24:12Z</time>
      </trkpt>
      <trkpt lat="52.45686" lon="4.65754">
        <ele>1.96</ele>
        <time>2021-04-09T13:24:15Z</time>
      </trkpt>
      <trkpt lat="52.45795" lon="4.65715">
        <ele>2.4</ele>
        <time>2021-04-09T13:24:18Z</time>
      </trkpt>
      <trkpt lat="52.45823" lon="4.65702">
        <ele>0.67</ele>
        <time>2021-04-09T13:24:21Z</time>
      </trkpt>
      <trkpt lat="52.45829" lon="4.65695">
        <ele>0.19</ele>
        <time>2021-04-09T13:24:24Z</time>
      </trkpt>
      <trkpt lat="52.45832" lon="4.65686">
        <ele>0.03</ele>
        <time>2021-04-09T13:24:27Z</time>
      </trkpt>
      <trkpt lat="52.45835" lon="4.65669">
        <ele>2</ele>
        <time>2021-04-09T13:24:30Z</time>
      </trkpt>
      <trkpt lat="52.45793" lon="4.65371">
        <ele>4.16</ele>
        <time>2021-04-09T13:24:33Z</time>
      </trkpt>
      <trkpt lat="52.4579" lon="4.65333">
        <ele>4</ele>
        <time>2021-04-09T13:24:36Z</time>
      </trkpt>
      <trkpt lat="52.45792" lon="4.65275">
        <ele>3.96</ele>
        <time>2021-04-09T13:24:39Z</time>
      </trkpt>
      <trkpt lat="52.45795" lon="4.65238">
        <ele>3.62</ele>
        <time>2021-04-09T13:24:41Z</time>
      </trkpt>
      <trkpt lat="52.45801" lon="4.65204">
        <ele>3.16</ele>
        <time>2021-04-09T13:24:44Z</time>
      </trkpt>
      <trkpt lat="52.45809" lon="4.65169">
        <ele>3.13</ele>
        <time>2021-04-09T13:24:47Z</time>
      </trkpt>
      <trkpt lat="52.4582" lon="4.65135">
        <ele>3</ele>
        <time>2021-04-09T13:24:50Z</time>
      </trkpt>
      <trkpt lat="52.45845" lon="4.65079">
        <ele>1.92</ele>
        <time>2021-04-09T13:24:53Z</time>
      </trkpt>
      <trkpt lat="52.4601" lon="4.64745">
        <ele>2.67</ele>
        <time>2021-04-09T13:25:01Z</time>
      </trkpt>
      <trkpt lat="52.4605" lon="4.64671">
        <ele>5.4</ele>
        <time>2021-04-09T13:25:09Z</time>
      </trkpt>
      <trkpt lat="52.46074" lon="4.64645">
        <ele>8.39</ele>
        <time>2021-04-09T13:25:17Z</time>
      </trkpt>
      <trkpt lat="52.46094" lon="4.64628">
        <ele>8.6</ele>
        <time>2021-04-09T13:25:25Z</time>
      </trkpt>
      <trkpt lat="52.46134" lon="4.64604">
        <ele>8</ele>
        <time>2021-04-09T13:25:33Z</time>
      </trkpt>
      <trkpt lat="52.46154" lon="4.64587">
        <ele>7.39</ele>
        <time>2021-04-09T13:25:41Z</time>
      </trkpt>
      <trkpt lat="52.46173" lon="4.64566">
        <ele>6.56</ele>
        <time>2021-04-09T13:25:49Z</time>
      </trkpt>
      <trkpt lat="52.46198" lon="4.64526">
        <ele>7.73</ele>
        <time>2021-04-09T13:25:57Z</time>
      </trkpt>
      <trkpt lat="52.46207" lon="4.64506">
        <ele>7.44</ele>
        <time>2021-04-09T13:26:05Z</time>
      </trkpt>
      <trkpt lat="52.46225" lon="4.64455">
        <ele>7.65</ele>
        <time>2021-04-09T13:26:13Z</time>
      </trkpt>
      <trkpt lat="52.46236" lon="4.64392">
        <ele>8.52</ele>
        <time>2021-04-09T13:26:21Z</time>
      </trkpt>
      <trkpt lat="52.46237" lon="4.64356">
        <ele>7.92</ele>
        <time>2021-04-09T13:26:29Z</time>
      </trkpt>
      <trkpt lat="52.46233" lon="4.64031">
        <ele>10</ele>
        <time>2021-04-09T13:26:37Z</time>
      </trkpt>
      <trkpt lat="52.46233" lon="4.63828">
        <ele>6.09</ele>
        <time>2021-04-09T13:26:45Z</time>
      </trkpt>
      <trkpt lat="52.46239" lon="4.63511">
        <ele>4.77</ele>
        <time>2021-04-09T13:26:53Z</time>
      </trkpt>
      <trkpt lat="52.46238" lon="4.63462">
        <ele>4.45</ele>
        <time>2021-04-09T13:27:01Z</time>
      </trkpt>
      <trkpt lat="52.46232" lon="4.63397">
        <ele>4.66</ele>
        <time>2021-04-09T13:27:09Z</time>
      </trkpt>
      <trkpt lat="52.46212" lon="4.63293">
        <ele>5.13</ele>
        <time>2021-04-09T13:27:17Z</time>
      </trkpt>
      <trkpt lat="52.46212" lon="4.63257">
        <ele>5.61</ele>
        <time>2021-04-09T13:27:26Z</time>
      </trkpt>
      <trkpt lat="52.46214" lon="4.63226">
        <ele>5.61</ele>
        <time>2021-04-09T13:27:34Z</time>
      </trkpt>
      <trkpt lat="52.46219" lon="4.63213">
        <ele>4.92</ele>
        <time>2021-04-09T13:27:43Z</time>
      </trkpt>
      <trkpt lat="52.46246" lon="4.63154">
        <ele>2.6</ele>
        <time>2021-04-09T13:27:51Z</time>
      </trkpt>
      <trkpt lat="52.46286" lon="4.63089">
        <ele>3.68</ele>
        <time>2021-04-09T13:27:59Z</time>
      </trkpt>
      <trkpt lat="52.46314" lon="4.63031">
        <ele>2.2</ele>
        <time>2021-04-09T13:28:08Z</time>
      </trkpt>
      <trkpt lat="52.46324" lon="4.63005">
        <ele>2.51</ele>
        <time>2021-04-09T13:28:16Z</time>
      </trkpt>
      <trkpt lat="52.46349" lon="4.62919">
        <ele>2.79</ele>
        <time>2021-04-09T13:28:25Z</time>
      </trkpt>
      <trkpt lat="52.46355" lon="4.62878">
        <ele>2.05</ele>
        <time>2021-04-09T13:28:33Z</time>
      </trkpt>
      <trkpt lat="52.46358" lon="4.62833">
        <ele>1.24</ele>
        <time>2021-04-09T13:28:42Z</time>
      </trkpt>
      <trkpt lat="52.46355" lon="4.62122">
        <ele>2.91</ele>
        <time>2021-04-09T13:28:50Z</time>
      </trkpt>
      <trkpt lat="52.46343" lon="4.6085">
        <ele>6.66</ele>
        <time>2021-04-09T13:28:59Z</time>
      </trkpt>
      <trkpt lat="52.46339" lon="4.6079">
        <ele>9.78</ele>
        <time>2021-04-09T13:29:07Z</time>
      </trkpt>
      <trkpt lat="52.46338" lon="4.60738">
        <ele>9.99</ele>
        <time>2021-04-09T13:29:15Z</time>
      </trkpt>
      <trkpt lat="52.46331" lon="4.60677">
        <ele>11.69</ele>
        <time>2021-04-09T13:29:24Z</time>
      </trkpt>
      <trkpt lat="52.46312" lon="4.60602">
        <ele>10.44</ele>
        <time>2021-04-09T13:29:32Z</time>
      </trkpt>
      <trkpt lat="52.46321" lon="4.60595">
        <ele>12.37</ele>
        <time>2021-04-09T13:29:42Z</time>
      </trkpt>
      <trkpt lat="52.46329" lon="4.60586">
        <ele>14.12</ele>
        <time>2021-04-09T13:29:51Z</time>
      </trkpt>
      <trkpt lat="52.46335" lon="4.60576">
        <ele>14.5</ele>
        <time>2021-04-09T13:30:00Z</time>
      </trkpt>
      <trkpt lat="52.4634" lon="4.60562">
        <ele>12.53</ele>
        <time>2021-04-09T13:30:10Z</time>
      </trkpt>
      <trkpt lat="52.46342" lon="4.60539">
        <ele>10.78</ele>
        <time>2021-04-09T13:30:19Z</time>
      </trkpt>
      <trkpt lat="52.4634" lon="4.60245">
        <ele>3.64</ele>
        <time>2021-04-09T13:30:28Z</time>
      </trkpt>
      <trkpt lat="52.46338" lon="4.60218">
        <ele>3</ele>
        <time>2021-04-09T13:30:38Z</time>
      </trkpt>
      <trkpt lat="52.46327" lon="4.60113">
        <ele>2.29</ele>
        <time>2021-04-09T13:30:47Z</time>
      </trkpt>
      <trkpt lat="52.46326" lon="4.6008">
        <ele>2.38</ele>
        <time>2021-04-09T13:30:57Z</time>
      </trkpt>
      <trkpt lat="52.46335" lon="4.59725">
        <ele>5.15</ele>
        <time>2021-04-09T13:31:06Z</time>
      </trkpt>
      <trkpt lat="52.46335" lon="4.59506">
        <ele>8.62</ele>
        <time>2021-04-09T13:31:15Z</time>
      </trkpt>
      <trkpt lat="52.46348" lon="4.59393">
        <ele>5.41</ele>
        <time>2021-04-09T13:31:25Z</time>
      </trkpt>
      <trkpt lat="52.46348" lon="4.5916">
        <ele>6.93</ele>
        <time>2021-04-09T13:31:34Z</time>
      </trkpt>
      <trkpt lat="52.4635" lon="4.59052">
        <ele>7.72</ele>
        <time>2021-04-09T13:31:43Z</time>
      </trkpt>
      <trkpt lat="52.46349" lon="4.58912">
        <ele>7.47</ele>
        <time>2021-04-09T13:31:53Z</time>
      </trkpt>
      <trkpt lat="52.46344" lon="4.58763">
        <ele>5.05</ele>
        <time>2021-04-09T13:32:02Z</time>
      </trkpt>
    </trkseg>
  </trk>
</gpx>